[[{"header":{"parameterUnit":"m.s-1","parameterCategory":1,"la1":31.0,"la2":29.5877,"lo1":-88.7671,"lo2":-86.6584,"dy":0.0162,"dx":0.0185,"nx":115,"ny":88,"refTime":"2026-03-06T00:00:00:Z","depth":0,"parameterNumber":2,"parameterNumberName":"U-component_of_WINDS"},"data":[0.0,0.0,0.0,0.0,0.0,0.0,0.0,0.0,0.0,0.0,0.0,0.0,0.0,0.0,0.0,0.0,0.0,0.0,0.0,0.0,0.0,0.0,0.0,0.0,0.0,0.0,0.0,0.0,0.0,0.0,0.0,0.0,0.0,0.0,0.0,0.0,0.0,0.0,0.0,0.0,0.0,0.0,0.0,0.0,0.0,0.0,0.0,0.0,0.0,0.0,0.0,0.0,0.0,0.0,0.0,0.0,0.0,0.0,0.0,0.0,0.0,0.0,0.0,0.0,0.0,0.0,0.0,0.0,0.0,0.0,0.0,0.0,0.0,0.0,0.0,0.0,0.0,0.0,0.0,0.0,0.0,0.0,0.0,0.0,0.0,0.0,0.0,0.0,0.0,0.0,0.0,0.0,0.0,0.0,0.0,0.0,0.0,0.0,0.0,0.0,0.0,0.0,0.0,0.0,0.0,0.0,0.0,0.0,0.0,0.0,0.0,0.0,0.0,0.0,0.0,0.0,0.0,0.0,0.0,0.0,0.0,0.0,0.0,0.0,0.0,0.0,0.0,0.0,0.0,0.0,0.0,0.0,0.0,0.0,0.0,0.0,0.0,0.0,0.0,0.0,0.0,0.0,0.0,0.0,0.0,0.0,0.0,0.0,0.0,0.0,0.0,0.0,0.0,0.0,0.0,0.0,0.0,0.0,0.0,0.0,0.0,0.0,0.0,0.0,0.0,0.0,0.0,0.0,0.0,0.0,0.0,0.0,0.0,0.0,0.0,0.0,0.0,0.0,0.0,0.0,0.0,0.0,0.0,0.0,0.0,0.0,0.0,0.0,0.0,0.0,0.0,0.0,0.0,0.0,0.0,0.0,0.0,0.0,0.0,0.0,0.0,0.0,0.0,0.0,0.0,0.0,0.0,0.0,0.0,0.0,0.0,0.0,0.0,0.0,0.0,0.0,0.0,0.0,0.0,0.0,0.0,0.0,0.0,0.0,0.0,0.0,0.0,0.0,0.0,0.0,0.0,0.0,0.0,0.0,0.0,0.0,0.0,0.0,0.0,0.0,0.0,0.0,0.0,0.0,0.0,0.0,0.0,0.0,0.0,0.0,0.0,0.0,0.0,0.0,0.0,0.0,0.0,0.0,0.0,0.0,0.0,0.0,0.0,0.0,0.0,0.0,0.0,0.0,0.0,0.0,0.0,0.0,0.0,0.0,0.0,0.0,0.0,0.0,0.0,0.0,0.0,0.0,0.0,0.0,0.0,0.0,0.0,0.0,0.0,0.0,0.0,0.0,0.0,0.0,0.0,0.0,0.0,0.0,0.0,0.0,0.0,0.0,0.0,0.0,0.0,0.0,0.0,0.0,0.0,0.0,0.0,0.0,0.0,0.0,0.0,0.0,0.0,0.0,0.0,0.0,0.0,0.0,0.0,0.0,0.0,0.0,0.0,0.0,0.0,0.0,0.0,0.0,0.0,0.0,0.0,0.0,0.0,0.0,0.0,0.0,0.0,0.0,0.0,0.0,0.0,0.0,0.0,0.0,0.0,0.0,0.0,0.0,0.0,0.0,0.0,0.0,0.0,0.0,0.0,0.0,0.0,0.0,0.0,0.0,0.0,0.0,0.0,0.0,0.0,0.0,0.0,0.0,0.0,0.0,0.0,0.0,0.0,0.0,0.0,0.0,0.0,0.0,0.0,0.0,0.0,0.0,0.0,0.0,0.0,0.0,0.0,0.0,0.0,0.0,0.0,0.0,0.0,0.0,0.0,0.0,0.0,0.0,0.0,0.0,0.0,0.0,0.0,0.0,0.0,0.0,0.0,0.0,0.0,0.0,0.0,0.0,0.0,0.0,0.0,0.0,0.0,0.0,0.0,0.0,0.0,0.0,0.0,0.0,0.0,0.0,0.0,0.0,0.0,0.0,0.0,0.0,0.0,0.0,0.0,0.0,0.0,0.0,0.0,0.0,0.0,0.0,0.0,0.0,0.0,0.0,0.0,0.0,0.0,0.0,0.0,0.0,0.0,0.0,0.0,0.0,0.0,0.0,0.0,0.0,0.0,0.0,0.0,0.0,0.0,0.0,0.0,0.0,0.0,0.0,0.0,0.0,0.0,0.0,0.0,0.0,0.0,0.0,0.0,0.0,0.0,0.0,0.0,0.0,0.0,0.0,0.0,0.0,0.0,0.0,0.0,0.0,0.0,0.0,0.0,0.0,0.0,0.0,0.0,0.0,0.0,0.0,0.0,0.0,0.0,0.0,0.0,0.0,0.0,0.0,0.0,0.0,0.0,0.0,0.0,0.0,0.0,0.0,0.0,0.0,0.0,0.0,0.0,0.0,0.0,0.0,0.0,0.0,0.0,0.0,0.0,0.0,0.0,0.0,0.0,0.0,0.0,0.0,0.0,0.0,0.0,0.0,0.0,0.0,0.0,0.0,0.0,0.0,0.0,0.0,0.0,0.0,0.0,0.0,0.0,0.0,0.0,0.0,0.0,0.0,0.0,0.0,0.0,0.0,0.0,0.0,0.0,0.0,0.0,0.0,0.0,0.0,0.0,0.0,0.0,0.0,0.0,0.0,0.0,0.0,0.0,0.0,0.0,0.0,0.0,0.0,0.0,0.0,0.0,0.0,0.0,0.0,0.0,0.0,0.0,0.0,0.0,0.0,0.0,0.0,0.0,0.0,0.0,0.0,0.0,0.0,0.0,0.0,0.0,0.0,0.0,0.0,0.0,0.0,0.0,0.0,0.0,0.0,0.0,0.0,0.0,0.0,0.0,0.0,0.0,0.0,0.0,0.0,0.0,0.0,0.0,0.0,0.0,0.0,0.0,0.0,0.0,0.0,0.0,0.0,0.0,0.0,0.0,0.0,0.0,0.0,0.0,0.0,0.0,0.0,0.0,0.0,0.0,0.0,0.0,0.0,0.0,0.0,0.0,0.0,0.0,0.0,0.0,0.0,0.0,0.0,0.0,0.0,0.0,0.0,0.0,0.0,0.0,0.0,0.0,0.0,0.0,0.0,0.0,0.0,0.0,0.0,0.0,0.0,0.0,0.0,0.0,0.0,0.0,0.0,0.0,0.0,0.0,0.0,0.0,0.0,0.0,0.0,0.0,0.0,0.0,0.0,0.0,0.0,0.0,0.0,0.0,0.0,0.0,0.0,0.0,0.0,0.0,0.0,0.0,0.0,0.0,0.0,0.0,0.0,0.0,0.0,0.0,0.0,0.0,0.0,0.0,0.0,0.0,0.0,0.0,0.0,0.0,0.0,0.0,0.0,0.0,0.0,0.0,0.0,0.0,0.0,0.0,0.0,0.0,0.0,0.0,0.0,0.0,0.0,0.0,0.0,0.0,0.0,0.0,0.0,0.0,0.0,0.0,0.0,0.0,0.0,0.0,0.0,0.0,0.0,0.0,0.0,0.0,0.0,0.0,0.0,0.0,0.0,0.0,0.0,0.0,0.0,0.0,0.0,0.0,0.0,0.0,0.0,0.0,0.0,0.0,0.0,0.0,0.0,0.0,0.0,0.0,0.0,0.0,0.0,0.0,0.0,0.0,0.0,0.0,0.0,0.0,0.0,0.0,0.0,0.0,0.0,0.0,0.0,0.0,0.0,0.0,0.0,0.0,0.0,0.0,0.0,0.0,0.0,0.0,0.0,0.0,0.0,0.0,0.0,0.0,0.0,0.0,0.0,0.0,0.0,0.0,0.0,0.0,0.0,0.0,0.0,0.0,0.0,0.0,0.0,0.0,0.0,0.0,0.0,0.0,0.0,0.0,0.0,0.0,0.0,0.0,0.0,0.0,0.0,0.0,0.0,0.0,0.0,0.0,0.0,0.0,0.0,0.0,0.0,0.0,0.0,0.0,0.0,0.0,0.0,0.0,0.0,0.0,0.0,0.0,0.0,0.0,0.0,0.0,0.0,0.0,0.0,0.0,0.0,0.0,0.0,0.0,0.0,0.0,0.0,0.0,0.0,0.0,0.0,0.0,0.0,0.0,0.0,0.0,0.0,0.0,0.0,0.0,0.0,0.0,0.0,0.0,0.0,0.0,0.0,0.0,0.0,0.0,0.0,0.0,0.0,0.0,0.0,0.0,0.0,0.0,0.0,0.0,0.0,0.0,0.0,0.0,0.0,0.0,0.0,0.0,0.0,0.0,0.0,0.0,0.0,0.0,0.0,0.0,0.0,0.0,0.0,0.0,0.0,0.0,0.0,0.0,0.0,0.0,0.0,0.0,0.0,0.0,0.0,0.0,0.0,0.0,0.0,0.0,0.0,-2.9202,0.0,0.0,0.0,0.0,0.0,0.0,0.0,0.0,0.0,0.0,0.0,0.0,0.0,0.0,0.0,0.0,0.0,0.0,0.0,0.0,0.0,0.0,0.0,0.0,0.0,0.0,0.0,0.0,0.0,0.0,0.0,0.0,0.0,0.0,0.0,0.0,0.0,0.0,0.0,0.0,0.0,0.0,0.0,0.0,0.0,0.0,0.0,0.0,0.0,0.0,0.0,0.0,0.0,0.0,0.0,0.0,0.0,0.0,0.0,0.0,0.0,0.0,0.0,0.0,0.0,0.0,0.0,0.0,0.0,0.0,0.0,0.0,0.0,0.0,0.0,0.0,0.0,0.0,0.0,0.0,0.0,0.0,0.0,0.0,0.0,0.0,0.0,0.0,0.0,0.0,0.0,0.0,0.0,0.0,0.0,0.0,0.0,0.0,0.0,0.0,0.0,0.0,0.0,0.0,0.0,0.0,0.0,0.0,0.0,0.0,-3.2598,-3.1802,-3.1869,-3.1103,-2.9412,0.0,0.0,0.0,0.0,0.0,0.0,0.0,0.0,0.0,0.0,0.0,0.0,0.0,0.0,0.0,0.0,0.0,0.0,0.0,0.0,0.0,0.0,0.0,0.0,0.0,0.0,0.0,0.0,0.0,0.0,0.0,0.0,0.0,0.0,0.0,0.0,0.0,0.0,0.0,0.0,0.0,0.0,0.0,0.0,0.0,0.0,0.0,0.0,0.0,0.0,0.0,0.0,0.0,0.0,0.0,0.0,0.0,0.0,0.0,0.0,0.0,0.0,0.0,0.0,0.0,0.0,0.0,0.0,0.0,0.0,0.0,0.0,0.0,0.0,0.0,0.0,0.0,0.0,0.0,0.0,0.0,0.0,0.0,0.0,0.0,0.0,0.0,0.0,0.0,0.0,0.0,0.0,0.0,0.0,0.0,0.0,0.0,0.0,0.0,0.0,0.0,0.0,0.0,0.0,0.0,0.0,0.0,0.0,0.0,0.0,0.0,0.0,-3.2356,-3.1514,-2.9491,0.0,0.0,0.0,0.0,0.0,0.0,0.0,0.0,0.0,0.0,0.0,0.0,0.0,0.0,0.0,0.0,0.0,0.0,0.0,0.0,0.0,0.0,0.0,0.0,0.0,0.0,0.0,0.0,0.0,0.0,0.0,0.0,0.0,0.0,0.0,0.0,0.0,0.0,0.0,0.0,0.0,0.0,0.0,0.0,0.0,0.0,0.0,0.0,0.0,0.0,0.0,0.0,0.0,0.0,0.0,0.0,0.0,0.0,0.0,0.0,0.0,0.0,0.0,0.0,0.0,0.0,0.0,0.0,0.0,0.0,0.0,0.0,0.0,0.0,0.0,0.0,0.0,0.0,0.0,0.0,0.0,0.0,0.0,0.0,0.0,0.0,0.0,0.0,0.0,0.0,0.0,0.0,0.0,0.0,0.0,0.0,0.0,0.0,0.0,0.0,0.0,0.0,0.0,0.0,0.0,0.0,0.0,0.0,0.0,0.0,-3.3817,-3.3117,-3.3821,0.0,-2.9712,0.0,0.0,0.0,0.0,0.0,0.0,0.0,0.0,0.0,0.0,0.0,0.0,0.0,0.0,0.0,0.0,0.0,0.0,0.0,0.0,0.0,0.0,0.0,0.0,0.0,0.0,0.0,0.0,0.0,0.0,0.0,0.0,0.0,0.0,0.0,0.0,0.0,0.0,0.0,0.0,0.0,0.0,0.0,0.0,0.0,0.0,0.0,0.0,0.0,0.0,0.0,0.0,0.0,0.0,0.0,0.0,0.0,0.0,0.0,0.0,0.0,0.0,0.0,0.0,0.0,0.0,0.0,0.0,0.0,0.0,0.0,0.0,0.0,0.0,0.0,0.0,0.0,0.0,0.0,0.0,0.0,0.0,0.0,0.0,0.0,0.0,0.0,0.0,0.0,0.0,0.0,0.0,0.0,0.0,0.0,0.0,0.0,0.0,0.0,0.0,0.0,0.0,0.0,0.0,0.0,0.0,0.0,0.0,0.0,0.0,-3.2687,-3.2436,-3.284,-3.196,0.0,0.0,0.0,0.0,0.0,0.0,0.0,0.0,0.0,0.0,0.0,0.0,0.0,0.0,0.0,0.0,0.0,0.0,0.0,0.0,0.0,0.0,0.0,0.0,0.0,0.0,0.0,0.0,0.0,0.0,0.0,0.0,0.0,0.0,0.0,0.0,0.0,0.0,0.0,0.0,0.0,0.0,0.0,0.0,0.0,0.0,0.0,0.0,0.0,0.0,0.0,0.0,0.0,0.0,0.0,0.0,0.0,0.0,0.0,0.0,0.0,0.0,0.0,0.0,0.0,0.0,0.0,0.0,0.0,0.0,0.0,0.0,0.0,0.0,0.0,0.0,0.0,0.0,0.0,0.0,0.0,0.0,0.0,0.0,0.0,0.0,0.0,0.0,0.0,0.0,0.0,0.0,0.0,0.0,0.0,0.0,0.0,0.0,0.0,0.0,0.0,0.0,0.0,0.0,0.0,0.0,0.0,0.0,0.0,0.0,-3.1569,-3.2335,-3.2606,-3.2294,-3.128,-2.9554,0.0,0.0,0.0,0.0,0.0,0.0,0.0,0.0,0.0,0.0,0.0,0.0,0.0,0.0,0.0,0.0,0.0,0.0,0.0,0.0,0.0,0.0,0.0,0.0,0.0,0.0,0.0,0.0,0.0,0.0,0.0,0.0,0.0,0.0,0.0,0.0,0.0,0.0,0.0,0.0,0.0,0.0,0.0,0.0,0.0,0.0,0.0,0.0,0.0,0.0,0.0,0.0,0.0,0.0,0.0,0.0,0.0,0.0,0.0,0.0,0.0,0.0,0.0,0.0,0.0,0.0,0.0,0.0,0.0,0.0,0.0,0.0,0.0,0.0,0.0,0.0,0.0,0.0,0.0,0.0,0.0,0.0,0.0,0.0,0.0,0.0,0.0,0.0,0.0,0.0,0.0,0.0,0.0,0.0,0.0,0.0,0.0,0.0,0.0,0.0,0.0,0.0,0.0,0.0,0.0,0.0,0.0,0.0,-3.053,-3.221,-3.3557,-3.436,-3.2922,-3.1278,0.0,0.0,0.0,0.0,0.0,0.0,0.0,0.0,0.0,0.0,0.0,0.0,0.0,0.0,0.0,0.0,0.0,0.0,0.0,0.0,0.0,0.0,0.0,0.0,0.0,0.0,0.0,0.0,0.0,0.0,0.0,0.0,0.0,0.0,0.0,0.0,0.0,0.0,0.0,0.0,0.0,0.0,0.0,0.0,0.0,0.0,0.0,0.0,0.0,0.0,0.0,0.0,0.0,0.0,0.0,0.0,0.0,0.0,0.0,0.0,0.0,0.0,0.0,0.0,0.0,0.0,0.0,0.0,0.0,0.0,0.0,0.0,0.0,0.0,0.0,0.0,0.0,0.0,0.0,0.0,0.0,0.0,0.0,0.0,0.0,0.0,0.0,0.0,0.0,0.0,0.0,0.0,0.0,0.0,0.0,0.0,0.0,0.0,0.0,0.0,0.0,0.0,0.0,0.0,0.0,0.0,0.0,0.0,0.0,-3.0612,-3.179,-3.2859,-3.367,-3.2155,-3.0706,0.0,0.0,0.0,0.0,0.0,0.0,0.0,0.0,0.0,0.0,0.0,0.0,0.0,0.0,0.0,0.0,0.0,0.0,0.0,0.0,0.0,0.0,0.0,0.0,0.0,0.0,0.0,0.0,0.0,0.0,0.0,0.0,0.0,0.0,0.0,0.0,0.0,0.0,0.0,0.0,0.0,0.0,0.0,0.0,0.0,0.0,0.0,0.0,0.0,0.0,0.0,0.0,0.0,0.0,0.0,0.0,0.0,0.0,0.0,0.0,0.0,0.0,0.0,0.0,0.0,0.0,0.0,0.0,0.0,0.0,0.0,0.0,0.0,0.0,0.0,0.0,0.0,0.0,0.0,0.0,0.0,0.0,0.0,0.0,0.0,0.0,0.0,0.0,0.0,0.0,0.0,0.0,0.0,0.0,0.0,0.0,0.0,0.0,0.0,0.0,0.0,0.0,0.0,0.0,0.0,0.0,0.0,0.0,0.0,-3.1053,0.0,-3.1997,-3.2785,-3.1246,-2.9971,0.0,0.0,0.0,0.0,0.0,0.0,0.0,0.0,0.0,0.0,0.0,0.0,0.0,0.0,0.0,0.0,0.0,0.0,0.0,0.0,0.0,0.0,0.0,0.0,0.0,0.0,0.0,0.0,0.0,0.0,0.0,0.0,0.0,0.0,0.0,0.0,0.0,0.0,0.0,0.0,0.0,0.0,0.0,0.0,0.0,0.0,0.0,0.0,0.0,0.0,0.0,0.0,0.0,0.0,0.0,0.0,0.0,0.0,0.0,0.0,0.0,0.0,0.0,0.0,0.0,0.0,0.0,0.0,0.0,0.0,0.0,0.0,0.0,0.0,0.0,0.0,0.0,0.0,0.0,0.0,0.0,0.0,0.0,0.0,0.0,0.0,0.0,0.0,0.0,0.0,0.0,0.0,0.0,0.0,0.0,0.0,0.0,0.0,0.0,0.0,0.0,0.0,0.0,0.0,0.0,0.0,0.0,0.0,-3.103,-3.1887,-3.1141,-3.1147,-3.1906,-3.0369,-2.9074,0.0,0.0,0.0,0.0,0.0,0.0,0.0,0.0,0.0,0.0,0.0,0.0,0.0,0.0,0.0,0.0,0.0,0.0,0.0,0.0,0.0,0.0,0.0,0.0,0.0,0.0,0.0,0.0,0.0,0.0,0.0,0.0,0.0,0.0,0.0,0.0,0.0,0.0,0.0,0.0,0.0,0.0,0.0,0.0,0.0,0.0,0.0,0.0,0.0,0.0,0.0,0.0,0.0,0.0,0.0,0.0,0.0,0.0,0.0,0.0,0.0,0.0,0.0,0.0,0.0,0.0,0.0,0.0,0.0,0.0,0.0,0.0,0.0,0.0,0.0,0.0,0.0,0.0,0.0,0.0,0.0,0.0,0.0,0.0,0.0,0.0,0.0,0.0,0.0,0.0,0.0,0.0,0.0,0.0,0.0,0.0,0.0,0.0,0.0,0.0,0.0,0.0,0.0,0.0,0.0,0.0,0.0,0.0,0.0,-3.1072,-3.0837,-3.084,-3.104,-2.9431,-2.8393,0.0,0.0,0.0,0.0,0.0,0.0,0.0,0.0,0.0,0.0,0.0,0.0,0.0,0.0,0.0,0.0,0.0,0.0,0.0,0.0,0.0,0.0,0.0,0.0,0.0,0.0,0.0,0.0,0.0,0.0,0.0,0.0,0.0,0.0,0.0,0.0,0.0,0.0,0.0,0.0,0.0,0.0,0.0,0.0,0.0,0.0,0.0,0.0,0.0,0.0,0.0,0.0,0.0,0.0,0.0,0.0,0.0,0.0,0.0,0.0,0.0,0.0,0.0,0.0,0.0,0.0,0.0,0.0,0.0,0.0,0.0,0.0,0.0,0.0,0.0,0.0,0.0,0.0,0.0,0.0,0.0,0.0,0.0,0.0,0.0,0.0,0.0,0.0,0.0,0.0,0.0,0.0,0.0,0.0,0.0,0.0,0.0,0.0,0.0,0.0,0.0,0.0,0.0,0.0,0.0,0.0,0.0,0.0,0.0,-3.111,-3.1127,-3.1154,-3.1154,-2.9779,-2.8728,-2.8074,0.0,0.0,0.0,0.0,0.0,0.0,0.0,0.0,0.0,0.0,0.0,0.0,0.0,0.0,0.0,0.0,0.0,0.0,0.0,0.0,0.0,0.0,0.0,0.0,0.0,0.0,0.0,0.0,0.0,0.0,0.0,0.0,0.0,0.0,0.0,0.0,0.0,0.0,0.0,0.0,0.0,0.0,0.0,0.0,0.0,0.0,0.0,0.0,0.0,0.0,0.0,0.0,0.0,0.0,0.0,0.0,0.0,0.0,0.0,0.0,0.0,0.0,0.0,0.0,0.0,0.0,0.0,0.0,0.0,0.0,0.0,0.0,0.0,0.0,0.0,0.0,0.0,0.0,0.0,0.0,0.0,0.0,0.0,0.0,0.0,0.0,0.0,0.0,0.0,0.0,0.0,0.0,0.0,0.0,0.0,0.0,0.0,0.0,0.0,0.0,0.0,0.0,0.0,0.0,0.0,0.0,0.0,0.0,-3.1947,-3.2051,-3.2077,-3.1943,-3.1071,-2.9838,0.0,0.0,0.0,0.0,0.0,0.0,0.0,0.0,0.0,0.0,0.0,0.0,0.0,0.0,0.0,0.0,0.0,0.0,0.0,0.0,0.0,0.0,0.0,0.0,0.0,0.0,0.0,0.0,0.0,0.0,0.0,0.0,0.0,0.0,0.0,0.0,0.0,0.0,0.0,0.0,0.0,0.0,0.0,0.0,0.0,0.0,0.0,0.0,0.0,0.0,0.0,0.0,0.0,0.0,0.0,0.0,0.0,0.0,0.0,0.0,0.0,0.0,0.0,0.0,0.0,0.0,0.0,0.0,0.0,0.0,0.0,0.0,0.0,0.0,0.0,0.0,0.0,0.0,0.0,0.0,0.0,0.0,0.0,0.0,0.0,0.0,0.0,0.0,0.0,0.0,0.0,0.0,0.0,0.0,0.0,0.0,0.0,0.0,0.0,0.0,0.0,0.0,0.0,0.0,0.0,0.0,0.0,0.0,0.0,-3.3603,-3.4281,-3.404,-3.2817,-3.1365,-3.0096,0.0,0.0,0.0,0.0,0.0,0.0,0.0,0.0,0.0,0.0,0.0,0.0,0.0,0.0,0.0,0.0,0.0,0.0,0.0,0.0,0.0,0.0,0.0,0.0,0.0,0.0,0.0,0.0,0.0,0.0,0.0,0.0,0.0,0.0,0.0,0.0,0.0,0.0,0.0,0.0,0.0,0.0,0.0,0.0,0.0,0.0,0.0,0.0,0.0,0.0,0.0,0.0,0.0,0.0,0.0,0.0,0.0,0.0,0.0,0.0,0.0,0.0,0.0,0.0,0.0,0.0,0.0,0.0,0.0,0.0,0.0,0.0,0.0,0.0,0.0,0.0,0.0,0.0,0.0,0.0,0.0,0.0,0.0,0.0,0.0,0.0,0.0,0.0,0.0,0.0,0.0,0.0,0.0,0.0,0.0,0.0,0.0,0.0,0.0,0.0,0.0,0.0,0.0,0.0,0.0,0.0,0.0,0.0,-3.3086,-3.4769,-3.5637,-3.5623,-3.4729,-3.3078,-3.1274,0.0,0.0,0.0,0.0,0.0,0.0,0.0,0.0,0.0,0.0,0.0,0.0,0.0,0.0,0.0,0.0,0.0,0.0,0.0,0.0,0.0,0.0,0.0,0.0,0.0,0.0,0.0,0.0,0.0,0.0,0.0,0.0,0.0,0.0,0.0,0.0,0.0,0.0,0.0,0.0,0.0,0.0,0.0,0.0,0.0,0.0,0.0,0.0,0.0,0.0,0.0,0.0,0.0,0.0,0.0,0.0,0.0,0.0,0.0,0.0,0.0,0.0,0.0,0.0,0.0,0.0,0.0,0.0,0.0,0.0,0.0,0.0,0.0,0.0,0.0,0.0,0.0,0.0,0.0,0.0,0.0,0.0,0.0,0.0,0.0,0.0,0.0,0.0,0.0,0.0,0.0,0.0,0.0,0.0,0.0,0.0,0.0,0.0,0.0,0.0,0.0,0.0,0.0,0.0,0.0,0.0,0.0,0.0,-3.3737,-3.5435,-3.6281,-3.6741,-3.6844,-3.5276,-3.2841,0.0,0.0,0.0,0.0,0.0,0.0,0.0,0.0,0.0,0.0,0.0,0.0,0.0,0.0,0.0,0.0,0.0,0.0,0.0,0.0,0.0,0.0,0.0,0.0,0.0,0.0,0.0,0.0,0.0,0.0,0.0,0.0,0.0,0.0,0.0,0.0,0.0,0.0,0.0,0.0,0.0,0.0,0.0,0.0,0.0,0.0,0.0,0.0,0.0,0.0,0.0,0.0,0.0,0.0,0.0,0.0,0.0,0.0,0.0,0.0,0.0,0.0,0.0,0.0,0.0,0.0,0.0,0.0,0.0,0.0,0.0,0.0,0.0,0.0,0.0,0.0,0.0,0.0,0.0,0.0,0.0,0.0,0.0,0.0,0.0,0.0,0.0,0.0,0.0,0.0,0.0,0.0,0.0,0.0,0.0,0.0,0.0,0.0,0.0,0.0,0.0,0.0,0.0,0.0,0.0,0.0,0.0,0.0,-3.3583,-3.5307,-3.6178,-3.6678,-3.68,-3.521,-3.3062,0.0,0.0,0.0,0.0,0.0,0.0,0.0,0.0,0.0,0.0,0.0,0.0,0.0,0.0,0.0,0.0,0.0,0.0,0.0,0.0,0.0,0.0,0.0,0.0,0.0,0.0,0.0,0.0,0.0,0.0,0.0,0.0,0.0,0.0,0.0,0.0,0.0,0.0,0.0,0.0,0.0,0.0,0.0,0.0,0.0,0.0,0.0,0.0,-2.0227,0.0,0.0,0.0,0.0,0.0,0.0,0.0,0.0,0.0,0.0,0.0,0.0,0.0,0.0,0.0,0.0,0.0,0.0,0.0,0.0,0.0,0.0,0.0,0.0,0.0,0.0,0.0,0.0,0.0,0.0,0.0,0.0,0.0,0.0,0.0,0.0,0.0,0.0,0.0,0.0,0.0,0.0,0.0,0.0,0.0,0.0,0.0,0.0,0.0,0.0,0.0,0.0,0.0,0.0,0.0,0.0,0.0,0.0,0.0,-3.3689,-3.5755,-3.628,-3.6584,-3.664,-3.5091,-3.3047,0.0,0.0,0.0,0.0,0.0,0.0,0.0,0.0,0.0,0.0,0.0,0.0,0.0,0.0,0.0,0.0,0.0,0.0,0.0,0.0,0.0,0.0,0.0,0.0,0.0,0.0,0.0,0.0,0.0,0.0,0.0,0.0,0.0,0.0,0.0,0.0,0.0,0.0,0.0,0.0,0.0,0.0,0.0,0.0,0.0,0.0,0.0,0.0,0.0,0.0,0.0,0.0,0.0,0.0,0.0,0.0,0.0,0.0,0.0,0.0,0.0,0.0,0.0,0.0,0.0,0.0,0.0,0.0,0.0,0.0,0.0,0.0,0.0,0.0,0.0,0.0,0.0,0.0,0.0,0.0,0.0,0.0,0.0,0.0,0.0,0.0,0.0,0.0,0.0,0.0,0.0,0.0,0.0,0.0,0.0,0.0,0.0,0.0,0.0,0.0,0.0,0.0,0.0,0.0,0.0,0.0,0.0,-3.1703,-3.3688,-3.5897,-3.6106,-3.6186,-3.6147,-3.4683,-3.275,-3.035,0.0,0.0,0.0,0.0,0.0,0.0,0.0,0.0,0.0,0.0,0.0,0.0,0.0,0.0,0.0,0.0,0.0,0.0,0.0,0.0,0.0,0.0,0.0,0.0,0.0,0.0,0.0,0.0,0.0,0.0,0.0,0.0,0.0,0.0,0.0,0.0,0.0,0.0,-1.825,-2.0515,0.0,0.0,0.0,0.0,0.0,0.0,0.0,0.0,-2.0499,0.0,0.0,0.0,0.0,0.0,0.0,0.0,0.0,0.0,0.0,0.0,0.0,0.0,0.0,0.0,0.0,0.0,0.0,0.0,0.0,0.0,0.0,0.0,0.0,0.0,0.0,0.0,0.0,0.0,0.0,0.0,0.0,0.0,0.0,0.0,0.0,0.0,0.0,0.0,0.0,0.0,0.0,0.0,0.0,0.0,0.0,0.0,0.0,0.0,0.0,0.0,0.0,0.0,0.0,0.0,0.0,-2.9008,-3.1328,-3.3071,-3.4192,-3.4877,-3.4949,-3.4356,-3.3433,-3.1804,-2.9425,0.0,0.0,0.0,0.0,0.0,0.0,0.0,0.0,0.0,0.0,0.0,0.0,0.0,0.0,0.0,0.0,0.0,0.0,0.0,0.0,0.0,0.0,0.0,0.0,0.0,0.0,0.0,0.0,0.0,0.0,0.0,0.0,0.0,0.0,0.0,0.0,0.0,0.0,0.0,-2.2166,-2.3134,0.0,0.0,0.0,0.0,0.0,0.0,0.0,0.0,-2.0512,0.0,0.0,0.0,0.0,0.0,0.0,0.0,0.0,0.0,0.0,0.0,0.0,0.0,0.0,0.0,0.0,0.0,0.0,0.0,0.0,0.0,0.0,0.0,0.0,0.0,0.0,0.0,0.0,0.0,0.0,0.0,0.0,0.0,0.0,0.0,0.0,0.0,0.0,0.0,0.0,0.0,0.0,0.0,0.0,0.0,0.0,0.0,0.0,0.0,0.0,0.0,0.0,0.0,0.0,0.0,-2.8836,-3.1214,-3.2878,-3.3731,-3.4538,-3.4585,-3.3812,-3.3018,-3.1463,0.0,0.0,0.0,0.0,0.0,0.0,0.0,0.0,0.0,0.0,0.0,0.0,0.0,0.0,0.0,0.0,0.0,0.0,0.0,0.0,0.0,0.0,0.0,0.0,0.0,0.0,0.0,0.0,0.0,0.0,0.0,0.0,0.0,0.0,0.0,0.0,0.0,0.0,0.0,0.0,-2.2493,-2.3328,-2.4139,0.0,0.0,0.0,0.0,0.0,0.0,-2.1142,-2.1023,0.0,0.0,0.0,0.0,0.0,0.0,0.0,0.0,0.0,0.0,0.0,0.0,0.0,0.0,0.0,0.0,0.0,0.0,0.0,0.0,0.0,0.0,0.0,0.0,0.0,0.0,0.0,0.0,0.0,0.0,0.0,0.0,0.0,0.0,0.0,0.0,0.0,0.0,0.0,0.0,0.0,0.0,0.0,0.0,0.0,0.0,0.0,0.0,0.0,0.0,0.0,0.0,0.0,0.0,0.0,-2.8544,-3.0926,-3.2473,-3.3174,-3.397,-3.3999,-3.3175,-3.2386,-3.0923,0.0,0.0,0.0,0.0,0.0,0.0,0.0,0.0,0.0,0.0,0.0,0.0,0.0,0.0,0.0,0.0,0.0,0.0,0.0,0.0,0.0,0.0,0.0,0.0,0.0,0.0,0.0,0.0,0.0,0.0,0.0,0.0,0.0,0.0,0.0,0.0,0.0,0.0,0.0,0.0,0.0,-2.3343,-2.4329,-2.4326,0.0,0.0,0.0,0.0,-2.2063,-2.1878,0.0,0.0,0.0,0.0,0.0,0.0,0.0,0.0,0.0,0.0,0.0,0.0,0.0,0.0,0.0,0.0,0.0,0.0,0.0,0.0,0.0,0.0,0.0,0.0,0.0,0.0,0.0,0.0,0.0,0.0,0.0,0.0,0.0,0.0,0.0,0.0,0.0,0.0,0.0,0.0,0.0,0.0,0.0,0.0,0.0,0.0,0.0,0.0,0.0,0.0,0.0,0.0,0.0,0.0,0.0,0.0,-2.7671,-3.0092,-3.1366,-3.1426,-3.2239,-3.2278,-3.142,-3.0621,-2.9406,0.0,0.0,0.0,0.0,0.0,0.0,0.0,0.0,0.0,0.0,0.0,0.0,0.0,0.0,0.0,0.0,0.0,0.0,0.0,0.0,0.0,0.0,0.0,0.0,0.0,0.0,0.0,0.0,0.0,0.0,0.0,0.0,0.0,0.0,0.0,0.0,0.0,0.0,0.0,0.0,0.0,-2.3576,-2.5127,-2.4675,-2.4151,0.0,0.0,-2.2972,-2.2854,-2.2233,0.0,0.0,0.0,0.0,0.0,0.0,0.0,0.0,0.0,0.0,0.0,0.0,0.0,0.0,0.0,0.0,0.0,0.0,0.0,0.0,0.0,0.0,0.0,0.0,0.0,0.0,0.0,0.0,0.0,0.0,0.0,0.0,0.0,0.0,0.0,0.0,0.0,0.0,0.0,0.0,0.0,0.0,0.0,0.0,0.0,0.0,0.0,0.0,0.0,0.0,0.0,0.0,0.0,0.0,0.0,-2.582,-2.7509,-2.9888,-3.1132,-3.1114,-3.1826,-3.1836,-3.0998,-3.0216,-2.9041,0.0,0.0,0.0,0.0,0.0,0.0,0.0,0.0,0.0,0.0,0.0,0.0,0.0,0.0,0.0,0.0,0.0,0.0,0.0,0.0,0.0,0.0,0.0,0.0,0.0,0.0,0.0,0.0,0.0,0.0,0.0,0.0,0.0,0.0,0.0,0.0,0.0,0.0,0.0,0.0,0.0,0.0,-2.5247,-2.5166,0.0,0.0,0.0,-2.4251,-2.3757,0.0,0.0,0.0,0.0,0.0,0.0,0.0,0.0,0.0,0.0,0.0,0.0,0.0,0.0,0.0,0.0,0.0,0.0,0.0,0.0,0.0,0.0,0.0,0.0,0.0,0.0,0.0,0.0,0.0,0.0,0.0,0.0,0.0,0.0,0.0,0.0,0.0,0.0,0.0,0.0,0.0,0.0,0.0,0.0,0.0,0.0,0.0,0.0,0.0,0.0,0.0,0.0,0.0,0.0,0.0,0.0,0.0,-2.7494,-2.9455,-3.0557,-3.0758,-3.1243,-3.11,-3.0264,-2.9458,0.0,0.0,0.0,0.0,0.0,0.0,0.0,0.0,0.0,0.0,0.0,0.0,0.0,0.0,0.0,0.0,0.0,0.0,0.0,0.0,0.0,0.0,0.0,0.0,0.0,0.0,0.0,-1.4489,0.0,0.0,0.0,0.0,0.0,0.0,0.0,0.0,0.0,0.0,0.0,0.0,0.0,0.0,-2.3519,-2.526,-2.5507,-2.5507,0.0,0.0,-2.5259,-2.462,-2.3654,-2.2759,0.0,0.0,0.0,0.0,0.0,0.0,0.0,0.0,0.0,0.0,0.0,0.0,0.0,0.0,0.0,0.0,0.0,0.0,0.0,0.0,0.0,0.0,0.0,0.0,0.0,0.0,0.0,0.0,0.0,0.0,0.0,0.0,0.0,0.0,0.0,0.0,0.0,0.0,0.0,0.0,0.0,0.0,0.0,0.0,0.0,0.0,0.0,0.0,0.0,0.0,0.0,0.0,0.0,0.0,0.0,-2.7437,-2.8358,-2.9116,-2.9764,-2.9832,-2.9401,-2.8512,-2.7708,-2.657,0.0,0.0,0.0,0.0,0.0,0.0,0.0,0.0,0.0,0.0,0.0,0.0,0.0,0.0,0.0,0.0,0.0,0.0,0.0,0.0,0.0,0.0,0.0,0.0,0.0,0.0,0.0,0.0,0.0,0.0,0.0,0.0,0.0,0.0,0.0,0.0,0.0,0.0,0.0,0.0,0.0,-2.3538,-2.5256,-2.5507,-2.5507,0.0,0.0,-2.5472,-2.5414,-2.3978,-2.2892,-2.2834,0.0,0.0,0.0,0.0,0.0,0.0,0.0,0.0,0.0,0.0,0.0,0.0,0.0,0.0,0.0,0.0,0.0,0.0,0.0,0.0,0.0,0.0,0.0,0.0,0.0,0.0,0.0,0.0,0.0,0.0,0.0,0.0,0.0,0.0,0.0,0.0,0.0,0.0,0.0,0.0,0.0,0.0,0.0,0.0,0.0,0.0,0.0,0.0,0.0,0.0,0.0,0.0,0.0,-2.4666,-2.6627,-2.7867,-2.8609,-2.8893,-2.9298,-2.9109,-2.8259,-2.7466,-2.6307,0.0,0.0,0.0,0.0,0.0,0.0,0.0,0.0,0.0,0.0,0.0,0.0,0.0,0.0,0.0,0.0,0.0,0.0,0.0,0.0,0.0,0.0,0.0,0.0,0.0,0.0,0.0,0.0,-1.6931,-1.6459,-1.6143,0.0,0.0,0.0,0.0,0.0,0.0,0.0,0.0,0.0,0.0,-2.3538,-2.526,-2.5507,0.0,0.0,-2.5507,-2.5507,-2.5507,-2.449,-2.3514,-2.2991,-2.1985,0.0,0.0,0.0,0.0,0.0,0.0,0.0,0.0,0.0,0.0,0.0,0.0,0.0,0.0,0.0,0.0,0.0,0.0,0.0,0.0,0.0,0.0,0.0,0.0,0.0,0.0,0.0,0.0,0.0,0.0,0.0,0.0,0.0,0.0,0.0,0.0,0.0,0.0,0.0,0.0,0.0,0.0,0.0,0.0,0.0,0.0,0.0,0.0,0.0,0.0,0.0,0.0,-2.4235,-2.6084,-2.7161,-2.7806,-2.8005,-2.8465,-2.8285,-2.7475,-2.6916,-2.5752,0.0,0.0,0.0,0.0,0.0,0.0,0.0,0.0,0.0,0.0,0.0,0.0,0.0,0.0,0.0,0.0,0.0,0.0,0.0,0.0,0.0,0.0,0.0,0.0,0.0,0.0,0.0,0.0,-1.7251,-1.6607,-1.66,0.0,0.0,0.0,0.0,0.0,0.0,0.0,0.0,0.0,0.0,-2.3542,-2.526,-2.5507,-2.5507,-2.5507,-2.5507,-2.5507,-2.5507,-2.4757,-2.4002,-2.3383,0.0,0.0,0.0,0.0,0.0,0.0,0.0,0.0,0.0,0.0,0.0,0.0,0.0,0.0,0.0,0.0,0.0,0.0,0.0,0.0,0.0,0.0,0.0,0.0,0.0,0.0,0.0,0.0,0.0,0.0,-2.0047,0.0,0.0,0.0,0.0,0.0,0.0,0.0,0.0,0.0,0.0,0.0,0.0,0.0,0.0,0.0,0.0,0.0,0.0,0.0,0.0,0.0,0.0,-2.3654,-2.6035,-2.6089,-2.6428,-2.7091,-2.7084,-2.6674,-2.5838,-2.5745,-2.462,-2.2271,0.0,0.0,0.0,0.0,0.0,0.0,0.0,0.0,0.0,0.0,0.0,0.0,0.0,0.0,0.0,0.0,0.0,0.0,0.0,0.0,0.0,0.0,0.0,0.0,0.0,0.0,-1.9051,-1.7603,-1.6638,0.0,0.0,0.0,0.0,0.0,0.0,0.0,0.0,0.0,0.0,-2.2884,-2.3542,-2.526,-2.5507,-2.5507,-2.5526,-2.5526,-2.5507,-2.553,-2.4792,-2.4196,0.0,0.0,0.0,0.0,0.0,0.0,0.0,0.0,0.0,0.0,0.0,0.0,0.0,0.0,0.0,0.0,0.0,0.0,0.0,0.0,0.0,0.0,0.0,0.0,0.0,0.0,0.0,-2.4121,-2.3412,0.0,0.0,0.0,0.0,0.0,0.0,0.0,0.0,0.0,0.0,0.0,-2.5134,-2.5171,0.0,0.0,0.0,0.0,0.0,0.0,0.0,0.0,0.0,0.0,0.0,0.0,-2.3797,-2.5122,-2.5624,-2.5988,-2.6253,-2.6702,-2.6535,-2.5726,-2.5708,-2.4562,-2.2171,0.0,0.0,0.0,0.0,0.0,0.0,0.0,0.0,0.0,0.0,0.0,0.0,0.0,0.0,0.0,0.0,0.0,0.0,0.0,0.0,0.0,0.0,0.0,0.0,0.0,-1.9725,0.0,0.0,0.0,0.0,0.0,0.0,0.0,0.0,0.0,0.0,0.0,-2.1665,-2.2765,-2.3383,-2.4196,-2.5333,-2.5507,-2.5681,0.0,0.0,0.0,0.0,0.0,0.0,0.0,0.0,0.0,0.0,0.0,0.0,0.0,0.0,-2.1157,-2.171,-2.1126,-2.0521,-2.0521,0.0,0.0,0.0,0.0,0.0,0.0,0.0,0.0,0.0,0.0,0.0,0.0,0.0,0.0,-2.6488,0.0,-2.5241,0.0,0.0,0.0,0.0,0.0,0.0,0.0,0.0,-2.5708,-2.6184,-2.6578,-2.6597,-2.6311,0.0,-2.5227,-2.4542,0.0,0.0,0.0,0.0,0.0,0.0,0.0,0.0,-2.4016,-2.5054,-2.5549,-2.5937,-2.6172,-2.6368,-2.6247,-2.5726,-2.5141,-2.4099,-2.252,-2.1458,-2.0416,0.0,0.0,0.0,0.0,0.0,0.0,0.0,0.0,0.0,0.0,0.0,0.0,0.0,0.0,0.0,0.0,0.0,0.0,0.0,0.0,0.0,0.0,0.0,-2.0138,0.0,0.0,0.0,0.0,0.0,0.0,0.0,0.0,0.0,-2.085,-2.1356,-2.2207,-2.3616,-2.4022,-2.4621,-2.5758,0.0,0.0,0.0,0.0,0.0,0.0,0.0,-2.5318,-2.4757,-2.4641,-2.411,-2.2436,-2.1481,-2.1225,-2.2094,0.0,0.0,-2.2672,-2.2206,-2.1701,-2.1407,-2.0882,-2.0588,-2.0875,-2.1402,-2.189,0.0,0.0,0.0,0.0,0.0,0.0,0.0,0.0,-2.8898,-2.8809,0.0,-2.8028,0.0,0.0,0.0,0.0,0.0,-2.5801,0.0,0.0,-2.6793,-2.668,-2.6592,-2.6599,-2.6526,-2.6526,-2.6498,-2.6494,-2.6341,-2.3583,0.0,0.0,0.0,0.0,0.0,0.0,-2.4249,-2.5729,-2.5825,-2.619,-2.6832,-2.6145,-2.5717,-2.5662,-2.4121,-2.3258,-2.3128,-2.1783,-2.0968,-2.0882,-1.9481,0.0,0.0,0.0,0.0,0.0,0.0,0.0,0.0,0.0,0.0,0.0,0.0,0.0,0.0,0.0,0.0,0.0,0.0,0.0,0.0,-2.0294,0.0,0.0,0.0,0.0,0.0,0.0,0.0,0.0,0.0,0.0,-2.1855,-2.1881,-2.271,-2.5143,0.0,0.0,0.0,0.0,-2.5569,-2.5608,-2.555,-2.5507,-2.5569,-2.553,-2.5507,-2.5488,0.0,0.0,-2.3266,-2.2286,-2.1993,-2.2881,-2.362,-2.379,-2.2116,-2.196,-2.1687,-2.087,-2.0677,-2.083,-2.1531,-2.1766,-2.2137,-3.1995,0.0,0.0,0.0,0.0,-3.0312,-3.0404,-3.0423,-3.0662,-3.0679,-3.0475,-2.9839,0.0,0.0,0.0,0.0,0.0,0.0,-2.8347,-2.904,-2.9575,-2.975,-2.966,-2.9098,-2.8808,-2.8771,-2.7677,-2.7156,-2.7136,-2.5818,-2.4651,-2.3682,0.0,0.0,0.0,0.0,-2.5243,-2.5653,-2.6219,-2.6626,-2.6821,-2.655,-2.6161,-2.5634,-2.4678,-2.3851,-2.3221,-2.2813,-2.2062,-2.0888,-2.0487,0.0,0.0,0.0,0.0,0.0,0.0,0.0,0.0,0.0,0.0,0.0,0.0,0.0,0.0,0.0,0.0,0.0,0.0,0.0,-2.0119,-2.0292,-2.0296,0.0,0.0,0.0,0.0,0.0,0.0,0.0,0.0,0.0,-2.4083,-2.4386,-2.4679,0.0,0.0,-2.7082,-2.7561,-2.6899,-2.6571,-2.7194,-2.6285,0.0,0.0,-2.5894,-2.5507,-2.5507,-2.4478,-2.3485,-2.3076,-2.1829,-2.1145,-2.2043,-2.2388,-2.236,-2.2017,-2.2835,-2.3265,-2.2543,-2.1862,-2.1297,-2.0985,-2.1823,-2.2796,-3.5422,-3.3728,-3.2742,-3.2344,-3.2324,-3.2635,-3.2768,-3.2778,-3.3071,-3.2883,-3.23,-3.1772,-3.0943,-2.991,-2.9392,0.0,0.0,0.0,-3.0031,-3.0446,-3.0893,-3.107,-3.098,-3.0491,-3.0273,-3.0219,-2.8974,-2.8371,-2.8408,-2.7319,-2.6381,-2.557,0.0,0.0,-2.4552,-2.5503,-2.6177,-2.646,-2.697,-2.7379,-2.7711,-2.7044,-2.6334,-2.5578,-2.4819,-2.4153,-2.3608,-2.3021,-2.2274,-2.1283,-2.0723,-1.9645,0.0,0.0,0.0,0.0,0.0,0.0,0.0,0.0,0.0,0.0,0.0,-1.5216,-1.5546,0.0,0.0,0.0,-1.8463,-1.897,-1.9684,-2.0053,0.0,0.0,0.0,0.0,0.0,0.0,0.0,-2.1929,-2.2342,-2.312,-2.4648,-2.5479,-2.618,-2.6874,-2.7531,-2.8096,-2.8476,0.0,-2.6891,-2.7402,-2.6381,-2.5685,-2.6145,-2.5816,-2.5507,-2.5507,-2.4358,-2.3466,-2.3408,-2.2366,-2.1833,-2.2559,-2.281,-2.2939,-2.3258,-2.4197,-2.4239,-2.2466,-2.1667,-2.1297,-2.1434,-2.2367,-2.3285,-3.8469,-3.7584,-3.5257,-3.4138,-3.3963,-3.4676,-3.4958,-3.4958,-3.5654,-3.5159,-3.3806,-3.3715,-3.2789,-3.1281,-3.1209,0.0,-3.1281,-3.1295,-3.1278,-3.1266,-3.1284,-3.1238,-3.1179,-3.1143,-3.1107,-3.1089,-3.0273,-2.9857,-2.9712,-2.8323,-2.7574,-2.758,-2.6972,-2.6592,-2.6493,-2.6559,-2.6991,-2.7772,-2.7901,-2.8312,-2.892,-2.7474,-2.6296,-2.5493,-2.4709,-2.4266,-2.4155,-2.2855,-2.2023,-2.1859,-2.0533,-1.9386,-1.8546,0.0,0.0,0.0,0.0,0.0,0.0,0.0,0.0,0.0,0.0,0.0,0.0,0.0,0.0,0.0,-1.9629,0.0,-1.906,-1.9777,0.0,0.0,0.0,-2.0675,-2.1416,-2.1488,-2.1841,-2.269,0.0,0.0,-2.4188,-2.5591,-2.7199,-2.8858,-2.84,-2.8217,-2.9057,-2.7734,-2.6696,-2.6756,-2.601,-2.5488,-2.5584,-2.553,-2.5507,-2.5488,-2.4776,-2.4191,-2.4087,-2.3485,-2.3356,-2.3874,-2.4209,-2.4419,-2.5234,-2.5243,-2.4512,-2.1434,-2.0908,-2.1375,-2.2661,-2.3148,-2.3712,-4.0416,-4.0123,-3.8886,-3.7281,-3.5568,-3.5677,-3.5739,-3.5727,-3.5927,-3.5781,-3.5395,-3.4735,-3.3513,-3.1928,-3.1311,-3.1384,-3.1964,-3.1964,-3.2295,-3.2842,-3.2861,-3.2846,-3.2795,-3.2216,-3.1908,-3.1854,-3.1093,-3.04,-2.9802,-2.9422,-2.8933,-2.8353,-2.8191,-2.7543,-2.6487,-2.7027,-2.7429,-2.7641,-2.8273,-2.8376,-2.7931,-2.7086,-2.6211,-2.5354,-2.4631,-2.4181,-2.4133,-2.3814,-2.3079,-2.1812,-2.1496,-2.0455,-1.8535,-1.8302,0.0,0.0,0.0,0.0,0.0,0.0,0.0,0.0,0.0,-1.6271,-1.7139,0.0,-1.7642,0.0,-1.9545,-1.9974,-1.9774,-2.0527,0.0,0.0,-2.1616,-2.2113,-2.2301,-2.231,-2.2634,-2.3438,-2.3725,-2.4358,-2.5673,-2.6201,-2.6845,-2.7884,-2.7962,-2.7991,-2.8188,-2.7374,-2.6702,-2.6638,-2.5985,-2.5452,-2.5488,-2.5507,-2.5507,-2.5507,-2.4776,-2.4207,-2.4206,-2.3537,-2.3073,-2.3264,-2.3363,-2.3493,-2.3755,-2.3706,-2.3519,-2.272,-2.2991,-2.3361,-2.3187,-2.3614,-2.4218,-4.1544,-4.1418,-4.0567,-3.9185,-3.758,-3.7205,-3.7012,-3.698,-3.698,-3.678,-3.6381,-3.5553,-3.4673,-3.3791,-3.3321,-3.3194,-3.3266,-3.3284,-3.3321,-3.3393,-3.3393,-3.3393,-3.3375,-3.294,-3.2723,-3.2705,-3.1908,-3.1125,-3.0346,-2.9984,-2.9373,-2.8618,-2.86,-2.8172,-2.7428,-2.7822,-2.8058,-2.804,-2.8518,-2.8555,-2.8123,-2.7426,-2.6626,-2.581,-2.5045,-2.444,-2.4024,-2.3699,-2.3105,-2.2246,-2.1941,-2.1248,-2.0024,-1.933,-1.8821,0.0,0.0,0.0,0.0,0.0,0.0,0.0,0.0,0.0,0.0,0.0,-1.8564,-1.9805,-2.0627,-2.1108,-2.1113,-2.1543,-2.1834,-2.1828,-2.2258,-2.2696,-2.3097,-2.3441,-2.3992,-2.4816,-2.4911,-2.5266,-2.6238,-2.6034,-2.5983,-2.6486,-2.6596,-2.6963,-2.7635,-2.7185,-2.6656,-2.6626,-2.5949,-2.5425,-2.5488,-2.5507,-2.5507,-2.5468,-2.5101,-2.4764,-2.4774,-2.4423,-2.4132,-2.4161,-2.4202,-2.4217,-2.4204,-2.42,-2.4212,-2.4271,-2.4606,-2.4608,-2.3867,-2.4062,-2.4471,-4.2298,-4.2119,-4.123,-4.045,-3.976,-3.8817,-3.8366,-3.8209,-3.8209,-3.7738,-3.6959,-3.6272,-3.5894,-3.5786,-3.5786,-3.5406,-3.4769,-3.4643,-3.4226,-3.3574,-3.3447,-3.3393,-3.3393,-3.3393,-3.3393,-3.3357,-3.2687,-3.1886,-3.0998,-3.0292,-2.9481,-2.8636,-2.86,-2.86,-2.86,-2.86,-2.86,-2.86,-2.8662,-2.867,-2.8609,-2.7917,-2.7128,-2.6246,-2.5543,-2.4775,-2.3915,-2.3206,-2.2826,-2.2773,-2.22,-2.1867,-2.1879,-2.0626,-1.9917,0.0,-1.8677,0.0,0.0,0.0,0.0,0.0,0.0,0.0,0.0,-1.9135,-1.9834,-2.1341,-2.2081,-2.2486,-2.2498,-2.2593,-2.265,-2.2669,-2.2853,-2.3278,-2.4043,-2.4834,-2.5605,-2.6353,-2.6448,-2.6443,-2.6451,-2.5831,-2.5412,-2.559,-2.5539,-2.6002,-2.7157,-2.6875,-2.6365,-2.6424,-2.5854,-2.5425,-2.548,-2.5488,-2.5507,-2.5507,-2.5468,-2.5515,-2.5456,-2.5459,-2.5483,-2.5518,-2.5468,-2.5524,-2.5601,-2.5566,-2.5565,-2.549,-2.5554,-2.5385,-2.4783,-2.4608,-2.4822,-4.3224,-4.3134,-4.2173,-4.1665,-4.1411,-3.9872,-3.8807,-3.8209,-3.8209,-3.7756,-3.6995,-3.685,-3.6417,-3.5822,-3.5786,-3.5713,-3.5532,-3.4881,-3.4501,-3.4338,-3.3701,-3.3393,-3.3393,-3.3393,-3.3393,-3.3393,-3.3248,-3.2415,-3.1003,-3.0853,-3.0025,-2.8636,-2.86,-2.86,-2.86,0.0,0.0,0.0,-2.863,-2.8317,-2.7695,-2.7532,-2.6746,-2.5332,-2.5114,0.0,-2.3852,-2.3671,-2.3349,-2.2846,-2.2721,0.0,0.0,0.0,0.0,0.0,0.0,0.0,0.0,0.0,0.0,0.0,-2.1605,-2.1314,-2.0803,-2.1377,-2.1907,-2.2242,-2.2431,-2.2488,-2.2494,-2.3095,-2.3474,-2.3531,-2.4669,-2.556,-2.5749,-2.6508,-2.7115,-2.7236,-2.7274,-2.7274,-2.7262,-2.7129,-2.7015,-2.6928,-2.6474,-2.6236,-2.6535,-2.5994,-2.551,-2.5519,-2.547,-2.5401,-2.5429,-2.548,-2.5507,-2.5507,-2.5507,-2.5515,-2.5511,-2.5517,-2.5518,-2.5593,-2.5601,-2.5599,-2.5601,-2.5598,-2.5615,-2.5604,-2.5609,-2.5591,-2.5463,-2.5446,-2.5504,-4.341,0.0,-4.2759,-4.2323,0.0,-4.0508,-3.9496,-3.877,-3.8372,-3.7991,-3.7611,-3.7593,-3.7375,-3.6979,-3.6979,-3.6779,-3.6381,-3.5965,-3.5349,-3.4573,-3.419,-3.3791,-3.3393,-3.3393,-3.3393,-3.3393,-3.3393,-3.2777,-3.1618,-3.1197,-3.0387,-2.9192,-2.8799,-2.86,-2.86,-2.86,-2.86,-2.86,-2.86,-2.8401,-2.802,-2.8002,-2.7224,-2.5679,0.0,0.0,0.0,0.0,0.0,0.0,0.0,0.0,0.0,0.0,0.0,-2.2473,-2.2142,-2.2016,-2.2137,-2.222,-2.2303,-2.2413,-2.3227,-2.3202,-2.1945,-2.2609,-2.3272,-2.3714,-2.4093,-2.4491,-2.4927,-2.5344,-2.5591,-2.5629,-2.6349,-2.6842,-2.6918,-2.7574,-2.8093,-2.8093,-2.8093,-2.8104,-2.8085,-2.7733,-2.7513,-2.7475,-2.716,-2.6745,-2.631,-2.5653,-2.5195,-2.5292,-2.5327,-2.5363,-2.5393,-2.5429,-2.5476,-2.5488,-2.5507,-2.5511,-2.5523,-2.5522,-2.5524,-2.5525,-2.5567,-2.5601,-2.561,-2.5607,-2.56,-2.5612,-2.5602,-2.5609,-2.5677,-2.5699,-2.5699,-4.3358,-4.3251,-4.3142,-4.2741,-4.205,-4.1107,-4.0184,-3.9333,0.0,0.0,0.0,-3.8209,-3.8209,-3.8209,-3.8209,-3.7846,-3.7212,-3.7067,-3.6216,-3.4808,-3.4661,-3.419,-3.3411,-3.3393,-3.3393,-3.3393,-3.3393,-3.2995,-3.218,-3.1383,-3.06,-2.9784,-2.9011,-2.86,-2.86,-2.86,-2.86,-2.86,-2.86,-2.86,-2.86,-2.86,-2.7894,-2.6446,-2.6276,-2.5516,-2.4085,-2.3878,-2.3845,-2.3896,-2.3896,-2.3966,-2.4037,-2.3452,-2.3115,-2.3134,-2.2635,-2.2358,-2.2465,-2.2578,-2.275,-2.3042,-2.4534,-2.4738,-2.3082,-2.3828,-2.4662,-2.5382,-2.6046,-2.6709,-2.7437,-2.7494,-2.7494,-2.7494,-2.7627,-2.7714,-2.7771,-2.8427,-2.893,-2.8911,-2.893,-2.8911,-2.8874,-2.8389,-2.7941,-2.7922,-2.7847,-2.7331,-2.6436,-2.5603,-2.5149,-2.525,-2.5283,-2.5327,-2.5363,-2.5397,-2.5425,-2.546,-2.5503,-2.5507,-2.5511,-2.5523,-2.5506,-2.5511,-2.5548,-2.5602,-2.5598,-2.561,-2.5601,-2.5603,-2.5612,-2.5602,-2.5671,-2.5691,-2.5671,-4.3462,-4.3427,-4.3269,-4.3105,-4.2941,-4.196,-4.0727,-3.9351,-3.8536,-3.8209,-3.8209,-3.8209,-3.8209,-3.8209,-3.8209,-3.8154,-3.8009,-3.7303,-3.6508,0.0,-3.4899,-3.4172,-3.3411,-3.3393,-3.3393,-3.3393,-3.3393,-3.2995,-3.2198,-3.1383,-3.06,-2.9821,-2.9011,-2.86,-2.86,-2.86,-2.86,-2.86,-2.86,-2.86,-2.86,-2.86,-2.8165,-2.7272,-2.6566,-2.5787,-2.4864,-2.4186,-2.3827,-2.3896,-2.3896,-2.3927,-2.4006,-2.3906,-2.3852,-2.3871,-2.3867,-2.3907,-2.3988,-2.4143,-2.4647,-2.5529,-2.6566,-2.6432,-2.4871,-2.6072,-2.702,-2.7153,-2.7247,-2.7342,-2.7494,-2.757,-2.7608,-2.76,-2.8142,-2.8532,-2.8532,-2.9215,-2.9688,-2.9688,-2.9726,-2.9707,-2.965,-2.9556,-2.9423,-2.9423,-2.8711,-2.7934,-2.6598,-2.5583,-2.5182,-2.5203,-2.5269,-2.5302,-2.5308,-2.5363,-2.5393,-2.5425,-2.5456,-2.5507,-2.5507,-2.5523,-2.5503,-2.5511,-2.5564,-2.5599,-2.5595,-2.5601,-2.5587,-2.5601,-2.5587,-2.5595,-2.561,-2.562,-2.5617,-4.3479,-4.3462,-4.3304,-4.3214,-4.3105,-4.1669,-4.0437,-3.9368,-3.8553,-3.8209,-3.8209,-3.8209,-3.8209,-3.8209,-3.8209,-3.8209,-3.8191,-3.7828,-3.6979,-3.5804,-3.5406,-3.4606,-3.3465,-3.3393,-3.3393,-3.3393,-3.3393,-3.3212,-3.2814,-3.2035,-3.1469,-3.1034,-2.9862,-2.9016,-2.8618,-2.86,-2.86,-2.86,-2.86,-2.86,-2.86,-2.86,-2.8219,-2.7423,-2.7025,-2.6475,-2.5697,-2.5298,-2.4911,-2.4508,-2.449,-2.4319,-2.3933,-2.3896,-2.3907,-2.3955,-2.4074,-2.4373,-2.4874,-2.5567,-2.6168,-2.6682,-2.7562,-2.7797,-2.7074,-2.7278,-2.7702,-2.8104,-2.8142,-2.8332,-2.873,-2.8806,-2.8806,-2.8806,-2.9158,-2.9347,-2.9385,-2.9631,-2.9897,-2.9916,-2.9916,-2.9916,-2.9916,-2.9916,-2.9916,-2.9802,-2.8892,-2.7752,-2.6982,-2.5822,-2.5057,-2.5125,-2.5208,-2.5275,-2.5293,-2.5351,-2.5391,-2.5393,-2.5437,-2.5507,-2.5507,-2.5515,-2.5511,-2.551,-2.554,-2.5554,-2.5551,-2.5554,-2.5544,-2.5534,-2.554,-2.5546,-2.5577,-2.5576,-2.5541,-4.3479,-4.3462,-4.3322,-4.3214,-4.3014,-4.1252,-4.0166,-3.9568,-3.8625,-3.8209,-3.8209,-3.8209,-3.8209,-3.8209,-3.8209,-3.8209,-3.8209,-3.8209,-3.7341,-3.5894,-3.5786,-3.4935,-3.352,-3.3393,-3.3393,-3.3393,-3.3393,-3.3393,-3.3302,-3.2596,-3.2107,-3.1799,-3.0509,-2.9481,-2.8871,-2.8708,-2.86,-2.86,-2.86,-2.86,-2.86,-2.86,-2.8292,-2.7731,-2.7477,-2.7115,-2.653,-2.6294,-2.5914,-2.5316,-2.528,-2.4972,-2.4393,-2.432,-2.436,-2.4431,-2.4533,-2.4901,-2.5646,-2.6721,-2.737,-2.7466,-2.832,-2.8877,-2.8914,-2.8419,-2.8275,-2.8866,-2.8968,-2.9215,-2.9707,-2.9859,-2.9916,-2.9916,-2.9916,-2.9859,-2.9897,-2.9916,-2.9916,-2.9916,-2.9916,-2.9916,-2.9916,-2.9916,-2.9916,-2.9726,-2.8654,-2.779,-2.7399,-2.6186,-2.534,-2.5108,-2.5125,-2.5208,-2.5262,-2.5317,-2.536,-2.5376,-2.5444,-2.5476,-2.5484,-2.5484,-2.5515,-2.5515,-2.5518,-2.551,-2.5508,-2.5511,-2.5515,-2.5522,-2.5522,-2.5518,-2.5541,-2.5487,-2.5461,-4.3479,-4.3497,-4.3411,-4.3287,-4.2923,-4.1252,-4.0438,-4.0184,-3.8826,-3.8209,-3.8209,-3.8209,-3.8209,-3.8209,-3.8209,-3.8209,-3.8209,-3.8209,-3.7341,-3.5949,-3.5786,-3.4969,-3.352,-3.3411,-3.3393,-3.3393,-3.3393,-3.3393,-3.3357,-3.2614,-3.1836,-3.1093,-3.0219,-2.9821,-2.9621,-2.8993,-2.8618,-2.86,-2.86,-2.86,-2.86,-2.86,-2.8563,-2.8491,-2.7785,-2.7369,-2.7278,-2.6572,-2.6186,-2.6084,-2.6084,-2.6059,-2.5939,-2.595,-2.5968,-2.5962,-2.6025,-2.6231,-2.6518,-2.7489,-2.8119,-2.8249,-2.9043,-2.9602,-2.9725,-2.9685,-2.9674,-2.9748,-2.9756,-2.9775,-2.9869,-2.9916,-2.9916,-2.9916,-2.9916,-2.9916,-2.9916,-2.9916,-2.9916,-2.9916,-2.9916,-2.9916,-2.9916,-2.9916,-2.9916,-2.9888,-2.9082,-2.8199,-2.7543,-2.6652,-2.5693,-2.5208,-2.5076,-2.5131,-2.5195,-2.5257,-2.5288,-2.5322,-2.5382,-2.5412,-2.5421,-2.5456,-2.5515,-2.5496,-2.5511,-2.5499,-2.551,-2.5517,-2.5499,-2.5491,-2.5484,-2.5488,-2.544,-2.5348,-2.5335,-4.3479,-4.3497,-4.3429,-4.3287,-4.2886,-4.1234,-4.0492,-4.0329,-3.8862,-3.8209,-3.8209,-3.8209,-3.8209,-3.8209,-3.8209,-3.8209,-3.8209,-3.8209,-3.7593,-3.6508,-3.6021,-3.5204,-3.4172,-3.361,-3.3393,-3.3393,-3.3393,-3.3393,-3.3339,-3.3067,-3.2488,-3.1763,-3.1379,-3.0998,-3.0509,-2.9699,-2.93,-2.93,-2.8835,-2.86,-2.86,-2.86,-2.86,-2.8563,-2.8292,-2.8111,-2.8093,-2.7785,-2.7405,-2.6971,-2.691,-2.6699,-2.621,-2.6186,-2.6186,-2.6222,-2.6715,-2.7096,-2.7302,-2.8178,-2.8788,-2.8949,-2.9364,-2.9692,-2.978,-2.9851,-2.9912,-2.9901,-2.9907,-2.9916,-2.9916,-2.9916,-2.9916,-2.9916,-2.9916,-2.9916,-2.9916,-2.9916,-2.9916,-2.9916,-2.9916,-2.9916,-2.9916,-2.9916,-2.9916,-2.9821,-2.9207,-2.8438,-2.7619,-2.6747,-2.592,-2.5213,-2.5025,-2.5088,-2.5174,-2.5217,-2.5247,-2.5307,-2.5361,-2.5382,-2.5406,-2.5419,-2.544,-2.5448,-2.5448,-2.5452,-2.5437,-2.5444,-2.5427,-2.5423,-2.5393,-2.5361,-2.5308,-2.5229,-2.5203,-4.3479,-4.3497,-4.3394,-4.3251,-4.2959,-4.1234,-4.0492,-4.0311,-3.8862,-3.8209,-3.8209,-3.8209,-3.8209,-3.8209,-3.8209,-3.8209,-3.8209,-3.8209,-3.7774,-3.7013,-3.6381,-3.5584,-3.4624,-3.4045,-3.361,-3.3429,-3.3393,-3.3393,-3.3393,-3.3393,-3.3103,-3.2578,-3.2306,-3.1926,-3.1324,-3.0545,-3.0129,-3.0056,-2.9337,-2.8938,-2.8907,-2.8726,-2.86,-2.86,-2.86,-2.86,-2.86,-2.86,-2.8346,-2.7767,-2.7731,-2.7477,-2.6916,-2.6856,-2.6874,-2.691,-2.7459,-2.7881,-2.8057,-2.8698,-2.9145,-2.9299,-2.9451,-2.9551,-2.9654,-2.9754,-2.9834,-2.9851,-2.9874,-2.9899,-2.9916,-2.9916,-2.9916,-2.9916,-2.9916,-2.9916,-2.9916,-2.9916,-2.9916,-2.9916,-2.9916,-2.9916,-2.9916,-2.9916,-2.9916,-2.984,-2.9423,-2.8741,-2.7991,-2.7308,-2.6596,-2.5534,-2.5327,-2.5259,-2.5189,-2.516,-2.5181,-2.525,-2.5307,-2.5322,-2.5375,-2.5374,-2.5369,-2.5373,-2.5369,-2.5388,-2.5373,-2.537,-2.5337,-2.5303,-2.5268,-2.5225,-2.5179,-2.5115,-2.5099,-4.3479,-4.3462,-4.3286,-4.3214,-4.3032,-4.127,-4.0492,-4.0383,-3.8879,-3.8209,-3.8209,-3.8209,-3.8209,-3.8209,-3.8209,-3.8209,-3.8209,-3.8209,-3.7792,-3.7104,-3.6941,-3.6091,-3.4663,-3.4555,-3.4139,-3.3538,-3.3411,-3.3393,-3.3393,-3.3393,-3.3375,-3.3284,-3.2614,-3.2216,-3.2035,-3.1342,-3.0962,-3.0858,-3.0165,-2.9766,-2.9658,-2.8998,-2.8654,-2.8672,-2.86,-2.86,-2.86,-2.86,-2.8563,-2.8545,-2.8491,-2.8473,-2.8455,-2.8419,-2.8401,-2.8419,-2.8535,-2.8621,-2.864,-2.8857,-2.9021,-2.9123,-2.9246,-2.9373,-2.9492,-2.9626,-2.9701,-2.9708,-2.9806,-2.9893,-2.9907,-2.9907,-2.9916,-2.9916,-2.9916,-2.9916,-2.9916,-2.9916,-2.9916,-2.9916,-2.9916,-2.9916,-2.9916,-2.9916,-2.9916,-2.9916,-2.984,-2.948,-2.8741,-2.8476,-2.7756,-2.6626,-2.6072,-2.5877,-2.5227,-2.5057,-2.5125,-2.5172,-2.5223,-2.5228,-2.5273,-2.5293,-2.5303,-2.5288,-2.5284,-2.5279,-2.5298,-2.5273,-2.5206,-2.5168,-2.5153,-2.5112,-2.5112,-2.5095,-2.5082,-4.3481,-4.3393,-4.3269,-4.3178,-4.2941,-4.1252,-4.0492,-4.0347,-3.8862,-3.8209,-3.8209,-3.8209,-3.8209,-3.8209,-3.8209,-3.8209,-3.8209,-3.8209,-3.8046,-3.772,-3.7249,-3.6687,-3.6125,-3.5131,-3.448,-3.4154,-3.3647,-3.3393,-3.3393,-3.3393,-3.3393,-3.3375,-3.3121,-3.2958,-3.2832,-3.2162,-3.1763,-3.1691,-3.098,-3.0563,-3.0509,-2.9771,-2.9386,-2.935,-2.8871,-2.86,-2.86,-2.86,-2.86,-2.86,-2.86,-2.86,-2.86,-2.86,-2.86,-2.86,-2.8625,-2.8662,-2.8694,-2.8755,-2.8851,-2.8975,-2.9082,-2.9203,-2.9328,-2.9471,-2.9589,-2.9626,-2.9718,-2.9787,-2.9885,-2.9899,-2.9916,-2.9916,-2.9916,-2.9916,-2.9916,-2.9916,-2.9916,-2.9916,-2.9916,-2.9916,-2.9916,-2.9916,-2.9916,-2.9916,-2.9916,-2.9537,-2.893,-2.8703,-2.8305,-2.7278,-2.6558,-2.6103,-2.587,-2.5278,-2.5057,-2.5095,-2.5137,-2.5141,-2.5164,-2.5179,-2.5171,-2.5176,-2.5176,-2.5195,-2.5185,-2.5162,-2.5111,-2.5119,-2.5095,-2.5057,-2.5025,-2.5031,-2.5031,-4.3375,-4.3323,-4.3214,-4.3142,-4.2868,-4.1234,-4.0492,-4.0311,-3.8862,-3.8209,-3.8209,-3.8209,-3.8209,-3.8209,-3.8209,-3.8209,-3.8209,-3.8209,-3.8209,-3.8172,-3.7629,-3.7249,-3.685,-3.5892,-3.5077,-3.4552,-3.3791,-3.3393,-3.3393,-3.3393,-3.3393,-3.3393,-3.3393,-3.3393,-3.3284,-3.285,-3.2578,-3.2433,-3.1799,-3.1397,-3.1288,-3.06,-3.0056,-2.9766,-2.9264,-2.8853,-2.8618,-2.86,-2.86,-2.86,-2.86,-2.86,-2.86,-2.86,-2.86,-2.86,-2.86,-2.8612,-2.8657,-2.8682,-2.8743,-2.8827,-2.8952,-2.9055,-2.9134,-2.9289,-2.9412,-2.9492,-2.9589,-2.9691,-2.9799,-2.9832,-2.9855,-2.9899,-2.9916,-2.9916,-2.9916,-2.9916,-2.9916,-2.9916,-2.9916,-2.9916,-2.9916,-2.9916,-2.9916,-2.9916,-2.9916,-2.9612,-2.9215,-2.9063,-2.8817,-2.8029,-2.7468,-2.6842,-2.633,-2.5732,-2.5221,-2.5203,-2.5089,-2.5076,-2.5075,-2.5081,-2.5074,-2.508,-2.5074,-2.5093,-2.5075,-2.5056,-2.507,-2.5082,-2.5063,-2.5005,-2.4999,-2.5004,-2.4998,-4.3214,-4.3196,-4.3123,-4.3123,-4.2831,-4.1252,-4.0492,-4.0256,-3.8879,-3.8209,-3.8209,-3.8209,-3.8209,-3.8209,-3.8209,-3.8209,-3.8209,-3.8209,-3.8209,-3.8174,-3.8154,-3.7738,-3.7122,-3.6868,-3.5928,-3.4606,-3.3828,-3.3447,-3.3411,-3.3393,-3.3393,-3.3393,-3.3393,-3.3393,-3.3393,-3.3302,-3.3321,-3.314,-3.2542,-3.2216,-3.2107,-3.1433,-3.0708,-3.0056,-2.9875,-2.9445,-2.8708,-2.8618,-2.86,-2.86,-2.86,-2.86,-2.86,-2.86,-2.86,-2.86,-2.86,-2.86,-2.8594,-2.8644,-2.8682,-2.8718,-2.8815,-2.8929,-2.8987,-2.9112,-2.9225,-2.9312,-2.9414,-2.956,-2.9673,-2.9719,-2.9761,-2.9891,-2.9907,-2.9907,-2.9916,-2.9916,-2.9916,-2.9916,-2.9916,-2.9916,-2.9916,-2.9916,-2.9916,-2.9916,-2.9888,-2.9869,-2.9737,-2.9707,-2.948,-2.8949,-2.8362,-2.7756,-2.6929,-2.6148,-2.5687,-2.529,-2.5107,-2.5025,-2.5063,-2.507,-2.5063,-2.5063,-2.507,-2.5063,-2.5032,-2.5031,-2.5018,-2.5011,-2.4998,-2.4991,-2.4991,-2.4991,-2.4991,-4.3178,-4.3141,-4.3104,-4.3049,-4.2757,-4.1198,-4.0492,-4.0329,-3.8862,-3.8227,-3.8209,-3.8209,-3.8209,-3.8209,-3.8209,-3.8209,-3.8209,-3.8209,-3.8209,-3.8209,-3.8209,-3.8082,-3.7774,-3.7249,-3.6146,-3.4806,-3.4356,-3.3936,-3.3484,-3.3411,-3.3393,-3.3393,-3.3393,-3.3393,-3.3393,-3.3393,-3.3393,-3.3375,-3.3176,-3.3031,-3.2958,-3.2234,-3.1673,-3.1419,-3.0926,-3.0255,-2.9445,-2.8889,-2.8618,-2.86,-2.86,-2.86,-2.86,-2.86,-2.86,-2.86,-2.86,-2.86,-2.86,-2.8643,-2.8656,-2.865,-2.8724,-2.8773,-2.881,-2.8983,-2.9081,-2.9186,-2.9235,-2.9359,-2.9531,-2.9608,-2.9691,-2.9876,-2.9901,-2.991,-2.9916,-2.9916,-2.9916,-2.9916,-2.9916,-2.9916,-2.9916,-2.9916,-2.9916,-2.9916,-2.9916,-2.9916,-2.9916,-2.9916,-2.9878,-2.9529,-2.9074,-2.86,-2.7813,-2.7005,-2.6375,-2.5782,-2.5384,-2.503,-2.5024,-2.505,-2.5043,-2.5043,-2.5043,-2.5043,-2.5004,-2.4998,-2.4991,-2.4991,-2.4991,-2.4991,-2.4984,-2.4984,-2.4984,-4.303,-4.2974,-4.3012,-4.2975,-4.272,-4.1198,-4.0492,-4.0257,-3.8862,-3.8227,-3.8209,-3.8209,-3.8209,-3.8209,-3.8209,-3.8209,-3.8209,-3.8209,-3.8209,-3.8209,-3.8209,-3.8209,-3.8082,-3.7357,-3.656,-3.5602,-3.5186,-3.4624,-3.3882,-3.3828,-3.3701,-3.3447,-3.3393,-3.3393,-3.3393,-3.3393,-3.3393,-3.3393,-3.3375,-3.3393,-3.3284,-3.2904,-3.2488,-3.218,-3.1691,-3.1071,-3.0273,-2.9753,-2.9215,-2.8726,-2.86,-2.86,-2.86,-2.86,-2.8726,-2.9011,-2.9052,-2.9052,-2.9034,-2.9101,-2.9047,-2.9047,-2.9085,-2.9286,-2.9512,-2.9696,-2.9704,-2.9494,-2.9557,-2.9514,-2.9444,-2.9443,-2.956,-2.9709,-2.9861,-2.9893,-2.9907,-2.9916,-2.9916,-2.9916,-2.9916,-2.9916,-2.9916,-2.9916,-2.9916,-2.9916,-2.9916,-2.9916,-2.9916,-2.9916,-2.9888,-2.9832,-2.9547,-2.9082,-2.8665,-2.7926,-2.7138,-2.6406,-2.573,-2.5275,-2.4998,-2.5004,-2.5017,-2.5023,-2.5023,-2.5023,-2.4991,-2.4991,-2.4991,-2.4984,-2.4984,-2.4984,-2.4984,-2.4984,-2.4984,-4.2802,-4.2821,-4.2862,-4.2828,-4.2574,-4.1144,-4.0438,-4.0166,-3.8844,-3.8209,-3.8209,-3.8209,-3.8209,-3.8209,-3.8209,-3.8209,-3.8209,-3.8209,-3.8209,-3.8209,-3.8209,-3.8209,-3.81,-3.7502,-3.7049,-3.6723,-3.6146,-3.5442,-3.4697,-3.4679,-3.428,-3.3614,-3.3574,-3.3429,-3.3429,-3.3393,-3.3393,-3.3393,-3.3393,-3.3393,-3.3393,-3.3375,-3.3049,-3.2361,-3.2288,-3.1872,-3.1179,-3.084,-3.0188,-2.8998,-2.8925,-2.898,-2.8817,-2.8744,-2.921,-2.9807,-2.9875,-2.9857,-2.9857,-2.9875,-2.9844,-2.9857,-2.9893,-3.0178,-3.0721,-3.0752,-3.0605,-3.0222,-3.0204,-3.0043,-2.9629,-2.959,-2.9651,-2.9605,-2.9821,-2.9887,-2.9899,-2.9907,-2.9916,-2.9916,-2.9916,-2.9916,-2.9916,-2.9916,-2.9916,-2.9916,-2.9916,-2.9916,-2.9916,-2.9916,-2.9916,-2.984,-2.9745,-2.9547,-2.912,-2.8532,-2.7801,-2.7384,-2.6596,-2.5894,-2.525,-2.5136,-2.5003,-2.4984,-2.4984,-2.4984,-2.4984,-2.4984,-2.4984,-2.4984,-2.4984,-2.4984,-2.4984,-2.4984,-2.4984,-4.2552,-4.2649,-4.2783,-4.2518,-4.1922,-4.089,-4.0166,-3.9604,-3.8662,-3.8209,-3.8209,-3.8209,-3.8209,-3.8209,-3.8209,-3.8209,-3.8209,-3.8209,-3.8209,-3.8209,-3.8209,-3.8209,-3.8191,-3.7991,-3.7557,-3.7067,-3.6814,-3.6272,-3.5548,-3.5494,-3.5062,-3.4301,-3.4226,-3.3939,-3.352,-3.3411,-3.3393,-3.3393,-3.3393,-3.3393,-3.3393,-3.3393,-3.3321,-3.314,-3.3067,-3.2651,-3.1908,-3.1306,-3.0876,-3.0441,-3.0351,-3.0369,-3.0278,-3.026,-3.0351,-3.0618,-3.069,-3.069,-3.0672,-3.069,-3.069,-3.069,-3.069,-3.0781,-3.0976,-3.1048,-3.0962,-3.0828,-3.0836,-3.0823,-3.0748,-3.079,-3.0724,-3.0385,-3.0133,-2.989,-2.9885,-2.9899,-2.9916,-2.9916,-2.9916,-2.9916,-2.9916,-2.9916,-2.9916,-2.9916,-2.9916,-2.9916,-2.9916,-2.9916,-2.9916,-2.9916,-2.984,-2.9775,-2.9529,-2.9006,-2.8551,-2.8305,-2.7612,-2.6785,-2.6046,-2.5439,-2.5193,-2.4984,-2.4984,-2.4984,-2.4984,-2.4984,-2.4984,-2.4984,-2.4984,-2.4984,-2.4984,-2.4984,-2.4984,-4.231,-4.2472,-4.2667,-4.2314,-4.1595,-4.0818,-4.0093,-3.9333,-3.8554,-3.8209,-3.8209,-3.8209,-3.8209,-3.8209,-3.8209,-3.8209,-3.8209,-3.8209,-3.8209,-3.8209,-3.8209,-3.8209,-3.8209,-3.8209,-3.7955,-3.7593,-3.7502,-3.7033,-3.6435,-3.6309,-3.5874,-3.5152,-3.4769,-3.4338,-3.3954,-3.3538,-3.3393,-3.3393,-3.3393,-3.3393,-3.3393,-3.3393,-3.3393,-3.3393,-3.3375,-3.3121,-3.2669,-3.2234,-3.1745,-3.1184,-3.0985,-3.1003,-3.1003,-3.1003,-3.1161,-3.1437,-3.1524,-3.1492,-3.1492,-3.1492,-3.1492,-3.1492,-3.151,-3.1723,-3.1958,-3.1999,-3.1991,-3.1601,-3.1579,-3.1451,-3.1289,-3.1358,-3.1347,-3.1095,-3.056,-3.0095,-2.9909,-2.9885,-2.9891,-2.9907,-2.9916,-2.9916,-2.9916,-2.9916,-2.9916,-2.9916,-2.9916,-2.9916,-2.9916,-2.9916,-2.9916,-2.9916,-2.9916,-2.9851,-2.9813,-2.9423,-2.9215,-2.8987,-2.8514,-2.7687,-2.6709,-2.5894,-2.5458,-2.5212,-2.5098,-2.4984,-2.4984,-2.4984,-2.4984,-2.4984,-2.4984,-2.5022,-2.5041,-2.5174,-2.5136,-4.1998,-4.2267,-4.247,-4.2125,-4.1394,-4.0763,-3.9985,-3.9188,-3.8517,-3.8209,-3.8209,-3.8209,-3.8209,-3.8209,-3.8209,-3.8209,-3.8209,-3.8209,-3.8209,-3.8209,-3.8209,-3.8209,-3.8209,-3.8209,-3.8172,-3.81,-3.8191,-3.7774,-3.7267,-3.7122,-3.6671,-3.6001,-3.5276,-3.4787,-3.4443,-3.39,-3.352,-3.3393,-3.3393,-3.3393,-3.3393,-3.3393,-3.3393,-3.3393,-3.3393,-3.3375,-3.3302,-3.3176,-3.2723,-3.1342,-3.1256,-3.1401,-3.1365,-3.131,-3.1618,-3.2162,-3.2325,-3.2325,-3.2325,-3.2325,-3.2325,-3.2325,-3.2306,-3.2596,-3.3031,-3.3103,-3.2904,-3.2375,-3.2381,-3.2137,-3.1774,-3.1634,-3.1745,-3.1738,-3.1255,-3.0718,-3.018,-2.9956,-2.992,-2.9899,-2.9907,-2.9916,-2.9916,-2.9916,-2.9916,-2.9916,-2.9916,-2.9916,-2.9916,-2.9916,-2.9916,-2.9916,-2.9916,-2.9916,-2.9897,-2.984,-2.9783,-2.965,-2.9215,-2.8457,-2.7308,-2.6501,-2.5894,-2.5515,-2.5288,-2.5098,-2.4984,-2.4984,-2.506,-2.4984,-2.4984,-2.506,-2.5155,-2.5382,-2.5458,-4.1569,-4.1931,-4.2124,-4.1548,-4.0614,-4.0419,-3.9679,-3.8464,-3.8299,-3.8209,-3.8209,-3.8209,-3.8209,-3.8209,-3.8209,-3.8209,-3.8209,-3.8209,-3.8209,-3.8209,-3.8209,-3.8209,-3.8209,-3.8209,-3.8209,-3.8209,-3.8209,-3.81,-3.7937,-3.7792,-3.7538,-3.6796,-3.6381,-3.5838,-3.4787,-3.4461,-3.3991,-3.3538,-3.3411,-3.3393,-3.3393,-3.3393,-3.3393,-3.3393,-3.3393,-3.3393,-3.3393,-3.3393,-3.3212,-3.2977,-3.2814,-3.2687,-3.2705,-3.2741,-3.2832,-3.294,-3.3067,-3.3103,-3.3121,-3.3067,-3.3121,-3.3049,-3.3031,-3.3212,-3.3321,-3.3393,-3.3321,-3.314,-3.3154,-3.2984,-3.2841,-3.2956,-3.278,-3.2487,-3.2287,-3.202,-3.1447,-3.0546,-3.0038,-2.9969,-2.9937,-2.9916,-2.9916,-2.9916,-2.9916,-2.9916,-2.9916,-2.9916,-2.9916,-2.9916,-2.9916,-2.9916,-2.9916,-2.9916,-2.9916,-2.9916,-2.9916,-2.9916,-2.9604,-2.932,-2.8154,-2.7157,-2.6596,-2.5989,-2.5401,-2.5288,-2.5344,-2.5288,-2.542,-2.5212,-2.5155,-2.5515,-2.5799,-2.5875,-2.6008,-4.017,-4.0512,-4.0771,-4.0326,-3.9581,-3.9678,-3.9139,-3.8268,-3.8174,-3.8209,-3.8209,-3.8209,-3.8209,-3.8209,-3.8209,-3.8209,-3.8209,-3.8209,-3.8209,-3.8209,-3.8209,-3.8209,-3.8209,-3.8209,-3.8209,-3.8209,-3.8209,-3.8209,-3.8209,-3.8191,-3.7973,-3.7538,-3.723,-3.6614,-3.5639,-3.5023,-3.4392,-3.3991,-3.3574,-3.3393,-3.3393,-3.3393,-3.3393,-3.3393,-3.3393,-3.3393,-3.3393,-3.3393,-3.3393,-3.3393,-3.3393,-3.3393,-3.3393,-3.3393,-3.3393,-3.3393,-3.3393,-3.3393,-3.3375,-3.3393,-3.3357,-3.3393,-3.3393,-3.3393,-3.3393,-3.3393,-3.3393,-3.3393,-3.3375,-3.3408,-3.3452,-3.3459,-3.3299,-3.3176,-3.2912,-3.2692,-3.2292,-3.1241,-3.0419,-3.0359,-3.0156,-2.9983,-2.9916,-2.9916,-2.9916,-2.9916,-2.9916,-2.9916,-2.9916,-2.9916,-2.9916,-2.9916,-2.9916,-2.9916,-2.9916,-2.9916,-2.9916,-2.9916,-2.984,-2.9661,-2.9158,-2.821,-2.7346,-2.6785,-2.6273,-2.5989,-2.5989,-2.5894,-2.5875,-2.5837,-2.5951,-2.6311,-2.6596,-2.6747,-2.688,-3.8701,-3.8964,-3.9263,-3.9073,-3.8672,-3.8884,-3.8654,-3.8074,-3.8123,-3.8157,-3.8192,-3.8192,-3.8192,-3.8192,-3.8192,-3.8209,-3.8209,-3.8209,-3.8209,-3.8209,-3.8209,-3.8209,-3.8209,-3.8209,-3.8209,-3.8209,-3.8209,-3.8209,-3.8209,-3.8209,-3.8154,-3.8029,-3.7575,-3.7085,-3.6651,-3.5765,-3.4878,-3.4482,-3.3991,-3.3538,-3.3411,-3.3393,-3.3393,-3.3393,-3.3393,-3.3393,-3.3393,-3.3393,-3.3393,-3.3393,-3.3393,-3.3393,-3.3393,-3.3393,-3.3393,-3.3393,-3.3393,-3.3393,-3.3393,-3.3393,-3.3393,-3.3393,-3.3393,-3.3393,-3.3393,-3.3393,-3.3393,-3.3393,-3.3393,-3.3393,-3.3411,-3.3437,-3.352,-3.3497,-3.3159,-3.3075,-3.2957,-3.2077,-3.1477,-3.09,-3.0574,-3.0343,-3.0048,-2.9916,-2.9916,-2.9916,-2.9916,-2.9916,-2.9916,-2.9916,-2.9916,-2.9916,-2.9916,-2.9916,-2.9916,-2.9916,-2.9916,-2.9916,-2.9916,-2.9851,-2.9775,-2.9196,-2.8351,-2.7809,-2.7354,-2.6994,-2.6747,-2.6754,-2.669,-2.6596,-2.6728,-2.7032,-2.7335,-2.7638,-2.7809,-3.8385,-3.8684,-3.886,-3.8702,-3.84,-3.8583,-3.8364,-3.7988,-3.7984,-3.8036,-3.8071,-3.8157,-3.8123,-3.8088,-3.8157,-3.8192,-3.8192,-3.8209,-3.8209,-3.8209,-3.8209,-3.8209,-3.8209,-3.8209,-3.8209,-3.8209,-3.8209,-3.8209,-3.8209,-3.8209,-3.8209,-3.8172,-3.8028,-3.7701,-3.7176,-3.6614,-3.5783,-3.5007,-3.457,-3.4172,-3.3773,-3.3538,-3.352,-3.3502,-3.3465,-3.3393,-3.3393,-3.3393,-3.3393,-3.3393,-3.3393,-3.3393,-3.3393,-3.3393,-3.3393,-3.3393,-3.3393,-3.3393,-3.3393,-3.3393,-3.3393,-3.3393,-3.3393,-3.3393,-3.3393,-3.3393,-3.3393,-3.3393,-3.3393,-3.3393,-3.3393,-3.3408,-3.3452,-3.3494,-3.3543,-3.3553,-3.3586,-3.3145,-3.227,-3.1544,-3.1126,-3.0711,-3.0389,-3.0067,-2.9916,-2.9916,-2.9916,-2.9916,-2.9916,-2.9916,-2.9916,-2.9916,-2.9916,-2.9916,-2.9916,-2.9916,-2.9916,-2.9916,-2.9916,-2.9916,-2.9859,-2.984,-2.9366,-2.8711,-2.8131,-2.7657,-2.7543,-2.7581,-2.7505,-2.7392,-2.7562,-2.779,-2.8154,-2.8544,-2.8809,-3.7001,-3.7197,-3.7404,-3.7471,-3.7443,-3.7692,-3.7784,-3.7667,-3.7774,-3.788,-3.7969,-3.8021,-3.8003,-3.7985,-3.8054,-3.814,-3.8192,-3.8209,-3.8209,-3.8209,-3.8209,-3.8209,-3.8209,-3.8209,-3.8209,-3.8209,-3.8209,-3.8209,-3.8209,-3.8209,-3.8209,-3.8209,-3.8209,-3.7991,-3.7593,-3.714,-3.6633,-3.582,-3.5421,-3.5059,-3.4588,-3.428,-3.4045,-3.3954,-3.3628,-3.3411,-3.3393,-3.3393,-3.3393,-3.3393,-3.3393,-3.3393,-3.3429,-3.3447,-3.3429,-3.3447,-3.3411,-3.3393,-3.3393,-3.3393,-3.3393,-3.3393,-3.3393,-3.3393,-3.3393,-3.3393,-3.3393,-3.3393,-3.3393,-3.3393,-3.3393,-3.3393,-3.3437,-3.3509,-3.3619,-3.3762,-3.3893,-3.3843,-3.316,-3.2192,-3.1562,-3.1114,-3.073,-3.0389,-3.0029,-2.9916,-2.9916,-2.9916,-2.9916,-2.9916,-2.9916,-2.9916,-2.9916,-2.9916,-2.9916,-2.9916,-2.9916,-2.9916,-2.9916,-2.9916,-2.9916,-2.9878,-2.9783,-2.9423,-2.8892,-2.8408,-2.8427,-2.8502,-2.8351,-2.8275,-2.8578,-2.8874,-2.9142,-2.9428,-2.9561,-3.5773,-3.5817,-3.6067,-3.628,-3.6506,-3.6834,-3.7127,-3.7355,-3.7559,-3.7685,-3.7775,-3.7828,-3.7846,-3.7863,-3.795,-3.8053,-3.8157,-3.8192,-3.8209,-3.8209,-3.8209,-3.8209,-3.8209,-3.8209,-3.8209,-3.8209,-3.8209,-3.8209,-3.8209,-3.8209,-3.8209,-3.8209,-3.8209,-3.8209,-3.8028,-3.7593,-3.7249,-3.6798,-3.6435,-3.6021,-3.5659,-3.5206,-3.4811,-3.4793,-3.416,-3.3906,-3.4,-3.4018,-3.4033,-3.403,-3.4009,-3.3954,-3.3918,-3.3882,-3.3882,-3.3828,-3.361,-3.3411,-3.3393,-3.3393,-3.3393,-3.3393,-3.3393,-3.3393,-3.3393,-3.3393,-3.3393,-3.3393,-3.3393,-3.3393,-3.3393,-3.3393,-3.3441,-3.3462,-3.3591,-3.3726,-3.3908,-3.3975,-3.3974,-3.3093,-3.2165,-3.1495,-3.1095,-3.0389,-2.9953,-2.9916,-2.9916,-2.9916,-2.9916,-2.9916,-2.9916,-2.9916,-2.9916,-2.9916,-2.9916,-2.9916,-2.9916,-2.9916,-2.9916,-2.9916,-2.9916,-2.9897,-2.9802,-2.9745,-2.9707,-2.9309,-2.9366,-2.9301,-2.915,-2.9207,-2.9604,-2.9739,-2.9631,-2.9614,-2.9708,-3.5689,-3.5795,-3.5839,-3.6041,-3.6322,-3.6553,-3.6836,-3.7129,-3.7336,-3.7448,-3.7466,-3.7576,-3.7613,-3.7685,-3.788,-3.8002,-3.8053,-3.8157,-3.8209,-3.8209,-3.8209,-3.8209,-3.8209,-3.8209,-3.8209,-3.8209,-3.8209,-3.8209,-3.8209,-3.8209,-3.8209,-3.8209,-3.8209,-3.8209,-3.8172,-3.7957,-3.7701,-3.7122,-3.6906,-3.6544,-3.6003,-3.577,-3.5612,-3.5491,-3.5295,-3.5115,-3.5042,-3.5042,-3.5146,-3.5299,-3.5406,-3.5478,-3.5514,-3.5514,-3.5514,-3.508,-3.4353,-3.3393,-3.3484,-3.3429,-3.3484,-3.352,-3.352,-3.3411,-3.3487,-3.3414,-3.3378,-3.3393,-3.3393,-3.3393,-3.3393,-3.3393,-3.3408,-3.3437,-3.3509,-3.3605,-3.3766,-3.3985,-3.3993,-3.3896,-3.2945,-3.2062,-3.142,-3.0604,-2.9916,-2.9916,-2.9916,-2.9916,-2.9916,-2.9916,-2.9916,-2.9916,-2.9916,-2.9916,-2.9916,-2.9916,-2.9916,-2.9916,-2.9907,-2.9907,-2.9916,-2.9916,-2.9916,-2.9878,-2.9907,-2.9907,-2.9729,-2.9691,-2.9796,-2.9826,-2.9809,-2.9813,-2.9798,-2.9816,-2.9799,-3.5622,-3.5689,-3.5773,-3.5883,-3.6023,-3.6322,-3.655,-3.6771,-3.697,-3.7106,-3.7182,-3.7222,-3.7336,-3.7504,-3.7721,-3.7897,-3.7984,-3.814,-3.8209,-3.8192,-3.8192,-3.8192,-3.8209,-3.8209,-3.8209,-3.8209,-3.8209,-3.8209,-3.8209,-3.8209,-3.8209,-3.8209,-3.8209,-3.8209,-3.8192,-3.814,-3.7906,-3.7637,-3.7495,-3.7351,-3.7006,-3.6594,-3.6309,-3.6255,-3.5825,-3.5647,-3.5629,-3.5588,-3.5638,-3.5704,-3.5736,-3.5786,-3.5786,-3.5768,-3.5734,-3.5598,-3.5108,-3.4527,-3.4139,-3.3701,-3.3722,-3.3976,-3.4066,-3.4087,-3.3967,-3.3644,-3.3409,-3.3337,-3.3337,-3.3403,-3.3451,-3.3393,-3.3393,-3.3408,-3.3506,-3.3538,-3.3643,-3.3829,-3.3925,-3.3868,-3.3713,-3.2787,-3.1939,-3.1325,-3.0499,-2.9916,-2.9916,-2.9916,-2.9916,-2.9916,-2.9916,-2.9916,-2.9916,-2.9916,-2.9916,-2.9916,-2.9916,-2.9907,-2.9888,-2.9888,-2.9907,-2.9916,-2.9899,-2.9899,-2.9907,-2.9899,-2.991,-2.9901,-2.9874,-2.9849,-2.9842,-2.979,-2.9746,-2.971,-2.9692,-3.5616,-3.5622,-3.5728,-3.5773,-3.5817,-3.611,-3.6297,-3.644,-3.6629,-3.6751,-3.6811,-3.6873,-3.705,-3.7337,-3.7559,-3.7774,-3.8003,-3.8141,-3.8157,-3.8157,-3.8157,-3.814,-3.814,-3.814,-3.8175,-3.8192,-3.8209,-3.8209,-3.8209,-3.8209,-3.8209,-3.8209,-3.8209,-3.8175,-3.814,-3.8071,-3.7929,-3.7843,-3.7773,-3.7772,-3.7681,-3.7286,-3.7071,-3.6819,-3.6461,-3.6067,-3.6049,-3.6137,-3.6188,-3.6324,-3.6445,-3.6568,-3.6582,-3.6653,-3.6568,-3.641,-3.6035,-3.5656,-3.5128,-3.4674,-3.4416,-3.4615,-3.4832,-3.4801,-3.4718,-3.4161,-3.3875,-3.4055,-3.4035,-3.4026,-3.3909,-3.3903,-3.381,-3.3737,-3.3589,-3.3553,-3.3549,-3.3698,-3.3842,-3.3863,-3.3696,-3.3381,-3.2639,-3.21,-3.1259,-3.0194,-2.9916,-2.9916,-2.9916,-2.9916,-2.9907,-2.9907,-2.9907,-2.9907,-2.9907,-2.9907,-2.9907,-2.9899,-2.9872,-2.9864,-2.9874,-2.9866,-2.9857,-2.9874,-2.9883,-2.9885,-2.9859,-2.9887,-2.9895,-2.9827,-2.9774,-2.9719,-2.9673,-2.9617,-2.9607,-3.5616,-3.5616,-3.5622,-3.5667,-3.5795,-3.5954,-3.6084,-3.6208,-3.6419,-3.6464,-3.6406,-3.6553,-3.6834,-3.7127,-3.7448,-3.7685,-3.7916,-3.8106,-3.8105,-3.8053,-3.8001,-3.8037,-3.8037,-3.8054,-3.8088,-3.8157,-3.8192,-3.8192,-3.8209,-3.8209,-3.8209,-3.8209,-3.8209,-3.8123,-3.8054,-3.7967,-3.781,-3.7721,-3.7631,-3.7667,-3.7739,-3.7631,-3.7595,-3.7578,-3.7542,-3.7524,-3.7524,-3.7362,-3.7343,-3.7462,-3.7478,-3.7548,-3.751,-3.7562,-3.7476,-3.73,-3.6923,-3.6583,-3.6224,-3.5625,-3.5441,-3.5495,-3.555,-3.555,-3.5483,-3.5432,-3.5308,-3.5094,-3.4929,-3.5085,-3.5058,-3.4961,-3.454,-3.416,-3.3855,-3.3596,-3.3546,-3.3491,-3.3643,-3.3784,-3.3697,-3.3457,-3.3237,-3.2688,-3.1694,-3.0622,-2.9926,-2.9916,-2.9916,-2.9907,-2.9907,-2.9907,-2.9907,-2.9907,-2.988,-2.9872,-2.9866,-2.9849,-2.9841,-2.9823,-2.9806,-2.9806,-2.9842,-2.9815,-2.9832,-2.9825,-2.9808,-2.9835,-2.9809,-2.9738,-2.9673,-2.9636,-2.9579,-2.9531,-2.9549,-3.5616,-3.5616,-3.5616,-3.5622,-3.5689,-3.58,-3.5888,-3.5971,-3.6122,-3.617,-3.6131,-3.6343,-3.6571,-3.6873,-3.7241,-3.754,-3.7775,-3.7934,-3.7985,-3.8003,-3.7985,-3.7951,-3.7951,-3.7933,-3.7985,-3.8054,-3.8088,-3.814,-3.8174,-3.8192,-3.8192,-3.8209,-3.8192,-3.8105,-3.8002,-3.7757,-3.7523,-3.7375,-3.7318,-3.7299,-3.7448,-3.7429,-3.7467,-3.7631,-3.7522,-3.7559,-3.7595,-3.7667,-3.7739,-3.781,-3.7898,-3.7986,-3.8021,-3.8021,-3.7951,-3.7863,-3.745,-3.7308,-3.7022,-3.6302,-3.5774,-3.6224,-3.6278,-3.6262,-3.6192,-3.5818,-3.5515,-3.5442,-3.5584,-3.5705,-3.5485,-3.5333,-3.5074,-3.4604,-3.4174,-3.3813,-3.3572,-3.3505,-3.3448,-3.3597,-3.3721,-3.371,-3.3477,-3.3224,-3.2127,-3.1031,-3.0404,-2.9926,-2.9994,-2.9918,-2.9883,-2.9901,-2.9893,-2.9885,-2.9857,-2.9859,-2.9834,-2.9825,-2.9808,-2.9763,-2.9745,-2.978,-2.9789,-2.978,-2.9763,-2.9754,-2.9755,-2.9755,-2.9738,-2.9683,-2.9617,-2.9549,-2.9491,-2.9451,-2.9471,-3.5616,-3.5616,-3.5616,-3.5616,-3.5622,-3.5689,-3.5728,-3.5773,-3.5888,-3.5975,-3.6019,-3.617,-3.6364,-3.6673,-3.7048,-3.7411,-3.7649,-3.7828,-3.7863,-3.7863,-3.781,-3.7793,-3.7757,-3.7757,-3.7775,-3.788,-3.7897,-3.7949,-3.8122,-3.814,-3.8157,-3.8192,-3.8157,-3.8053,-3.788,-3.7504,-3.7166,-3.6974,-3.6893,-3.6911,-3.7048,-3.7069,-3.7147,-3.7374,-3.7337,-3.7374,-3.7466,-3.754,-3.7631,-3.7685,-3.7775,-3.7864,-3.7881,-3.7881,-3.7828,-3.7739,-3.7685,-3.7667,-3.731,-3.6916,-3.6445,-3.6964,-3.7019,-3.6985,-3.6771,-3.6378,-3.6325,-3.6218,-3.6164,-3.609,-3.6085,-3.6115,-3.591,-3.5512,-3.4526,-3.406,-3.3718,-3.355,-3.3442,-3.3415,-3.357,-3.3744,-3.3707,-3.3463,-3.2755,-3.1685,-3.0919,-3.0473,-3.0368,-3.0189,-2.9868,-2.9859,-2.9851,-2.9834,-2.9816,-2.9799,-2.9782,-2.9765,-2.9728,-2.9682,-2.9682,-2.9718,-2.9709,-2.9664,-2.9654,-2.9682,-2.9664,-2.9655,-2.9655,-2.9636,-2.9559,-2.947,-2.945,-2.9411,-2.9402,-3.5616,-3.5616,-3.5616,-3.5616,-3.5616,-3.56,-3.5639,-3.5661,-3.5734,-3.5861,-3.5937,-3.6019,-3.6216,-3.6591,-3.6913,-3.7223,-3.7522,-3.7739,-3.7775,-3.7649,-3.7577,-3.7522,-3.7448,-3.7448,-3.7503,-3.7667,-3.7703,-3.7774,-3.8002,-3.7984,-3.8054,-3.8089,-3.8038,-3.7915,-3.7846,-3.7298,-3.6873,-3.6615,-3.653,-3.653,-3.6612,-3.6696,-3.6836,-3.705,-3.7089,-3.7127,-3.7279,-3.7373,-3.743,-3.7504,-3.7613,-3.7739,-3.7811,-3.7846,-3.7793,-3.7703,-3.7685,-3.7649,-3.7559,-3.7578,-3.7578,-3.7577,-3.747,-3.747,-3.7578,-3.7453,-3.7256,-3.7024,-3.7256,-3.7399,-3.7344,-3.7091,-3.6745,-3.6149,-3.5164,-3.4431,-3.4108,-3.3696,-3.3628,-3.3358,-3.3491,-3.3689,-3.3759,-3.3634,-3.3152,-3.2372,-3.1525,-3.11,-3.0939,-3.0551,-3.0211,-3.0024,-3.0034,-2.9773,-2.9755,-2.9727,-2.9709,-2.9701,-2.9664,-2.9626,-2.9579,-2.9579,-2.957,-2.9531,-2.9551,-2.9589,-2.956,-2.9531,-2.9531,-2.9539,-2.947,-2.9409,-2.9388,-2.9388,-2.939,-3.5616,-3.5616,-3.5616,-3.5616,-3.5616,-3.5616,-3.5616,-3.56,-3.5644,-3.5689,-3.5734,-3.58,-3.6036,-3.636,-3.6652,-3.6954,-3.7242,-3.7428,-3.7446,-3.741,-3.7317,-3.7222,-3.7164,-3.7126,-3.7185,-3.7299,-3.7374,-3.7522,-3.7739,-3.7775,-3.7863,-3.7934,-3.7936,-3.7667,-3.7428,-3.7009,-3.6574,-3.6305,-3.6131,-3.6084,-3.6191,-3.6259,-3.6409,-3.6736,-3.6774,-3.6871,-3.7066,-3.7127,-3.7223,-3.728,-3.7393,-3.754,-3.7613,-3.7649,-3.7685,-3.7649,-3.7631,-3.7631,-3.7595,-3.7595,-3.7631,-3.7685,-3.7685,-3.7631,-3.7631,-3.7613,-3.7595,-3.7595,-3.7631,-3.7649,-3.7506,-3.7488,-3.72,-3.6626,-3.5803,-3.5121,-3.4655,-3.4173,-3.3862,-3.3417,-3.3331,-3.3671,-3.3837,-3.3925,-3.3556,-3.3285,-3.2529,-3.2034,-3.1808,-3.1176,-3.0713,-3.046,-3.0263,-2.9879,-2.9682,-2.9833,-2.9711,-2.957,-2.9569,-2.955,-2.9531,-2.9501,-2.9511,-2.9511,-2.9521,-2.9521,-2.9501,-2.9471,-2.9441,-2.9429,-2.9399,-2.9388,-2.9388,-2.9407,-2.9407,-3.5616,-3.5616,-3.5616,-3.5616,-3.5616,-3.5616,-3.5616,-3.5616,-3.5616,-3.5616,-3.5661,-3.5751,-3.5927,-3.6165,-3.6444,-3.6635,-3.6935,-3.7126,-3.7087,-3.7068,-3.6972,-3.6853,-3.6774,-3.6771,-3.6794,-3.6893,-3.7011,-3.7147,-3.7338,-3.7503,-3.7809,-3.806,-3.7949,-3.7794,-3.7453,-3.6975,-3.6364,-3.6045,-3.58,-3.5751,-3.58,-3.5849,-3.6002,-3.628,-3.6426,-3.6527,-3.6713,-3.6853,-3.6935,-3.6974,-3.711,-3.7299,-3.7373,-3.7466,-3.7558,-3.7577,-3.7595,-3.7595,-3.7595,-3.7595,-3.7613,-3.7613,-3.7595,-3.7595,-3.7595,-3.7595,-3.7595,-3.7595,-3.7595,-3.7595,-3.7613,-3.7667,-3.7471,-3.688,-3.6467,-3.5769,-3.5358,-3.491,-3.4106,-3.3647,-3.3247,-3.3605,-3.3895,-3.4068,-3.4027,-3.3814,-3.3577,-3.3098,-3.2606,-3.192,-3.1365,-3.1148,-3.0894,-3.0602,-3.03,-3.0141,-2.9914,-2.951,-2.9519,-2.9593,-2.948,-2.945,-2.947,-2.9471,-2.9461,-2.9451,-2.946,-2.945,-2.9512,-2.9483,-2.9388,-2.9388,-2.9388,-2.9537,-2.9704,-3.5616,-3.5616,-3.5616,-3.5616,-3.5616,-3.5616,-3.5616,-3.5616,-3.5616,-3.5616,-3.5639,-3.5751,-3.5861,-3.6041,-3.6335,-3.6506,-3.6612,-3.6834,-3.6774,-3.6673,-3.6612,-3.6489,-3.6385,-3.6339,-3.6402,-3.6464,-3.655,-3.6678,-3.6898,-3.7358,-3.7884,-3.8399,-3.8384,-3.8143,-3.7704,-3.7188,-3.6414,-3.5875,-3.5549,-3.5481,-3.5464,-3.5447,-3.565,-3.5871,-3.6019,-3.6088,-3.628,-3.6447,-3.655,-3.6676,-3.6876,-3.7106,-3.7241,-3.7354,-3.7466,-3.754,-3.7558,-3.7558,-3.7558,-3.7558,-3.7558,-3.7558,-3.7594,-3.7613,-3.7595,-3.7595,-3.7595,-3.7595,-3.7595,-3.7595,-3.7613,-3.7649,-3.7667,-3.7291,-3.6987,-3.654,-3.6182,-3.5521,-3.461,-3.3978,-3.3427,-3.3462,-3.3684,-3.3895,-3.4099,-3.4061,-3.3857,-3.3728,-3.3205,-3.2574,-3.2125,-3.2031,-3.1757,-3.1456,-3.1155,-3.0808,-3.0358,-3.0019,-2.9766,-2.9756,-2.9595,-2.9436,-2.9419,-2.9429,-2.9399,-2.9473,-2.9735,-2.9762,-2.9696,-2.9686,-3.001,-2.9834,-2.9965,-3.014,-3.0344,-3.5616,-3.5616,-3.5616,-3.5616,-3.5616,-3.5616,-3.5616,-3.5616,-3.5616,-3.5616,-3.5616,-3.5661,-3.5734,-3.5883,-3.6062,-3.6191,-3.6318,-3.6406,-3.6402,-3.636,-3.6318,-3.6212,-3.6105,-3.5997,-3.5993,-3.6019,-3.611,-3.6241,-3.6551,-3.7114,-3.8102,-3.8733,-3.8772,-3.8573,-3.8247,-3.7825,-3.6735,-3.5886,-3.5505,-3.5301,-3.5205,-3.5188,-3.5373,-3.5532,-3.5622,-3.5694,-3.5866,-3.6045,-3.6152,-3.6237,-3.6533,-3.6794,-3.6933,-3.7089,-3.7242,-3.7372,-3.7391,-3.7391,-3.741,-3.7429,-3.7449,-3.7485,-3.754,-3.7595,-3.7595,-3.7595,-3.7595,-3.7595,-3.7595,-3.7595,-3.7595,-3.7631,-3.7649,-3.747,-3.722,-3.7024,-3.6631,-3.6094,-3.5166,-3.4127,-3.358,-3.3421,-3.364,-3.3734,-3.3934,-3.4036,-3.4049,-3.4005,-3.3822,-3.3198,-3.2885,-3.2791,-3.2541,-3.2202,-3.1874,-3.1528,-3.1004,-3.0544,-3.0358,-3.0087,-2.9816,-2.9667,-2.9481,-2.9444,-2.9537,-2.9872,-3.0262,-3.0281,-3.0307,-3.0883,-3.1199,-3.079,-3.0549,-3.0846,-3.1076,-3.5616,-3.5616,-3.5616,-3.5616,-3.5616,-3.5616,-3.5616,-3.5616,-3.5616,-3.5616,-3.5616,-3.5616,-3.5644,-3.5711,-3.5883,-3.5971,-3.6036,-3.6148,-3.6148,-3.6058,-3.6053,-3.5927,-3.5795,-3.5706,-3.5661,-3.5661,-3.5689,-3.5788,-3.6254,-3.7339,-3.8408,-3.9141,-3.9143,-3.9003,-3.8688,-3.8101,-3.7253,-3.6451,-3.5849,-3.5404,-3.5157,-3.5058,-3.5135,-3.5234,-3.5281,-3.5373,-3.5481,-3.5689,-3.5778,-3.5866,-3.6216,-3.6468,-3.6673,-3.6933,-3.7091,-3.7222,-3.7204,-3.7204,-3.7241,-3.726,-3.7318,-3.7393,-3.7485,-3.754,-3.7577,-3.7595,-3.7595,-3.7595,-3.7595,-3.7595,-3.7595,-3.7595,-3.7595,-3.7577,-3.7488,-3.7381,-3.7006,-3.6595,-3.5578,-3.4398,-3.3868,-3.3628,-3.3604,-3.3692,-3.3762,-3.3908,-3.4036,-3.408,-3.4048,-3.3787,-3.3606,-3.3543,-3.3257,-3.294,-3.2612,-3.2266,-3.1808,-3.1396,-3.1154,-3.0827,-3.0326,-3.0028,-2.9935,-2.9834,-2.9741,-3.0188,-3.0716,-3.0995,-3.118,-3.1738,-3.2072,-3.1756,-3.1608,-3.1849,-3.205,-3.5616,-3.5616,-3.5616,-3.5616,-3.5616,-3.5616,-3.5616,-3.5616,-3.5616,-3.5616,-3.5616,-3.5616,-3.5616,-3.5644,-3.5734,-3.5795,-3.5822,-3.591,-3.591,-3.5773,-3.5773,-3.5701,-3.5605,-3.5452,-3.5406,-3.536,-3.5434,-3.5649,-3.6179,-3.7228,-3.8488,-3.9459,-3.9521,-3.9443,-3.9183,-3.856,-3.7852,-3.7319,-3.6687,-3.614,-3.5311,-3.5022,-3.4947,-3.5065,-3.5111,-3.5135,-3.5251,-3.5367,-3.5441,-3.5622,-3.5844,-3.6127,-3.6506,-3.6791,-3.6972,-3.7011,-3.6992,-3.6992,-3.7011,-3.705,-3.7185,-3.728,-3.7393,-3.7485,-3.754,-3.7595,-3.7595,-3.7595,-3.7595,-3.7595,-3.7595,-3.7595,-3.7595,-3.7595,-3.7541,-3.7488,-3.7327,-3.6809,-3.5971,-3.4916,-3.425,-3.3997,-3.3725,-3.3804,-3.3643,-3.3775,-3.3921,-3.4049,-3.4117,-3.4074,-3.4079,-3.4054,-3.3806,-3.3489,-3.3341,-3.2994,-3.2641,-3.2277,-3.1998,-3.1626,-3.1162,-3.079,-3.0437,-3.0474,-3.0549,-3.0753,-3.1143,-3.1571,-3.1998,-3.237,-3.2611,-3.2555,-3.2648,-3.2823,-3.2924,-3.5616,-3.5616,-3.5616,-3.5616,-3.5616,-3.5616,-3.5616,-3.5616,-3.5616,-3.5616,-3.5616,-3.5616,-3.5616,-3.5622,-3.5644,-3.5667,-3.5667,-3.5689,-3.5689,-3.5639,-3.5611,-3.5543,-3.5446,-3.5314,-3.5198,-3.5158,-3.5315,-3.5746,-3.6736,-3.7627,-3.8507,-3.9648,-3.9774,-3.9673,-3.9598,-3.9008,-3.8646,-3.8127,-3.7668,-3.6854,-3.5876,-3.5197,-3.4947,-3.497,-3.497,-3.497,-3.5065,-3.5111,-3.5182,-3.5274,-3.5532,-3.5893,-3.6322,-3.6547,-3.6629,-3.665,-3.667,-3.6652,-3.6693,-3.6794,-3.6972,-3.7166,-3.7299,-3.7448,-3.7558,-3.7577,-3.7595,-3.7595,-3.7595,-3.7595,-3.7595,-3.7595,-3.7595,-3.7595,-3.7595,-3.7595,-3.7595,-3.697,-3.6274,-3.5559,-3.4806,-3.4404,-3.4119,-3.3822,-3.3629,-3.3684,-3.3829,-3.3972,-3.4086,-3.4105,-3.416,-3.4153,-3.4172,-3.3968,-3.3826,-3.3677,-3.3287,-3.3039,-3.2778,-3.2388,-3.1961,-3.1645,-3.1366,-3.1403,-3.1496,-3.1645,-3.1942,-3.2462,-3.2871,-3.3101,-3.3268,-3.3287,-3.3412,-3.3573,-3.3673,-3.5616,-3.5616,-3.5616,-3.5616,-3.5616,-3.5616,-3.5616,-3.5616,-3.5616,-3.5616,-3.5616,-3.5616,-3.56,-3.56,-3.56,-3.5554,-3.5549,-3.5566,-3.5503,-3.5475,-3.5429,-3.536,-3.5268,-3.5158,-3.5105,-3.5058,-3.5117,-3.573,-3.7144,-3.7569,-3.8221,-3.9511,-3.9772,-3.9772,-3.972,-3.9547,-3.9292,-3.8807,-3.8437,-3.7599,-3.6506,-3.5827,-3.5164,-3.5081,-3.4899,-3.4899,-3.4923,-3.4994,-3.5041,-3.5182,-3.5441,-3.5694,-3.6023,-3.6255,-3.6356,-3.6377,-3.6377,-3.6377,-3.6419,-3.6506,-3.6696,-3.6933,-3.7147,-3.7298,-3.7485,-3.7522,-3.7595,-3.7595,-3.7595,-3.7595,-3.7595,-3.7595,-3.7595,-3.7595,-3.7595,-3.7595,-3.7595,-3.7327,-3.6702,-3.6113,-3.5558,-3.5305,-3.4902,-3.4274,-3.4111,-3.4083,-3.4179,-3.3976,-3.4055,-3.4117,-3.4173,-3.4216,-3.4216,-3.4216,-3.4086,-3.4011,-3.3881,-3.3677,-3.3466,-3.3094,-3.2685,-3.2481,-3.2314,-3.2165,-3.2184,-3.2432,-3.2785,-3.3187,-3.351,-3.3751,-3.3918,-3.4036,-3.4148,-3.4099,-3.3943,-3.5616,-3.5616,-3.5616,-3.5616,-3.5616,-3.5616,-3.5616,-3.5616,-3.56,-3.56,-3.5594,-3.5594,-3.5577,-3.5594,-3.5594,-3.5543,-3.5475,-3.5452,-3.5383,-3.5337,-3.5274,-3.5245,-3.5175,-3.5065,-3.4994,-3.4947,-3.4996,-3.5901,-3.7119,-3.7353,-3.7961,-3.9185,-3.9537,-3.959,-3.9501,-3.9475,-3.9305,-3.9103,-3.8676,-3.803,-3.7235,-3.6423,-3.5628,-3.5148,-3.4899,-3.4899,-3.4899,-3.4923,-3.4994,-3.5111,-3.5321,-3.5532,-3.5717,-3.5915,-3.5975,-3.6019,-3.6019,-3.6058,-3.6122,-3.6208,-3.6444,-3.669,-3.695,-3.72,-3.7389,-3.7502,-3.7576,-3.7631,-3.7631,-3.7595,-3.7595,-3.7595,-3.7595,-3.7595,-3.7595,-3.7595,-3.7595,-3.7577,-3.7095,-3.656,-3.6292,-3.6041,-3.5589,-3.4932,-3.4656,-3.4621,-3.4442,-3.4196,-3.4041,-3.4105,-3.4161,-3.4185,-3.4216,-3.4216,-3.4216,-3.4179,-3.4123,-3.4067,-3.3826,-3.3603,-3.3417,-3.3243,-3.3001,-3.2667,-3.276,-3.3101,-3.3343,-3.3658,-3.3993,-3.4179,-3.4154,-3.413,-3.4093,-3.4018,-3.3881,-3.5616,-3.5616,-3.5616,-3.56,-3.56,-3.5616,-3.5616,-3.5616,-3.56,-3.5554,-3.5543,-3.552,-3.5498,-3.5514,-3.5514,-3.5469,-3.5354,-3.5354,-3.5354,-3.5308,-3.5158,-3.5128,-3.5081,-3.4994,-3.4947,-3.4939,-3.5098,-3.5827,-3.697,-3.7243,-3.7866,-3.9269,-3.9369,-3.9379,-3.9352,-3.9342,-3.9325,-3.9199,-3.9116,-3.8593,-3.7765,-3.6837,-3.5694,-3.5214,-3.4899,-3.4899,-3.4899,-3.4899,-3.4923,-3.4994,-3.5111,-3.5304,-3.5464,-3.5577,-3.5622,-3.5667,-3.5667,-3.5689,-3.5773,-3.6024,-3.6298,-3.6634,-3.6937,-3.7286,-3.7447,-3.7551,-3.7626,-3.7701,-3.7684,-3.7613,-3.7595,-3.7595,-3.7595,-3.7595,-3.7595,-3.7595,-3.7595,-3.7595,-3.7398,-3.7041,-3.6756,-3.6559,-3.6361,-3.5744,-3.5189,-3.5069,-3.4823,-3.4564,-3.4218,-3.4178,-3.4185,-3.4173,-3.4216,-3.4216,-3.4216,-3.4216,-3.4179,-3.4197,-3.4179,-3.3956,-3.3881,-3.4011,-3.3763,-3.3354,-3.3473,-3.3826,-3.4048,-3.3993,-3.4074,-3.4173,-3.4117,-3.408,-3.403,-3.3941,-3.3788]},{"header":{"parameterUnit":"m.s-1","parameterCategory":1,"la1":31.0,"la2":29.5877,"lo1":-88.7671,"lo2":-86.6584,"dy":0.0162,"dx":0.0185,"nx":115,"ny":88,"refTime":"2026-03-06T00:00:00:Z","depth":0,"parameterNumber":3,"parameterNumberName":"V-component_of_WINDS"},"data":[0.0,0.0,0.0,0.0,0.0,0.0,0.0,0.0,0.0,0.0,0.0,0.0,0.0,0.0,0.0,0.0,0.0,0.0,0.0,0.0,0.0,0.0,0.0,0.0,0.0,0.0,0.0,0.0,0.0,0.0,0.0,0.0,0.0,0.0,0.0,0.0,0.0,0.0,0.0,0.0,0.0,0.0,0.0,0.0,0.0,0.0,0.0,0.0,0.0,0.0,0.0,0.0,0.0,0.0,0.0,0.0,0.0,0.0,0.0,0.0,0.0,0.0,0.0,0.0,0.0,0.0,0.0,0.0,0.0,0.0,0.0,0.0,0.0,0.0,0.0,0.0,0.0,0.0,0.0,0.0,0.0,0.0,0.0,0.0,0.0,0.0,0.0,0.0,0.0,0.0,0.0,0.0,0.0,0.0,0.0,0.0,0.0,0.0,0.0,0.0,0.0,0.0,0.0,0.0,0.0,0.0,0.0,0.0,0.0,0.0,0.0,0.0,0.0,0.0,0.0,0.0,0.0,0.0,0.0,0.0,0.0,0.0,0.0,0.0,0.0,0.0,0.0,0.0,0.0,0.0,0.0,0.0,0.0,0.0,0.0,0.0,0.0,0.0,0.0,0.0,0.0,0.0,0.0,0.0,0.0,0.0,0.0,0.0,0.0,0.0,0.0,0.0,0.0,0.0,0.0,0.0,0.0,0.0,0.0,0.0,0.0,0.0,0.0,0.0,0.0,0.0,0.0,0.0,0.0,0.0,0.0,0.0,0.0,0.0,0.0,0.0,0.0,0.0,0.0,0.0,0.0,0.0,0.0,0.0,0.0,0.0,0.0,0.0,0.0,0.0,0.0,0.0,0.0,0.0,0.0,0.0,0.0,0.0,0.0,0.0,0.0,0.0,0.0,0.0,0.0,0.0,0.0,0.0,0.0,0.0,0.0,0.0,0.0,0.0,0.0,0.0,0.0,0.0,0.0,0.0,0.0,0.0,0.0,0.0,0.0,0.0,0.0,0.0,0.0,0.0,0.0,0.0,0.0,0.0,0.0,0.0,0.0,0.0,0.0,0.0,0.0,0.0,0.0,0.0,0.0,0.0,0.0,0.0,0.0,0.0,0.0,0.0,0.0,0.0,0.0,0.0,0.0,0.0,0.0,0.0,0.0,0.0,0.0,0.0,0.0,0.0,0.0,0.0,0.0,0.0,0.0,0.0,0.0,0.0,0.0,0.0,0.0,0.0,0.0,0.0,0.0,0.0,0.0,0.0,0.0,0.0,0.0,0.0,0.0,0.0,0.0,0.0,0.0,0.0,0.0,0.0,0.0,0.0,0.0,0.0,0.0,0.0,0.0,0.0,0.0,0.0,0.0,0.0,0.0,0.0,0.0,0.0,0.0,0.0,0.0,0.0,0.0,0.0,0.0,0.0,0.0,0.0,0.0,0.0,0.0,0.0,0.0,0.0,0.0,0.0,0.0,0.0,0.0,0.0,0.0,0.0,0.0,0.0,0.0,0.0,0.0,0.0,0.0,0.0,0.0,0.0,0.0,0.0,0.0,0.0,0.0,0.0,0.0,0.0,0.0,0.0,0.0,0.0,0.0,0.0,0.0,0.0,0.0,0.0,0.0,0.0,0.0,0.0,0.0,0.0,0.0,0.0,0.0,0.0,0.0,0.0,0.0,0.0,0.0,0.0,0.0,0.0,0.0,0.0,0.0,0.0,0.0,0.0,0.0,0.0,0.0,0.0,0.0,0.0,0.0,0.0,0.0,0.0,0.0,0.0,0.0,0.0,0.0,0.0,0.0,0.0,0.0,0.0,0.0,0.0,0.0,0.0,0.0,0.0,0.0,0.0,0.0,0.0,0.0,0.0,0.0,0.0,0.0,0.0,0.0,0.0,0.0,0.0,0.0,0.0,0.0,0.0,0.0,0.0,0.0,0.0,0.0,0.0,0.0,0.0,0.0,0.0,0.0,0.0,0.0,0.0,0.0,0.0,0.0,0.0,0.0,0.0,0.0,0.0,0.0,0.0,0.0,0.0,0.0,0.0,0.0,0.0,0.0,0.0,0.0,0.0,0.0,0.0,0.0,0.0,0.0,0.0,0.0,0.0,0.0,0.0,0.0,0.0,0.0,0.0,0.0,0.0,0.0,0.0,0.0,0.0,0.0,0.0,0.0,0.0,0.0,0.0,0.0,0.0,0.0,0.0,0.0,0.0,0.0,0.0,0.0,0.0,0.0,0.0,0.0,0.0,0.0,0.0,0.0,0.0,0.0,0.0,0.0,0.0,0.0,0.0,0.0,0.0,0.0,0.0,0.0,0.0,0.0,0.0,0.0,0.0,0.0,0.0,0.0,0.0,0.0,0.0,0.0,0.0,0.0,0.0,0.0,0.0,0.0,0.0,0.0,0.0,0.0,0.0,0.0,0.0,0.0,0.0,0.0,0.0,0.0,0.0,0.0,0.0,0.0,0.0,0.0,0.0,0.0,0.0,0.0,0.0,0.0,0.0,0.0,0.0,0.0,0.0,0.0,0.0,0.0,0.0,0.0,0.0,0.0,0.0,0.0,0.0,0.0,0.0,0.0,0.0,0.0,0.0,0.0,0.0,0.0,0.0,0.0,0.0,0.0,0.0,0.0,0.0,0.0,0.0,0.0,0.0,0.0,0.0,0.0,0.0,0.0,0.0,0.0,0.0,0.0,0.0,0.0,0.0,0.0,0.0,0.0,0.0,0.0,0.0,0.0,0.0,0.0,0.0,0.0,0.0,0.0,0.0,0.0,0.0,0.0,0.0,0.0,0.0,0.0,0.0,0.0,0.0,0.0,0.0,0.0,0.0,0.0,0.0,0.0,0.0,0.0,0.0,0.0,0.0,0.0,0.0,0.0,0.0,0.0,0.0,0.0,0.0,0.0,0.0,0.0,0.0,0.0,0.0,0.0,0.0,0.0,0.0,0.0,0.0,0.0,0.0,0.0,0.0,0.0,0.0,0.0,0.0,0.0,0.0,0.0,0.0,0.0,0.0,0.0,0.0,0.0,0.0,0.0,0.0,0.0,0.0,0.0,0.0,0.0,0.0,0.0,0.0,0.0,0.0,0.0,0.0,0.0,0.0,0.0,0.0,0.0,0.0,0.0,0.0,0.0,0.0,0.0,0.0,0.0,0.0,0.0,0.0,0.0,0.0,0.0,0.0,0.0,0.0,0.0,0.0,0.0,0.0,0.0,0.0,0.0,0.0,0.0,0.0,0.0,0.0,0.0,0.0,0.0,0.0,0.0,0.0,0.0,0.0,0.0,0.0,0.0,0.0,0.0,0.0,0.0,0.0,0.0,0.0,0.0,0.0,0.0,0.0,0.0,0.0,0.0,0.0,0.0,0.0,0.0,0.0,0.0,0.0,0.0,0.0,0.0,0.0,0.0,0.0,0.0,0.0,0.0,0.0,0.0,0.0,0.0,0.0,0.0,0.0,0.0,0.0,0.0,0.0,0.0,0.0,0.0,0.0,0.0,0.0,0.0,0.0,0.0,0.0,0.0,0.0,0.0,0.0,0.0,0.0,0.0,0.0,0.0,0.0,0.0,0.0,0.0,0.0,0.0,0.0,0.0,0.0,0.0,0.0,0.0,0.0,0.0,0.0,0.0,0.0,0.0,0.0,0.0,0.0,0.0,0.0,0.0,0.0,0.0,0.0,0.0,0.0,0.0,0.0,0.0,0.0,0.0,0.0,0.0,0.0,0.0,0.0,0.0,0.0,0.0,0.0,0.0,0.0,0.0,0.0,0.0,0.0,0.0,0.0,0.0,0.0,0.0,0.0,0.0,0.0,0.0,0.0,0.0,0.0,0.0,0.0,0.0,0.0,0.0,0.0,0.0,0.0,0.0,0.0,0.0,0.0,0.0,0.0,0.0,0.0,0.0,0.0,0.0,0.0,0.0,0.0,0.0,0.0,0.0,0.0,0.0,0.0,0.0,0.0,0.0,0.0,0.0,0.0,0.0,0.0,0.0,0.0,0.0,0.0,0.0,0.0,0.0,0.0,0.0,0.0,0.0,0.0,0.0,0.0,0.0,0.0,0.0,0.0,0.0,0.0,0.0,0.0,0.0,0.0,0.0,0.0,0.0,0.0,0.0,0.0,0.0,0.0,0.0,0.0,0.0,0.0,0.0,0.0,0.0,0.0,0.0,0.0,0.0,0.0,0.0,0.0,0.0,0.0,0.0,0.0,0.0,0.0,0.0,0.0,0.0,0.0,0.0,0.0,0.0,0.0,0.0,0.0,0.0,0.0,0.0,0.0,0.3683,0.0,0.0,0.0,0.0,0.0,0.0,0.0,0.0,0.0,0.0,0.0,0.0,0.0,0.0,0.0,0.0,0.0,0.0,0.0,0.0,0.0,0.0,0.0,0.0,0.0,0.0,0.0,0.0,0.0,0.0,0.0,0.0,0.0,0.0,0.0,0.0,0.0,0.0,0.0,0.0,0.0,0.0,0.0,0.0,0.0,0.0,0.0,0.0,0.0,0.0,0.0,0.0,0.0,0.0,0.0,0.0,0.0,0.0,0.0,0.0,0.0,0.0,0.0,0.0,0.0,0.0,0.0,0.0,0.0,0.0,0.0,0.0,0.0,0.0,0.0,0.0,0.0,0.0,0.0,0.0,0.0,0.0,0.0,0.0,0.0,0.0,0.0,0.0,0.0,0.0,0.0,0.0,0.0,0.0,0.0,0.0,0.0,0.0,0.0,0.0,0.0,0.0,0.0,0.0,0.0,0.0,0.0,0.0,0.0,0.0,0.5309,0.4966,0.4373,0.375,0.3059,0.0,0.0,0.0,0.0,0.0,0.0,0.0,0.0,0.0,0.0,0.0,0.0,0.0,0.0,0.0,0.0,0.0,0.0,0.0,0.0,0.0,0.0,0.0,0.0,0.0,0.0,0.0,0.0,0.0,0.0,0.0,0.0,0.0,0.0,0.0,0.0,0.0,0.0,0.0,0.0,0.0,0.0,0.0,0.0,0.0,0.0,0.0,0.0,0.0,0.0,0.0,0.0,0.0,0.0,0.0,0.0,0.0,0.0,0.0,0.0,0.0,0.0,0.0,0.0,0.0,0.0,0.0,0.0,0.0,0.0,0.0,0.0,0.0,0.0,0.0,0.0,0.0,0.0,0.0,0.0,0.0,0.0,0.0,0.0,0.0,0.0,0.0,0.0,0.0,0.0,0.0,0.0,0.0,0.0,0.0,0.0,0.0,0.0,0.0,0.0,0.0,0.0,0.0,0.0,0.0,0.0,0.0,0.0,0.0,0.0,0.0,0.0,0.4116,0.3417,0.2418,0.0,0.0,0.0,0.0,0.0,0.0,0.0,0.0,0.0,0.0,0.0,0.0,0.0,0.0,0.0,0.0,0.0,0.0,0.0,0.0,0.0,0.0,0.0,0.0,0.0,0.0,0.0,0.0,0.0,0.0,0.0,0.0,0.0,0.0,0.0,0.0,0.0,0.0,0.0,0.0,0.0,0.0,0.0,0.0,0.0,0.0,0.0,0.0,0.0,0.0,0.0,0.0,0.0,0.0,0.0,0.0,0.0,0.0,0.0,0.0,0.0,0.0,0.0,0.0,0.0,0.0,0.0,0.0,0.0,0.0,0.0,0.0,0.0,0.0,0.0,0.0,0.0,0.0,0.0,0.0,0.0,0.0,0.0,0.0,0.0,0.0,0.0,0.0,0.0,0.0,0.0,0.0,0.0,0.0,0.0,0.0,0.0,0.0,0.0,0.0,0.0,0.0,0.0,0.0,0.0,0.0,0.0,0.0,0.0,0.0,0.4828,0.4176,0.3704,0.0,0.1785,0.0,0.0,0.0,0.0,0.0,0.0,0.0,0.0,0.0,0.0,0.0,0.0,0.0,0.0,0.0,0.0,0.0,0.0,0.0,0.0,0.0,0.0,0.0,0.0,0.0,0.0,0.0,0.0,0.0,0.0,0.0,0.0,0.0,0.0,0.0,0.0,0.0,0.0,0.0,0.0,0.0,0.0,0.0,0.0,0.0,0.0,0.0,0.0,0.0,0.0,0.0,0.0,0.0,0.0,0.0,0.0,0.0,0.0,0.0,0.0,0.0,0.0,0.0,0.0,0.0,0.0,0.0,0.0,0.0,0.0,0.0,0.0,0.0,0.0,0.0,0.0,0.0,0.0,0.0,0.0,0.0,0.0,0.0,0.0,0.0,0.0,0.0,0.0,0.0,0.0,0.0,0.0,0.0,0.0,0.0,0.0,0.0,0.0,0.0,0.0,0.0,0.0,0.0,0.0,0.0,0.0,0.0,0.0,0.0,0.0,0.4448,0.3947,0.3126,0.241,0.0,0.0,0.0,0.0,0.0,0.0,0.0,0.0,0.0,0.0,0.0,0.0,0.0,0.0,0.0,0.0,0.0,0.0,0.0,0.0,0.0,0.0,0.0,0.0,0.0,0.0,0.0,0.0,0.0,0.0,0.0,0.0,0.0,0.0,0.0,0.0,0.0,0.0,0.0,0.0,0.0,0.0,0.0,0.0,0.0,0.0,0.0,0.0,0.0,0.0,0.0,0.0,0.0,0.0,0.0,0.0,0.0,0.0,0.0,0.0,0.0,0.0,0.0,0.0,0.0,0.0,0.0,0.0,0.0,0.0,0.0,0.0,0.0,0.0,0.0,0.0,0.0,0.0,0.0,0.0,0.0,0.0,0.0,0.0,0.0,0.0,0.0,0.0,0.0,0.0,0.0,0.0,0.0,0.0,0.0,0.0,0.0,0.0,0.0,0.0,0.0,0.0,0.0,0.0,0.0,0.0,0.0,0.0,0.0,0.0,0.4542,0.397,0.3499,0.2648,0.205,0.1808,0.0,0.0,0.0,0.0,0.0,0.0,0.0,0.0,0.0,0.0,0.0,0.0,0.0,0.0,0.0,0.0,0.0,0.0,0.0,0.0,0.0,0.0,0.0,0.0,0.0,0.0,0.0,0.0,0.0,0.0,0.0,0.0,0.0,0.0,0.0,0.0,0.0,0.0,0.0,0.0,0.0,0.0,0.0,0.0,0.0,0.0,0.0,0.0,0.0,0.0,0.0,0.0,0.0,0.0,0.0,0.0,0.0,0.0,0.0,0.0,0.0,0.0,0.0,0.0,0.0,0.0,0.0,0.0,0.0,0.0,0.0,0.0,0.0,0.0,0.0,0.0,0.0,0.0,0.0,0.0,0.0,0.0,0.0,0.0,0.0,0.0,0.0,0.0,0.0,0.0,0.0,0.0,0.0,0.0,0.0,0.0,0.0,0.0,0.0,0.0,0.0,0.0,0.0,0.0,0.0,0.0,0.0,0.0,0.4631,0.4026,0.3416,0.278,0.2374,0.2084,0.0,0.0,0.0,0.0,0.0,0.0,0.0,0.0,0.0,0.0,0.0,0.0,0.0,0.0,0.0,0.0,0.0,0.0,0.0,0.0,0.0,0.0,0.0,0.0,0.0,0.0,0.0,0.0,0.0,0.0,0.0,0.0,0.0,0.0,0.0,0.0,0.0,0.0,0.0,0.0,0.0,0.0,0.0,0.0,0.0,0.0,0.0,0.0,0.0,0.0,0.0,0.0,0.0,0.0,0.0,0.0,0.0,0.0,0.0,0.0,0.0,0.0,0.0,0.0,0.0,0.0,0.0,0.0,0.0,0.0,0.0,0.0,0.0,0.0,0.0,0.0,0.0,0.0,0.0,0.0,0.0,0.0,0.0,0.0,0.0,0.0,0.0,0.0,0.0,0.0,0.0,0.0,0.0,0.0,0.0,0.0,0.0,0.0,0.0,0.0,0.0,0.0,0.0,0.0,0.0,0.0,0.0,0.0,0.0,0.42,0.3587,0.3128,0.2835,0.2425,0.2147,0.0,0.0,0.0,0.0,0.0,0.0,0.0,0.0,0.0,0.0,0.0,0.0,0.0,0.0,0.0,0.0,0.0,0.0,0.0,0.0,0.0,0.0,0.0,0.0,0.0,0.0,0.0,0.0,0.0,0.0,0.0,0.0,0.0,0.0,0.0,0.0,0.0,0.0,0.0,0.0,0.0,0.0,0.0,0.0,0.0,0.0,0.0,0.0,0.0,0.0,0.0,0.0,0.0,0.0,0.0,0.0,0.0,0.0,0.0,0.0,0.0,0.0,0.0,0.0,0.0,0.0,0.0,0.0,0.0,0.0,0.0,0.0,0.0,0.0,0.0,0.0,0.0,0.0,0.0,0.0,0.0,0.0,0.0,0.0,0.0,0.0,0.0,0.0,0.0,0.0,0.0,0.0,0.0,0.0,0.0,0.0,0.0,0.0,0.0,0.0,0.0,0.0,0.0,0.0,0.0,0.0,0.0,0.0,0.0,0.3675,0.0,0.2905,0.2868,0.2528,0.2293,0.0,0.0,0.0,0.0,0.0,0.0,0.0,0.0,0.0,0.0,0.0,0.0,0.0,0.0,0.0,0.0,0.0,0.0,0.0,0.0,0.0,0.0,0.0,0.0,0.0,0.0,0.0,0.0,0.0,0.0,0.0,0.0,0.0,0.0,0.0,0.0,0.0,0.0,0.0,0.0,0.0,0.0,0.0,0.0,0.0,0.0,0.0,0.0,0.0,0.0,0.0,0.0,0.0,0.0,0.0,0.0,0.0,0.0,0.0,0.0,0.0,0.0,0.0,0.0,0.0,0.0,0.0,0.0,0.0,0.0,0.0,0.0,0.0,0.0,0.0,0.0,0.0,0.0,0.0,0.0,0.0,0.0,0.0,0.0,0.0,0.0,0.0,0.0,0.0,0.0,0.0,0.0,0.0,0.0,0.0,0.0,0.0,0.0,0.0,0.0,0.0,0.0,0.0,0.0,0.0,0.0,0.0,0.0,0.3535,0.3035,0.2827,0.2759,0.2827,0.269,0.248,0.0,0.0,0.0,0.0,0.0,0.0,0.0,0.0,0.0,0.0,0.0,0.0,0.0,0.0,0.0,0.0,0.0,0.0,0.0,0.0,0.0,0.0,0.0,0.0,0.0,0.0,0.0,0.0,0.0,0.0,0.0,0.0,0.0,0.0,0.0,0.0,0.0,0.0,0.0,0.0,0.0,0.0,0.0,0.0,0.0,0.0,0.0,0.0,0.0,0.0,0.0,0.0,0.0,0.0,0.0,0.0,0.0,0.0,0.0,0.0,0.0,0.0,0.0,0.0,0.0,0.0,0.0,0.0,0.0,0.0,0.0,0.0,0.0,0.0,0.0,0.0,0.0,0.0,0.0,0.0,0.0,0.0,0.0,0.0,0.0,0.0,0.0,0.0,0.0,0.0,0.0,0.0,0.0,0.0,0.0,0.0,0.0,0.0,0.0,0.0,0.0,0.0,0.0,0.0,0.0,0.0,0.0,0.0,0.0,0.3334,0.3139,0.3105,0.3262,0.2866,0.264,0.0,0.0,0.0,0.0,0.0,0.0,0.0,0.0,0.0,0.0,0.0,0.0,0.0,0.0,0.0,0.0,0.0,0.0,0.0,0.0,0.0,0.0,0.0,0.0,0.0,0.0,0.0,0.0,0.0,0.0,0.0,0.0,0.0,0.0,0.0,0.0,0.0,0.0,0.0,0.0,0.0,0.0,0.0,0.0,0.0,0.0,0.0,0.0,0.0,0.0,0.0,0.0,0.0,0.0,0.0,0.0,0.0,0.0,0.0,0.0,0.0,0.0,0.0,0.0,0.0,0.0,0.0,0.0,0.0,0.0,0.0,0.0,0.0,0.0,0.0,0.0,0.0,0.0,0.0,0.0,0.0,0.0,0.0,0.0,0.0,0.0,0.0,0.0,0.0,0.0,0.0,0.0,0.0,0.0,0.0,0.0,0.0,0.0,0.0,0.0,0.0,0.0,0.0,0.0,0.0,0.0,0.0,0.0,0.0,0.3854,0.3546,0.3481,0.3653,0.3294,0.3019,0.2889,0.0,0.0,0.0,0.0,0.0,0.0,0.0,0.0,0.0,0.0,0.0,0.0,0.0,0.0,0.0,0.0,0.0,0.0,0.0,0.0,0.0,0.0,0.0,0.0,0.0,0.0,0.0,0.0,0.0,0.0,0.0,0.0,0.0,0.0,0.0,0.0,0.0,0.0,0.0,0.0,0.0,0.0,0.0,0.0,0.0,0.0,0.0,0.0,0.0,0.0,0.0,0.0,0.0,0.0,0.0,0.0,0.0,0.0,0.0,0.0,0.0,0.0,0.0,0.0,0.0,0.0,0.0,0.0,0.0,0.0,0.0,0.0,0.0,0.0,0.0,0.0,0.0,0.0,0.0,0.0,0.0,0.0,0.0,0.0,0.0,0.0,0.0,0.0,0.0,0.0,0.0,0.0,0.0,0.0,0.0,0.0,0.0,0.0,0.0,0.0,0.0,0.0,0.0,0.0,0.0,0.0,0.0,0.0,0.4525,0.4042,0.3832,0.3958,0.3849,0.3631,0.0,0.0,0.0,0.0,0.0,0.0,0.0,0.0,0.0,0.0,0.0,0.0,0.0,0.0,0.0,0.0,0.0,0.0,0.0,0.0,0.0,0.0,0.0,0.0,0.0,0.0,0.0,0.0,0.0,0.0,0.0,0.0,0.0,0.0,0.0,0.0,0.0,0.0,0.0,0.0,0.0,0.0,0.0,0.0,0.0,0.0,0.0,0.0,0.0,0.0,0.0,0.0,0.0,0.0,0.0,0.0,0.0,0.0,0.0,0.0,0.0,0.0,0.0,0.0,0.0,0.0,0.0,0.0,0.0,0.0,0.0,0.0,0.0,0.0,0.0,0.0,0.0,0.0,0.0,0.0,0.0,0.0,0.0,0.0,0.0,0.0,0.0,0.0,0.0,0.0,0.0,0.0,0.0,0.0,0.0,0.0,0.0,0.0,0.0,0.0,0.0,0.0,0.0,0.0,0.0,0.0,0.0,0.0,0.0,0.4947,0.4894,0.4784,0.4503,0.4164,0.3929,0.0,0.0,0.0,0.0,0.0,0.0,0.0,0.0,0.0,0.0,0.0,0.0,0.0,0.0,0.0,0.0,0.0,0.0,0.0,0.0,0.0,0.0,0.0,0.0,0.0,0.0,0.0,0.0,0.0,0.0,0.0,0.0,0.0,0.0,0.0,0.0,0.0,0.0,0.0,0.0,0.0,0.0,0.0,0.0,0.0,0.0,0.0,0.0,0.0,0.0,0.0,0.0,0.0,0.0,0.0,0.0,0.0,0.0,0.0,0.0,0.0,0.0,0.0,0.0,0.0,0.0,0.0,0.0,0.0,0.0,0.0,0.0,0.0,0.0,0.0,0.0,0.0,0.0,0.0,0.0,0.0,0.0,0.0,0.0,0.0,0.0,0.0,0.0,0.0,0.0,0.0,0.0,0.0,0.0,0.0,0.0,0.0,0.0,0.0,0.0,0.0,0.0,0.0,0.0,0.0,0.0,0.0,0.0,0.5351,0.5585,0.5724,0.5562,0.5074,0.4612,0.4256,0.0,0.0,0.0,0.0,0.0,0.0,0.0,0.0,0.0,0.0,0.0,0.0,0.0,0.0,0.0,0.0,0.0,0.0,0.0,0.0,0.0,0.0,0.0,0.0,0.0,0.0,0.0,0.0,0.0,0.0,0.0,0.0,0.0,0.0,0.0,0.0,0.0,0.0,0.0,0.0,0.0,0.0,0.0,0.0,0.0,0.0,0.0,0.0,0.0,0.0,0.0,0.0,0.0,0.0,0.0,0.0,0.0,0.0,0.0,0.0,0.0,0.0,0.0,0.0,0.0,0.0,0.0,0.0,0.0,0.0,0.0,0.0,0.0,0.0,0.0,0.0,0.0,0.0,0.0,0.0,0.0,0.0,0.0,0.0,0.0,0.0,0.0,0.0,0.0,0.0,0.0,0.0,0.0,0.0,0.0,0.0,0.0,0.0,0.0,0.0,0.0,0.0,0.0,0.0,0.0,0.0,0.0,0.0,0.6063,0.6328,0.6479,0.6231,0.5589,0.5115,0.4616,0.0,0.0,0.0,0.0,0.0,0.0,0.0,0.0,0.0,0.0,0.0,0.0,0.0,0.0,0.0,0.0,0.0,0.0,0.0,0.0,0.0,0.0,0.0,0.0,0.0,0.0,0.0,0.0,0.0,0.0,0.0,0.0,0.0,0.0,0.0,0.0,0.0,0.0,0.0,0.0,0.0,0.0,0.0,0.0,0.0,0.0,0.0,0.0,0.0,0.0,0.0,0.0,0.0,0.0,0.0,0.0,0.0,0.0,0.0,0.0,0.0,0.0,0.0,0.0,0.0,0.0,0.0,0.0,0.0,0.0,0.0,0.0,0.0,0.0,0.0,0.0,0.0,0.0,0.0,0.0,0.0,0.0,0.0,0.0,0.0,0.0,0.0,0.0,0.0,0.0,0.0,0.0,0.0,0.0,0.0,0.0,0.0,0.0,0.0,0.0,0.0,0.0,0.0,0.0,0.0,0.0,0.0,0.0,0.6566,0.6703,0.6828,0.6591,0.5993,0.5419,0.4867,0.0,0.0,0.0,0.0,0.0,0.0,0.0,0.0,0.0,0.0,0.0,0.0,0.0,0.0,0.0,0.0,0.0,0.0,0.0,0.0,0.0,0.0,0.0,0.0,0.0,0.0,0.0,0.0,0.0,0.0,0.0,0.0,0.0,0.0,0.0,0.0,0.0,0.0,0.0,0.0,0.0,0.0,0.0,0.0,0.0,0.0,0.0,0.0,0.0552,0.0,0.0,0.0,0.0,0.0,0.0,0.0,0.0,0.0,0.0,0.0,0.0,0.0,0.0,0.0,0.0,0.0,0.0,0.0,0.0,0.0,0.0,0.0,0.0,0.0,0.0,0.0,0.0,0.0,0.0,0.0,0.0,0.0,0.0,0.0,0.0,0.0,0.0,0.0,0.0,0.0,0.0,0.0,0.0,0.0,0.0,0.0,0.0,0.0,0.0,0.0,0.0,0.0,0.0,0.0,0.0,0.0,0.0,0.0,0.7122,0.7356,0.7422,0.7194,0.6584,0.603,0.5345,0.0,0.0,0.0,0.0,0.0,0.0,0.0,0.0,0.0,0.0,0.0,0.0,0.0,0.0,0.0,0.0,0.0,0.0,0.0,0.0,0.0,0.0,0.0,0.0,0.0,0.0,0.0,0.0,0.0,0.0,0.0,0.0,0.0,0.0,0.0,0.0,0.0,0.0,0.0,0.0,0.0,0.0,0.0,0.0,0.0,0.0,0.0,0.0,0.0,0.0,0.0,0.0,0.0,0.0,0.0,0.0,0.0,0.0,0.0,0.0,0.0,0.0,0.0,0.0,0.0,0.0,0.0,0.0,0.0,0.0,0.0,0.0,0.0,0.0,0.0,0.0,0.0,0.0,0.0,0.0,0.0,0.0,0.0,0.0,0.0,0.0,0.0,0.0,0.0,0.0,0.0,0.0,0.0,0.0,0.0,0.0,0.0,0.0,0.0,0.0,0.0,0.0,0.0,0.0,0.0,0.0,0.0,0.7065,0.7584,0.7999,0.8046,0.7774,0.719,0.6742,0.5922,0.4773,0.0,0.0,0.0,0.0,0.0,0.0,0.0,0.0,0.0,0.0,0.0,0.0,0.0,0.0,0.0,0.0,0.0,0.0,0.0,0.0,0.0,0.0,0.0,0.0,0.0,0.0,0.0,0.0,0.0,0.0,0.0,0.0,0.0,0.0,0.0,0.0,0.0,0.0,0.1356,0.1705,0.0,0.0,0.0,0.0,0.0,0.0,0.0,0.0,0.1074,0.0,0.0,0.0,0.0,0.0,0.0,0.0,0.0,0.0,0.0,0.0,0.0,0.0,0.0,0.0,0.0,0.0,0.0,0.0,0.0,0.0,0.0,0.0,0.0,0.0,0.0,0.0,0.0,0.0,0.0,0.0,0.0,0.0,0.0,0.0,0.0,0.0,0.0,0.0,0.0,0.0,0.0,0.0,0.0,0.0,0.0,0.0,0.0,0.0,0.0,0.0,0.0,0.0,0.0,0.0,0.0,0.6497,0.7305,0.7825,0.8091,0.8253,0.8028,0.7459,0.7106,0.6398,0.5321,0.0,0.0,0.0,0.0,0.0,0.0,0.0,0.0,0.0,0.0,0.0,0.0,0.0,0.0,0.0,0.0,0.0,0.0,0.0,0.0,0.0,0.0,0.0,0.0,0.0,0.0,0.0,0.0,0.0,0.0,0.0,0.0,0.0,0.0,0.0,0.0,0.0,0.0,0.0,0.1891,0.2024,0.0,0.0,0.0,0.0,0.0,0.0,0.0,0.0,0.1187,0.0,0.0,0.0,0.0,0.0,0.0,0.0,0.0,0.0,0.0,0.0,0.0,0.0,0.0,0.0,0.0,0.0,0.0,0.0,0.0,0.0,0.0,0.0,0.0,0.0,0.0,0.0,0.0,0.0,0.0,0.0,0.0,0.0,0.0,0.0,0.0,0.0,0.0,0.0,0.0,0.0,0.0,0.0,0.0,0.0,0.0,0.0,0.0,0.0,0.0,0.0,0.0,0.0,0.0,0.0,0.6724,0.753,0.8045,0.8254,0.8571,0.8463,0.8001,0.7623,0.6975,0.0,0.0,0.0,0.0,0.0,0.0,0.0,0.0,0.0,0.0,0.0,0.0,0.0,0.0,0.0,0.0,0.0,0.0,0.0,0.0,0.0,0.0,0.0,0.0,0.0,0.0,0.0,0.0,0.0,0.0,0.0,0.0,0.0,0.0,0.0,0.0,0.0,0.0,0.0,0.0,0.2364,0.2452,0.259,0.0,0.0,0.0,0.0,0.0,0.0,0.171,0.147,0.0,0.0,0.0,0.0,0.0,0.0,0.0,0.0,0.0,0.0,0.0,0.0,0.0,0.0,0.0,0.0,0.0,0.0,0.0,0.0,0.0,0.0,0.0,0.0,0.0,0.0,0.0,0.0,0.0,0.0,0.0,0.0,0.0,0.0,0.0,0.0,0.0,0.0,0.0,0.0,0.0,0.0,0.0,0.0,0.0,0.0,0.0,0.0,0.0,0.0,0.0,0.0,0.0,0.0,0.0,0.6853,0.7639,0.8134,0.831,0.8667,0.8714,0.8387,0.8,0.7317,0.0,0.0,0.0,0.0,0.0,0.0,0.0,0.0,0.0,0.0,0.0,0.0,0.0,0.0,0.0,0.0,0.0,0.0,0.0,0.0,0.0,0.0,0.0,0.0,0.0,0.0,0.0,0.0,0.0,0.0,0.0,0.0,0.0,0.0,0.0,0.0,0.0,0.0,0.0,0.0,0.0,0.284,0.2987,0.3014,0.0,0.0,0.0,0.0,0.2343,0.2034,0.0,0.0,0.0,0.0,0.0,0.0,0.0,0.0,0.0,0.0,0.0,0.0,0.0,0.0,0.0,0.0,0.0,0.0,0.0,0.0,0.0,0.0,0.0,0.0,0.0,0.0,0.0,0.0,0.0,0.0,0.0,0.0,0.0,0.0,0.0,0.0,0.0,0.0,0.0,0.0,0.0,0.0,0.0,0.0,0.0,0.0,0.0,0.0,0.0,0.0,0.0,0.0,0.0,0.0,0.0,0.0,0.6643,0.7433,0.7893,0.8054,0.8263,0.8348,0.8309,0.7812,0.7196,0.0,0.0,0.0,0.0,0.0,0.0,0.0,0.0,0.0,0.0,0.0,0.0,0.0,0.0,0.0,0.0,0.0,0.0,0.0,0.0,0.0,0.0,0.0,0.0,0.0,0.0,0.0,0.0,0.0,0.0,0.0,0.0,0.0,0.0,0.0,0.0,0.0,0.0,0.0,0.0,0.0,0.2869,0.3057,0.3057,0.2992,0.0,0.0,0.2821,0.2654,0.241,0.0,0.0,0.0,0.0,0.0,0.0,0.0,0.0,0.0,0.0,0.0,0.0,0.0,0.0,0.0,0.0,0.0,0.0,0.0,0.0,0.0,0.0,0.0,0.0,0.0,0.0,0.0,0.0,0.0,0.0,0.0,0.0,0.0,0.0,0.0,0.0,0.0,0.0,0.0,0.0,0.0,0.0,0.0,0.0,0.0,0.0,0.0,0.0,0.0,0.0,0.0,0.0,0.0,0.0,0.0,0.6318,0.6731,0.7521,0.7943,0.801,0.8528,0.8717,0.8596,0.8273,0.768,0.0,0.0,0.0,0.0,0.0,0.0,0.0,0.0,0.0,0.0,0.0,0.0,0.0,0.0,0.0,0.0,0.0,0.0,0.0,0.0,0.0,0.0,0.0,0.0,0.0,0.0,0.0,0.0,0.0,0.0,0.0,0.0,0.0,0.0,0.0,0.0,0.0,0.0,0.0,0.0,0.0,0.0,0.3352,0.3369,0.0,0.0,0.0,0.3139,0.2996,0.0,0.0,0.0,0.0,0.0,0.0,0.0,0.0,0.0,0.0,0.0,0.0,0.0,0.0,0.0,0.0,0.0,0.0,0.0,0.0,0.0,0.0,0.0,0.0,0.0,0.0,0.0,0.0,0.0,0.0,0.0,0.0,0.0,0.0,0.0,0.0,0.0,0.0,0.0,0.0,0.0,0.0,0.0,0.0,0.0,0.0,0.0,0.0,0.0,0.0,0.0,0.0,0.0,0.0,0.0,0.0,0.0,0.6791,0.7481,0.7903,0.8062,0.8664,0.8954,0.875,0.8516,0.0,0.0,0.0,0.0,0.0,0.0,0.0,0.0,0.0,0.0,0.0,0.0,0.0,0.0,0.0,0.0,0.0,0.0,0.0,0.0,0.0,0.0,0.0,0.0,0.0,0.0,0.0,0.1539,0.0,0.0,0.0,0.0,0.0,0.0,0.0,0.0,0.0,0.0,0.0,0.0,0.0,0.0,0.3305,0.355,0.3613,0.3613,0.0,0.0,0.341,0.3323,0.3035,0.2794,0.0,0.0,0.0,0.0,0.0,0.0,0.0,0.0,0.0,0.0,0.0,0.0,0.0,0.0,0.0,0.0,0.0,0.0,0.0,0.0,0.0,0.0,0.0,0.0,0.0,0.0,0.0,0.0,0.0,0.0,0.0,0.0,0.0,0.0,0.0,0.0,0.0,0.0,0.0,0.0,0.0,0.0,0.0,0.0,0.0,0.0,0.0,0.0,0.0,0.0,0.0,0.0,0.0,0.0,0.0,0.6777,0.7202,0.77,0.8149,0.8414,0.857,0.8615,0.8306,0.7744,0.0,0.0,0.0,0.0,0.0,0.0,0.0,0.0,0.0,0.0,0.0,0.0,0.0,0.0,0.0,0.0,0.0,0.0,0.0,0.0,0.0,0.0,0.0,0.0,0.0,0.0,0.0,0.0,0.0,0.0,0.0,0.0,0.0,0.0,0.0,0.0,0.0,0.0,0.0,0.0,0.0,0.3308,0.3578,0.3613,0.3613,0.0,0.0,0.358,0.3572,0.3263,0.2988,0.2981,0.0,0.0,0.0,0.0,0.0,0.0,0.0,0.0,0.0,0.0,0.0,0.0,0.0,0.0,0.0,0.0,0.0,0.0,0.0,0.0,0.0,0.0,0.0,0.0,0.0,0.0,0.0,0.0,0.0,0.0,0.0,0.0,0.0,0.0,0.0,0.0,0.0,0.0,0.0,0.0,0.0,0.0,0.0,0.0,0.0,0.0,0.0,0.0,0.0,0.0,0.0,0.0,0.0,0.6264,0.6793,0.7532,0.8001,0.8217,0.8713,0.8934,0.8775,0.8496,0.8012,0.0,0.0,0.0,0.0,0.0,0.0,0.0,0.0,0.0,0.0,0.0,0.0,0.0,0.0,0.0,0.0,0.0,0.0,0.0,0.0,0.0,0.0,0.0,0.0,0.0,0.0,0.0,0.0,0.2173,0.2167,0.2179,0.0,0.0,0.0,0.0,0.0,0.0,0.0,0.0,0.0,0.0,0.3308,0.355,0.3613,0.0,0.0,0.3613,0.3613,0.3613,0.3415,0.32,0.3129,0.2846,0.0,0.0,0.0,0.0,0.0,0.0,0.0,0.0,0.0,0.0,0.0,0.0,0.0,0.0,0.0,0.0,0.0,0.0,0.0,0.0,0.0,0.0,0.0,0.0,0.0,0.0,0.0,0.0,0.0,0.0,0.0,0.0,0.0,0.0,0.0,0.0,0.0,0.0,0.0,0.0,0.0,0.0,0.0,0.0,0.0,0.0,0.0,0.0,0.0,0.0,0.0,0.0,0.6296,0.6867,0.7596,0.8039,0.8196,0.877,0.8952,0.8729,0.8551,0.8089,0.0,0.0,0.0,0.0,0.0,0.0,0.0,0.0,0.0,0.0,0.0,0.0,0.0,0.0,0.0,0.0,0.0,0.0,0.0,0.0,0.0,0.0,0.0,0.0,0.0,0.0,0.0,0.0,0.229,0.2242,0.2296,0.0,0.0,0.0,0.0,0.0,0.0,0.0,0.0,0.0,0.0,0.3282,0.355,0.3613,0.3613,0.3613,0.3613,0.3613,0.3613,0.3479,0.3373,0.3286,0.0,0.0,0.0,0.0,0.0,0.0,0.0,0.0,0.0,0.0,0.0,0.0,0.0,0.0,0.0,0.0,0.0,0.0,0.0,0.0,0.0,0.0,0.0,0.0,0.0,0.0,0.0,0.0,0.0,0.0,0.4929,0.0,0.0,0.0,0.0,0.0,0.0,0.0,0.0,0.0,0.0,0.0,0.0,0.0,0.0,0.0,0.0,0.0,0.0,0.0,0.0,0.0,0.0,0.62,0.6976,0.7296,0.7672,0.8186,0.841,0.8474,0.8333,0.8303,0.791,0.7049,0.0,0.0,0.0,0.0,0.0,0.0,0.0,0.0,0.0,0.0,0.0,0.0,0.0,0.0,0.0,0.0,0.0,0.0,0.0,0.0,0.0,0.0,0.0,0.0,0.0,0.0,0.2677,0.2454,0.2301,0.0,0.0,0.0,0.0,0.0,0.0,0.0,0.0,0.0,0.0,0.3191,0.3282,0.355,0.3613,0.3613,0.3616,0.3616,0.3613,0.3588,0.3512,0.34,0.0,0.0,0.0,0.0,0.0,0.0,0.0,0.0,0.0,0.0,0.0,0.0,0.0,0.0,0.0,0.0,0.0,0.0,0.0,0.0,0.0,0.0,0.0,0.0,0.0,0.0,0.0,0.7346,0.6852,0.0,0.0,0.0,0.0,0.0,0.0,0.0,0.0,0.0,0.0,0.0,0.8471,0.8483,0.0,0.0,0.0,0.0,0.0,0.0,0.0,0.0,0.0,0.0,0.0,0.0,0.6571,0.7055,0.7499,0.7852,0.812,0.8451,0.8526,0.8297,0.8291,0.7833,0.6911,0.0,0.0,0.0,0.0,0.0,0.0,0.0,0.0,0.0,0.0,0.0,0.0,0.0,0.0,0.0,0.0,0.0,0.0,0.0,0.0,0.0,0.0,0.0,0.0,0.0,0.2794,0.0,0.0,0.0,0.0,0.0,0.0,0.0,0.0,0.0,0.0,0.0,0.3021,0.3199,0.3286,0.34,0.3589,0.3613,0.3638,0.0,0.0,0.0,0.0,0.0,0.0,0.0,0.0,0.0,0.0,0.0,0.0,0.0,0.0,0.1201,0.1114,0.1061,0.1031,0.1031,0.0,0.0,0.0,0.0,0.0,0.0,0.0,0.0,0.0,0.0,0.0,0.0,0.0,0.0,0.867,0.0,0.8019,0.0,0.0,0.0,0.0,0.0,0.0,0.0,0.0,0.8727,0.9144,0.9608,0.9615,0.9544,0.0,0.9151,0.8631,0.0,0.0,0.0,0.0,0.0,0.0,0.0,0.0,0.6943,0.7362,0.775,0.8085,0.8315,0.8472,0.8465,0.8297,0.8139,0.7743,0.7101,0.6637,0.6169,0.0,0.0,0.0,0.0,0.0,0.0,0.0,0.0,0.0,0.0,0.0,0.0,0.0,0.0,0.0,0.0,0.0,0.0,0.0,0.0,0.0,0.0,0.0,0.2942,0.0,0.0,0.0,0.0,0.0,0.0,0.0,0.0,0.0,0.293,0.2978,0.3096,0.3319,0.3376,0.346,0.3649,0.0,0.0,0.0,0.0,0.0,0.0,0.0,0.3558,0.3479,0.3463,0.3308,0.2854,0.2281,0.188,0.1812,0.0,0.0,0.1387,0.1334,0.128,0.1286,0.1231,0.1237,0.1345,0.1356,0.1387,0.0,0.0,0.0,0.0,0.0,0.0,0.0,0.0,1.0021,0.992,0.0,0.9548,0.0,0.0,0.0,0.0,0.0,0.8383,0.0,0.0,0.9587,0.9843,1.0241,1.0277,1.0249,1.0249,1.0105,1.0005,0.9914,0.812,0.0,0.0,0.0,0.0,0.0,0.0,0.7327,0.7897,0.805,0.8321,0.8686,0.8463,0.8325,0.8307,0.7866,0.7613,0.7571,0.6842,0.6436,0.6384,0.554,0.0,0.0,0.0,0.0,0.0,0.0,0.0,0.0,0.0,0.0,0.0,0.0,0.0,0.0,0.0,0.0,0.0,0.0,0.0,0.0,0.3214,0.0,0.0,0.0,0.0,0.0,0.0,0.0,0.0,0.0,0.0,0.3072,0.3027,0.3166,0.3534,0.0,0.0,0.0,0.0,0.3593,0.3599,0.3591,0.3613,0.3593,0.3588,0.3613,0.361,0.0,0.0,0.2986,0.2465,0.2069,0.2002,0.1833,0.1664,0.1522,0.1512,0.1493,0.1414,0.1378,0.1434,0.1482,0.1474,0.1499,1.1685,0.0,0.0,0.0,0.0,1.0883,1.0916,1.0923,1.1009,1.0902,1.0717,1.064,0.0,0.0,0.0,0.0,0.0,0.0,1.0458,1.1002,1.1353,1.1606,1.1833,1.1609,1.1493,1.1479,1.1007,1.0731,1.0621,0.9749,0.885,0.801,0.0,0.0,0.0,0.0,0.8141,0.8397,0.8614,0.8812,0.8909,0.898,0.8849,0.8515,0.8048,0.775,0.7601,0.7275,0.693,0.6561,0.6069,0.0,0.0,0.0,0.0,0.0,0.0,0.0,0.0,0.0,0.0,0.0,0.0,0.0,0.0,0.0,0.0,0.0,0.0,0.0,0.3434,0.3464,0.3442,0.0,0.0,0.0,0.0,0.0,0.0,0.0,0.0,0.0,0.3761,0.359,0.3468,0.0,0.0,0.3776,0.3873,0.381,0.3764,0.3822,0.3694,0.0,0.0,0.3668,0.3613,0.3613,0.3358,0.3118,0.2936,0.2511,0.2106,0.1953,0.1811,0.1662,0.154,0.1597,0.1601,0.1576,0.1505,0.1466,0.1444,0.1502,0.1594,1.2893,1.2234,1.1917,1.1812,1.1925,1.204,1.213,1.2215,1.2324,1.2213,1.1876,1.184,1.1492,1.096,1.0843,0.0,0.0,0.0,1.1528,1.1916,1.2169,1.2357,1.2477,1.228,1.2193,1.2171,1.1706,1.1427,1.1334,1.0796,1.0193,0.9465,0.0,0.0,0.8484,0.8781,0.9045,0.924,0.932,0.9394,0.9508,0.9345,0.9068,0.8683,0.8304,0.8081,0.7985,0.7647,0.7291,0.6992,0.6435,0.5819,0.0,0.0,0.0,0.0,0.0,0.0,0.0,0.0,0.0,0.0,0.0,0.3286,0.3234,0.0,0.0,0.0,0.3484,0.3537,0.3648,0.3694,0.0,0.0,0.0,0.0,0.0,0.0,0.0,0.3965,0.399,0.4077,0.418,0.4064,0.4,0.3986,0.4084,0.4136,0.4097,0.0,0.3869,0.3882,0.3708,0.361,0.3704,0.3657,0.3613,0.3613,0.3369,0.3115,0.2952,0.2622,0.2295,0.2098,0.192,0.178,0.1703,0.1719,0.1668,0.1546,0.1491,0.1466,0.1475,0.1564,0.1603,1.4001,1.3633,1.2832,1.2594,1.2783,1.3051,1.3244,1.3463,1.3776,1.354,1.2977,1.2942,1.2628,1.2086,1.2058,0.0,1.2086,1.2052,1.2203,1.2395,1.2402,1.2463,1.2558,1.2543,1.2529,1.2521,1.2193,1.2025,1.1967,1.1443,1.1106,1.0934,1.0286,0.9909,0.984,0.9831,0.9958,1.0211,1.0086,1.0096,1.0312,0.9594,0.9119,0.8871,0.8568,0.8474,0.8613,0.7953,0.761,0.7607,0.6771,0.6066,0.5538,0.0,0.0,0.0,0.0,0.0,0.0,0.0,0.0,0.0,0.0,0.0,0.0,0.0,0.0,0.0,0.4128,0.0,0.3791,0.3889,0.0,0.0,0.0,0.4183,0.426,0.4494,0.4618,0.4565,0.0,0.0,0.4428,0.457,0.4674,0.47,0.4594,0.4501,0.444,0.4176,0.399,0.385,0.3684,0.361,0.3624,0.3588,0.3613,0.361,0.3482,0.3292,0.3037,0.2806,0.2558,0.2299,0.2065,0.1895,0.1986,0.1876,0.1687,0.1475,0.1439,0.1471,0.156,0.1593,0.1658,1.476,1.4653,1.4394,1.3892,1.3343,1.3606,1.3719,1.3804,1.3881,1.3825,1.3631,1.3551,1.3243,1.2738,1.2492,1.2521,1.2752,1.2752,1.2925,1.3186,1.3193,1.3229,1.325,1.3016,1.2892,1.287,1.2562,1.2244,1.2003,1.185,1.1653,1.1419,1.1247,1.0815,1.0134,1.0307,1.046,1.0507,1.0712,1.0715,1.0512,0.9926,0.9475,0.926,0.8904,0.8771,0.8903,0.8638,0.8315,0.7912,0.7402,0.6696,0.5711,0.54,0.0,0.0,0.0,0.0,0.0,0.0,0.0,0.0,0.0,0.3925,0.4075,0.0,0.4154,0.0,0.4423,0.4474,0.4384,0.4504,0.0,0.0,0.4644,0.4751,0.4893,0.4946,0.5018,0.5089,0.5151,0.5177,0.5282,0.5331,0.5401,0.5483,0.4962,0.4559,0.4559,0.4336,0.408,0.3981,0.3855,0.3719,0.361,0.3613,0.3613,0.3613,0.3482,0.3321,0.3026,0.2864,0.2629,0.2317,0.2095,0.1952,0.187,0.1736,0.1619,0.1564,0.1608,0.1634,0.1596,0.1651,0.1693,1.5429,1.5486,1.542,1.5042,1.4426,1.4422,1.4486,1.4567,1.4567,1.4488,1.4331,1.4139,1.3921,1.3653,1.3462,1.3411,1.344,1.3448,1.3462,1.3492,1.3492,1.3492,1.3484,1.3309,1.3221,1.3214,1.2892,1.2536,1.2222,1.2076,1.1867,1.1599,1.1591,1.1346,1.0839,1.0959,1.1052,1.1045,1.1162,1.1068,1.0831,1.0357,0.9988,0.9714,0.9364,0.9198,0.9192,0.8949,0.8696,0.8373,0.7959,0.7342,0.6506,0.6048,0.5642,0.0,0.0,0.0,0.0,0.0,0.0,0.0,0.0,0.0,0.0,0.0,0.45,0.4686,0.4857,0.4946,0.4923,0.4974,0.5016,0.5039,0.5088,0.5188,0.5359,0.552,0.5649,0.5729,0.5751,0.5775,0.5817,0.5742,0.5701,0.5781,0.5351,0.4997,0.4904,0.4641,0.4371,0.4187,0.3965,0.3771,0.361,0.3613,0.3613,0.3608,0.3556,0.3425,0.3207,0.3026,0.2829,0.2566,0.2357,0.2199,0.2118,0.1931,0.1773,0.1777,0.1748,0.1721,0.1669,0.1683,0.1711,1.592,1.6063,1.6034,1.5883,1.5612,1.5339,1.5258,1.5389,1.5389,1.5199,1.4885,1.4655,1.4548,1.4504,1.4504,1.435,1.4048,1.3996,1.3828,1.3565,1.3514,1.3492,1.3492,1.3492,1.3492,1.3477,1.3206,1.2842,1.2485,1.22,1.1911,1.1606,1.1591,1.1591,1.1591,1.1591,1.1591,1.1591,1.1435,1.1257,1.109,1.0821,1.0481,1.0108,0.9869,0.9634,0.942,0.9141,0.8934,0.8799,0.8383,0.7932,0.7427,0.6802,0.6328,0.0,0.551,0.0,0.0,0.0,0.0,0.0,0.0,0.0,0.0,0.4793,0.4899,0.5148,0.5327,0.5398,0.5349,0.5372,0.5385,0.539,0.546,0.5615,0.5772,0.6077,0.6295,0.6357,0.638,0.6318,0.6198,0.6023,0.5925,0.5937,0.5808,0.5616,0.5433,0.5042,0.4679,0.4452,0.4066,0.3771,0.3666,0.361,0.3613,0.3613,0.3608,0.3557,0.3408,0.3239,0.3044,0.2907,0.2649,0.2486,0.2493,0.2237,0.2012,0.1978,0.1899,0.1803,0.1733,0.1721,0.1736,1.5839,1.5859,1.6031,1.6046,1.6,1.5806,1.563,1.5389,1.5389,1.5206,1.49,1.4842,1.4714,1.4518,1.4504,1.4474,1.4401,1.4137,1.3983,1.3917,1.3616,1.3492,1.3492,1.3492,1.3492,1.3492,1.3433,1.3097,1.2526,1.2426,1.2131,1.1606,1.1591,1.1591,1.1591,0.0,0.0,0.0,1.1567,1.1405,1.1119,1.1054,1.0704,1.0138,1.0051,0.0,0.9577,0.9504,0.9256,0.8827,0.8608,0.0,0.0,0.0,0.0,0.0,0.0,0.0,0.0,0.0,0.0,0.0,0.5462,0.5339,0.5211,0.533,0.5462,0.5494,0.5541,0.5555,0.553,0.5705,0.5798,0.5812,0.6093,0.6314,0.636,0.6548,0.6698,0.6696,0.6705,0.6705,0.6671,0.6638,0.6611,0.6558,0.6356,0.6178,0.6096,0.5466,0.4901,0.4528,0.4119,0.3796,0.3744,0.3666,0.3613,0.3613,0.3613,0.3557,0.3444,0.3246,0.3077,0.2944,0.2691,0.2521,0.2493,0.2324,0.2128,0.2015,0.1959,0.193,0.1808,0.1779,0.1783,1.6069,0.0,1.6467,1.6458,0.0,1.6161,1.5957,1.5615,1.5455,1.5301,1.5148,1.5141,1.5053,1.494,1.494,1.486,1.4699,1.4531,1.4282,1.4012,1.3814,1.3653,1.3492,1.3492,1.3492,1.3492,1.3492,1.3243,1.2775,1.2565,1.2277,1.1794,1.1672,1.1591,1.1591,1.1591,1.1591,1.1591,1.1591,1.1511,1.1357,1.1349,1.1034,1.0375,0.0,0.0,0.0,0.0,0.0,0.0,0.0,0.0,0.0,0.0,0.0,0.7683,0.7382,0.7074,0.6821,0.6476,0.6185,0.5927,0.5899,0.5758,0.5472,0.5637,0.5802,0.5885,0.5979,0.6078,0.6186,0.629,0.6351,0.636,0.6539,0.6661,0.668,0.6875,0.6972,0.6972,0.6972,0.7007,0.7002,0.6882,0.6796,0.6787,0.6677,0.6483,0.6286,0.5746,0.5183,0.4688,0.438,0.4045,0.3852,0.3744,0.3694,0.361,0.3613,0.3585,0.3502,0.336,0.319,0.3021,0.2828,0.2691,0.2607,0.2437,0.2296,0.2156,0.2043,0.1959,0.1824,0.1797,0.1797,1.6265,1.6494,1.6831,1.6782,1.6511,1.6504,1.6287,1.5891,0.0,0.0,0.0,1.5389,1.5389,1.5389,1.5389,1.5243,1.4988,1.4929,1.4586,1.4108,1.4004,1.3814,1.3499,1.3492,1.3492,1.3492,1.3492,1.3331,1.3001,1.268,1.2324,1.1996,1.1721,1.1591,1.1591,1.1591,1.1591,1.1591,1.1591,1.1591,1.1591,1.1591,1.1305,1.0718,1.0616,1.0309,0.9731,0.9617,0.9543,0.9413,0.9413,0.929,0.9047,0.8827,0.8614,0.8392,0.7932,0.7535,0.7272,0.6849,0.647,0.6147,0.6231,0.6139,0.5755,0.5913,0.612,0.6299,0.6464,0.6628,0.6777,0.6791,0.6791,0.6791,0.6824,0.6878,0.6892,0.7088,0.7247,0.7242,0.7247,0.7242,0.7232,0.7078,0.6934,0.693,0.6911,0.6719,0.6347,0.5881,0.5403,0.4908,0.4629,0.438,0.4045,0.3824,0.3771,0.3663,0.3641,0.3613,0.3585,0.3502,0.333,0.3132,0.2996,0.286,0.2719,0.2607,0.2493,0.2268,0.2156,0.2043,0.1908,0.1909,0.1908,1.5872,1.5967,1.6447,1.6655,1.6591,1.674,1.6455,1.5899,1.557,1.5389,1.5389,1.5389,1.5389,1.5389,1.5389,1.5367,1.5309,1.5024,1.475,0.0,1.4144,1.3806,1.3499,1.3492,1.3492,1.3492,1.3492,1.3331,1.3009,1.268,1.2324,1.201,1.1721,1.1591,1.1591,1.1591,1.1591,1.1591,1.1591,1.1591,1.1591,1.1591,1.1415,1.1019,1.0733,1.0419,1.0046,0.9741,0.9536,0.9413,0.9413,0.9335,0.9185,0.9117,0.9096,0.9044,0.8776,0.8495,0.8201,0.767,0.7155,0.6751,0.6716,0.6529,0.6172,0.644,0.6674,0.6707,0.673,0.6754,0.6791,0.681,0.6819,0.685,0.7017,0.7147,0.7147,0.7318,0.7437,0.7437,0.7446,0.7441,0.7427,0.7403,0.737,0.737,0.7158,0.6965,0.6508,0.5965,0.5525,0.5242,0.4912,0.4632,0.4377,0.4045,0.3852,0.3771,0.3691,0.3613,0.3613,0.3502,0.3357,0.3132,0.3026,0.2888,0.2747,0.2691,0.2633,0.2493,0.2436,0.2352,0.2184,0.2298,0.2326,1.5825,1.5872,1.6353,1.6588,1.6601,1.6624,1.6338,1.5856,1.5528,1.5389,1.5389,1.5389,1.5389,1.5389,1.5389,1.5389,1.5382,1.5236,1.494,1.4511,1.435,1.3982,1.3521,1.3492,1.3492,1.3492,1.3492,1.3418,1.3258,1.2943,1.2674,1.2499,1.2065,1.176,1.1599,1.1591,1.1591,1.1591,1.1591,1.1591,1.1591,1.1591,1.1437,1.1114,1.0953,1.0697,1.0382,1.0221,1.0033,0.9778,0.9771,0.9672,0.9427,0.9413,0.9387,0.9316,0.9061,0.8871,0.8747,0.8153,0.7658,0.7274,0.716,0.7027,0.6782,0.677,0.6843,0.7007,0.7017,0.7064,0.7163,0.7182,0.7182,0.7182,0.7304,0.7351,0.7361,0.7422,0.7489,0.7493,0.7493,0.7493,0.7493,0.7493,0.7493,0.7465,0.7237,0.6887,0.6665,0.6229,0.5814,0.5513,0.5215,0.4884,0.4574,0.4242,0.3993,0.3852,0.3688,0.3613,0.3613,0.3557,0.3444,0.3302,0.3221,0.3109,0.2968,0.294,0.2854,0.2768,0.2713,0.2657,0.2547,0.2745,0.2882,1.5825,1.5872,1.6305,1.6588,1.6673,1.6458,1.6279,1.5987,1.5557,1.5389,1.5389,1.5389,1.5389,1.5389,1.5389,1.5389,1.5389,1.5389,1.5087,1.4548,1.4504,1.4159,1.3543,1.3492,1.3492,1.3492,1.3492,1.3492,1.3455,1.317,1.2972,1.2848,1.2288,1.1911,1.1701,1.1635,1.1591,1.1591,1.1591,1.1591,1.1591,1.1591,1.1467,1.1239,1.1136,1.099,1.0719,1.0624,1.047,1.0228,1.0214,1.0089,0.9855,0.9826,0.978,0.9654,0.9448,0.9248,0.9082,0.8586,0.814,0.7811,0.7654,0.7535,0.731,0.7119,0.705,0.7264,0.7256,0.7318,0.7441,0.7479,0.7493,0.7493,0.7493,0.7479,0.7489,0.7493,0.7493,0.7493,0.7493,0.7493,0.7493,0.7493,0.7493,0.7446,0.7144,0.6897,0.6768,0.6468,0.6142,0.5768,0.5513,0.5215,0.4739,0.4436,0.4187,0.3962,0.3774,0.3694,0.3638,0.3638,0.3557,0.3416,0.3388,0.3302,0.316,0.3132,0.3105,0.3049,0.3049,0.3077,0.3051,0.3327,0.3522,1.5825,1.5832,1.6123,1.6508,1.6908,1.6562,1.6389,1.6235,1.5687,1.5389,1.5389,1.5389,1.5389,1.5389,1.5389,1.5389,1.5389,1.5389,1.5087,1.457,1.4504,1.4128,1.3543,1.3499,1.3492,1.3492,1.3492,1.3492,1.3477,1.3177,1.2862,1.2562,1.2171,1.201,1.193,1.1714,1.1599,1.1591,1.1591,1.1591,1.1591,1.1591,1.1577,1.1547,1.1261,1.1092,1.1056,1.077,1.058,1.0572,1.0572,1.0528,1.0513,1.0485,1.0492,1.0456,1.035,1.0036,0.9488,0.9065,0.8698,0.8334,0.8191,0.8001,0.7687,0.7608,0.7571,0.752,0.7488,0.7493,0.7517,0.7493,0.7493,0.7493,0.7493,0.7493,0.7493,0.7493,0.7493,0.7493,0.7493,0.7493,0.7493,0.7493,0.7493,0.7521,0.7285,0.7031,0.6835,0.6614,0.6346,0.6023,0.5732,0.5485,0.5183,0.4767,0.4487,0.4408,0.4049,0.3855,0.3799,0.3691,0.3557,0.3555,0.3444,0.3385,0.3302,0.3246,0.3385,0.3441,0.3497,0.361,0.3802,0.4015,0.4098,1.5825,1.5832,1.6076,1.6508,1.6893,1.6555,1.6411,1.6345,1.5701,1.5389,1.5389,1.5389,1.5389,1.5389,1.5389,1.5389,1.5389,1.5389,1.5141,1.475,1.4599,1.4223,1.3806,1.3579,1.3492,1.3492,1.3492,1.3492,1.347,1.336,1.3126,1.2833,1.2638,1.2485,1.2288,1.1999,1.1838,1.1838,1.1687,1.1591,1.1591,1.1591,1.1591,1.1577,1.1467,1.1393,1.1386,1.1261,1.1107,1.0931,1.0872,1.0821,1.0623,1.058,1.058,1.0594,1.0624,1.0401,0.9903,0.9771,0.9493,0.8989,0.8698,0.8409,0.8014,0.7824,0.7666,0.7629,0.7526,0.7493,0.7493,0.7493,0.7493,0.7493,0.7493,0.7493,0.7493,0.7493,0.7493,0.7493,0.7493,0.7493,0.7493,0.7493,0.7493,0.747,0.735,0.7123,0.6854,0.6638,0.6403,0.617,0.595,0.5677,0.538,0.5073,0.4822,0.4605,0.4301,0.4049,0.4024,0.3941,0.3802,0.3747,0.3747,0.3719,0.3688,0.3774,0.3885,0.3913,0.4107,0.4301,0.4491,0.4704,0.4842,1.5825,1.5832,1.617,1.6548,1.6868,1.6555,1.6411,1.6287,1.5701,1.5389,1.5389,1.5389,1.5389,1.5389,1.5389,1.5389,1.5389,1.5389,1.5214,1.4907,1.4699,1.4377,1.3989,1.3755,1.3579,1.3506,1.3492,1.3492,1.3492,1.3492,1.3375,1.3162,1.3053,1.2899,1.2616,1.2302,1.2135,1.2105,1.1853,1.1692,1.1716,1.1643,1.1591,1.1591,1.1591,1.1591,1.1591,1.1591,1.1489,1.1254,1.1239,1.1136,1.0909,1.085,1.0858,1.0872,1.092,1.0807,1.0455,1.041,1.0142,0.9626,0.9215,0.8823,0.8468,0.8112,0.7889,0.7824,0.7657,0.7559,0.7493,0.7493,0.7493,0.7493,0.7493,0.7493,0.7493,0.7493,0.7493,0.7493,0.7493,0.7493,0.7493,0.7493,0.7493,0.7474,0.737,0.7199,0.6979,0.6809,0.66,0.6337,0.6197,0.5977,0.5584,0.5348,0.5152,0.4908,0.4605,0.4408,0.4332,0.4218,0.4132,0.4104,0.4132,0.4135,0.4104,0.4245,0.4439,0.4519,0.4712,0.4932,0.5066,0.5281,0.5449,1.5825,1.5872,1.6346,1.6588,1.6626,1.6465,1.6411,1.6367,1.5659,1.5389,1.5389,1.5389,1.5389,1.5389,1.5389,1.5389,1.5389,1.5389,1.5221,1.4944,1.4878,1.4582,1.4049,1.4005,1.3836,1.355,1.3499,1.3492,1.3492,1.3492,1.3484,1.3448,1.3177,1.3016,1.2943,1.2623,1.247,1.2467,1.2149,1.1989,1.1945,1.1753,1.1613,1.1621,1.1591,1.1591,1.1591,1.1591,1.1577,1.1569,1.1547,1.154,1.1533,1.1518,1.1511,1.1518,1.1384,1.1274,1.1173,1.0825,1.0491,1.0206,0.9786,0.9332,0.9017,0.8635,0.8376,0.8204,0.7917,0.7661,0.7526,0.7526,0.7493,0.7493,0.7493,0.7493,0.7493,0.7493,0.7493,0.7493,0.7493,0.7493,0.7493,0.7493,0.7493,0.7493,0.7474,0.7384,0.7199,0.7133,0.6952,0.6639,0.644,0.6332,0.6027,0.5727,0.5513,0.5293,0.5046,0.4818,0.4684,0.4574,0.4519,0.4487,0.4515,0.4543,0.4546,0.4684,0.4928,0.512,0.5289,0.5481,0.5481,0.565,0.5791,1.5933,1.6116,1.6447,1.6683,1.6807,1.651,1.6411,1.6353,1.5701,1.5389,1.5389,1.5389,1.5389,1.5389,1.5389,1.5389,1.5389,1.5389,1.5323,1.5192,1.5002,1.4776,1.455,1.4194,1.3931,1.3799,1.3594,1.3492,1.3492,1.3492,1.3492,1.3484,1.3382,1.3316,1.3265,1.2994,1.2833,1.2804,1.2477,1.231,1.2288,1.2028,1.1835,1.1821,1.1701,1.1591,1.1591,1.1591,1.1591,1.1591,1.1591,1.1591,1.1591,1.1591,1.1591,1.1591,1.1529,1.1435,1.1303,1.1146,1.0895,1.0618,1.0263,0.9913,0.96,0.9151,0.8765,0.8565,0.8242,0.7912,0.7694,0.7559,0.7493,0.7493,0.7493,0.7493,0.7493,0.7493,0.7493,0.7493,0.7493,0.7493,0.7493,0.7493,0.7493,0.7493,0.7493,0.7399,0.7247,0.719,0.709,0.677,0.6591,0.6478,0.636,0.6069,0.5814,0.565,0.5458,0.5344,0.5234,0.5066,0.5007,0.4979,0.4979,0.4983,0.5038,0.5148,0.5395,0.554,0.5736,0.5814,0.5864,0.5923,0.6009,1.6163,1.6359,1.6588,1.6831,1.694,1.6555,1.6411,1.6338,1.5701,1.5389,1.5389,1.5389,1.5389,1.5389,1.5389,1.5389,1.5389,1.5389,1.5389,1.5374,1.5155,1.5002,1.4842,1.4501,1.4172,1.396,1.3653,1.3492,1.3492,1.3492,1.3492,1.3492,1.3492,1.3492,1.3448,1.3272,1.3162,1.3104,1.2848,1.2645,1.2602,1.2324,1.2105,1.1989,1.1823,1.1694,1.1599,1.1591,1.1591,1.1591,1.1591,1.1591,1.1591,1.1591,1.1591,1.1591,1.1591,1.156,1.1397,1.1334,1.1178,1.0958,1.0681,1.0396,1.0174,0.9658,0.9274,0.9017,0.8694,0.8339,0.8019,0.7819,0.7652,0.7559,0.7493,0.7493,0.7493,0.7493,0.7493,0.7493,0.7493,0.7493,0.7493,0.7493,0.7493,0.7493,0.7493,0.7418,0.7318,0.728,0.7218,0.6988,0.6817,0.6661,0.6534,0.6267,0.6055,0.5876,0.5763,0.5732,0.5645,0.5532,0.5473,0.5445,0.5473,0.5477,0.5559,0.5641,0.5759,0.5877,0.5959,0.6032,0.6059,0.6119,0.6146,1.6588,1.6636,1.6878,1.6986,1.698,1.6562,1.6411,1.6265,1.5659,1.5389,1.5389,1.5389,1.5389,1.5389,1.5389,1.5389,1.5389,1.5389,1.5389,1.5423,1.5367,1.5199,1.4951,1.4849,1.4516,1.3982,1.3667,1.3514,1.3499,1.3492,1.3492,1.3492,1.3492,1.3492,1.3492,1.3455,1.3462,1.3389,1.3148,1.3016,1.2972,1.266,1.2368,1.2105,1.2032,1.1897,1.1635,1.1599,1.1591,1.1591,1.1591,1.1591,1.1591,1.1591,1.1591,1.1591,1.1591,1.1591,1.1553,1.1428,1.1334,1.124,1.0989,1.0744,1.0586,1.0238,0.9849,0.9524,0.9204,0.8861,0.8544,0.8312,0.8009,0.7591,0.7526,0.7526,0.7493,0.7493,0.7493,0.7493,0.7493,0.7493,0.7493,0.7493,0.7493,0.7493,0.7521,0.7517,0.7483,0.7441,0.7384,0.7251,0.7104,0.6952,0.6714,0.6459,0.6286,0.6101,0.6028,0.595,0.5873,0.5759,0.5786,0.5786,0.5759,0.5786,0.5837,0.5923,0.5978,0.6091,0.6146,0.6173,0.6173,0.6173,0.6173,1.6683,1.6885,1.6979,1.7066,1.7113,1.6645,1.6411,1.6294,1.5701,1.5396,1.5389,1.5389,1.5389,1.5389,1.5389,1.5389,1.5389,1.5389,1.5389,1.5389,1.5389,1.5338,1.5214,1.5002,1.4604,1.4062,1.3924,1.3711,1.3528,1.3499,1.3492,1.3492,1.3492,1.3492,1.3492,1.3492,1.3492,1.3484,1.3404,1.3345,1.3316,1.3023,1.2797,1.2694,1.2456,1.2186,1.1897,1.1709,1.1599,1.1591,1.1591,1.1591,1.1591,1.1591,1.1591,1.1591,1.1591,1.1591,1.1591,1.1536,1.1505,1.1466,1.1279,1.1153,1.1059,1.0764,1.0441,1.0085,0.9817,0.9504,0.8958,0.87,0.8339,0.7727,0.7629,0.7596,0.7493,0.7493,0.7493,0.7493,0.7493,0.7493,0.7493,0.7493,0.7493,0.7493,0.7493,0.7493,0.7493,0.7493,0.7484,0.7431,0.7316,0.7197,0.6967,0.6733,0.6515,0.6309,0.6211,0.6096,0.6037,0.6014,0.6041,0.6041,0.6041,0.6041,0.6119,0.6146,0.6173,0.6173,0.6173,0.6173,0.62,0.62,0.62,1.7113,1.7254,1.716,1.72,1.7206,1.6645,1.6411,1.6316,1.5701,1.5396,1.5389,1.5389,1.5389,1.5389,1.5389,1.5389,1.5389,1.5389,1.5389,1.5389,1.5389,1.5389,1.5338,1.5046,1.4725,1.4384,1.4216,1.3989,1.3689,1.3667,1.3616,1.3514,1.3492,1.3492,1.3492,1.3492,1.3492,1.3492,1.3484,1.3492,1.3448,1.3294,1.3126,1.3001,1.2804,1.2514,1.2193,1.2021,1.1841,1.1643,1.1591,1.1591,1.1591,1.1591,1.1643,1.1721,1.1775,1.1775,1.1767,1.1758,1.1736,1.1736,1.1641,1.161,1.1625,1.1474,1.118,1.0735,1.0503,1.0091,0.9496,0.9177,0.8791,0.8274,0.7862,0.7661,0.7526,0.7493,0.7493,0.7493,0.7493,0.7493,0.7493,0.7493,0.7493,0.7493,0.7493,0.7493,0.7493,0.7493,0.7521,0.7507,0.7436,0.7285,0.718,0.6995,0.6766,0.6553,0.6356,0.6243,0.6146,0.6119,0.615,0.6123,0.6123,0.6123,0.6173,0.6173,0.6173,0.62,0.62,0.62,0.62,0.62,0.62,1.7729,1.7682,1.7426,1.7304,1.7201,1.6623,1.6389,1.6228,1.5694,1.5389,1.5389,1.5389,1.5389,1.5389,1.5389,1.5389,1.5389,1.5389,1.5389,1.5389,1.5389,1.5389,1.5345,1.5104,1.4922,1.4791,1.4604,1.4364,1.4018,1.4011,1.385,1.3623,1.3565,1.3506,1.3506,1.3492,1.3492,1.3492,1.3492,1.3492,1.3492,1.3484,1.3353,1.3075,1.3045,1.2877,1.2558,1.246,1.2197,1.1753,1.1723,1.1745,1.1679,1.165,1.1802,1.2043,1.2032,1.2025,1.2025,1.2032,1.2058,1.2025,1.204,1.2116,1.2179,1.2152,1.194,1.1412,1.118,1.0824,1.0238,0.9865,0.9491,0.8981,0.8235,0.7764,0.7559,0.7526,0.7493,0.7493,0.7493,0.7493,0.7493,0.7493,0.7493,0.7493,0.7493,0.7493,0.7493,0.7493,0.7493,0.7474,0.7451,0.7436,0.7294,0.7147,0.6932,0.6828,0.66,0.6426,0.6266,0.6238,0.6205,0.62,0.62,0.62,0.62,0.62,0.62,0.62,0.62,0.62,0.62,0.62,0.62,1.8172,1.7994,1.7721,1.734,1.6991,1.6573,1.6279,1.6001,1.5571,1.5389,1.5389,1.5389,1.5389,1.5389,1.5389,1.5389,1.5389,1.5389,1.5389,1.5389,1.5389,1.5389,1.5382,1.5301,1.5126,1.4929,1.4827,1.4655,1.4362,1.434,1.421,1.3902,1.3828,1.3756,1.3543,1.3499,1.3492,1.3492,1.3492,1.3492,1.3492,1.3492,1.3462,1.3389,1.336,1.3192,1.2892,1.2609,1.2475,1.2299,1.2262,1.227,1.2233,1.2226,1.2262,1.2332,1.2361,1.2361,1.2353,1.2361,1.2361,1.2361,1.2361,1.2397,1.2436,1.2465,1.2313,1.2066,1.1992,1.1755,1.1343,1.0941,1.0355,0.9435,0.8569,0.7904,0.7694,0.7559,0.7493,0.7493,0.7493,0.7493,0.7493,0.7493,0.7493,0.7493,0.7493,0.7493,0.7493,0.7493,0.7493,0.7493,0.7474,0.7493,0.7431,0.7266,0.7152,0.709,0.6884,0.6647,0.6464,0.6313,0.6252,0.62,0.62,0.62,0.62,0.62,0.62,0.62,0.62,0.62,0.62,0.62,0.62,1.8727,1.8357,1.8001,1.7527,1.7017,1.6595,1.6199,1.5891,1.5577,1.5389,1.5389,1.5389,1.5389,1.5389,1.5389,1.5389,1.5389,1.5389,1.5389,1.5389,1.5389,1.5389,1.5389,1.5389,1.5287,1.5141,1.5104,1.4962,1.4721,1.467,1.4494,1.4247,1.4048,1.3917,1.3718,1.355,1.3492,1.3492,1.3492,1.3492,1.3492,1.3492,1.3492,1.3492,1.3484,1.3382,1.3199,1.3023,1.2826,1.2599,1.2519,1.2526,1.2526,1.2526,1.255,1.2701,1.2696,1.2723,1.2723,1.2723,1.2723,1.2723,1.2731,1.2777,1.2871,1.2928,1.2844,1.2608,1.2559,1.2349,1.2011,1.1607,1.0947,1.0103,0.9197,0.8417,0.7909,0.7694,0.7591,0.7526,0.7493,0.7493,0.7493,0.7493,0.7493,0.7493,0.7493,0.7493,0.7493,0.7493,0.7493,0.7493,0.7493,0.7512,0.7502,0.737,0.7318,0.7261,0.7142,0.6903,0.6628,0.6426,0.6318,0.6257,0.6229,0.62,0.62,0.62,0.62,0.62,0.62,0.621,0.6214,0.6247,0.6238,1.9417,1.8874,1.8411,1.7827,1.7146,1.6677,1.6206,1.5833,1.5513,1.5389,1.5389,1.5389,1.5389,1.5389,1.5389,1.5389,1.5389,1.5389,1.5389,1.5389,1.5389,1.5389,1.5389,1.5389,1.5374,1.5345,1.5382,1.5214,1.5009,1.4951,1.4816,1.4545,1.4253,1.4055,1.3916,1.3697,1.3543,1.3492,1.3492,1.3492,1.3492,1.3492,1.3492,1.3492,1.3492,1.3484,1.3455,1.3404,1.3221,1.2623,1.2628,1.2687,1.2672,1.265,1.2775,1.2994,1.306,1.306,1.306,1.306,1.306,1.306,1.3053,1.317,1.3345,1.3375,1.3294,1.3039,1.2919,1.274,1.2436,1.1985,1.1515,1.089,1.0118,0.9282,0.8405,0.7887,0.7634,0.7559,0.7526,0.7493,0.7493,0.7493,0.7493,0.7493,0.7493,0.7493,0.7493,0.7493,0.7493,0.7493,0.7493,0.7493,0.7489,0.7474,0.746,0.7427,0.7318,0.7128,0.6809,0.6577,0.6426,0.6332,0.6276,0.6229,0.62,0.62,0.6219,0.62,0.62,0.6219,0.6243,0.6299,0.6318,2.0275,1.9608,1.9142,1.8228,1.7188,1.6794,1.6233,1.554,1.5425,1.5389,1.5389,1.5389,1.5389,1.5389,1.5389,1.5389,1.5389,1.5389,1.5389,1.5389,1.5389,1.5389,1.5389,1.5389,1.5389,1.5389,1.5389,1.5345,1.5279,1.5221,1.5119,1.482,1.4699,1.4479,1.4055,1.3923,1.3733,1.355,1.3499,1.3492,1.3492,1.3492,1.3492,1.3492,1.3492,1.3492,1.3492,1.3492,1.3418,1.3323,1.3258,1.3206,1.3214,1.3228,1.3265,1.3309,1.336,1.3375,1.3382,1.336,1.3382,1.3353,1.3345,1.3418,1.3462,1.3492,1.3462,1.3389,1.3353,1.3201,1.2978,1.2899,1.2378,1.1704,1.1157,1.0481,0.9502,0.8399,0.7803,0.7681,0.7568,0.7493,0.7493,0.7493,0.7493,0.7493,0.7493,0.7493,0.7493,0.7493,0.7493,0.7493,0.7493,0.7493,0.7493,0.7493,0.7493,0.7493,0.745,0.7378,0.7052,0.6771,0.66,0.645,0.6304,0.6276,0.629,0.6276,0.6309,0.6257,0.6243,0.6332,0.6403,0.6421,0.6454,2.0412,1.9814,1.9229,1.8378,1.7365,1.6894,1.6262,1.5607,1.5423,1.5389,1.5389,1.5389,1.5389,1.5389,1.5389,1.5389,1.5389,1.5389,1.5389,1.5389,1.5389,1.5389,1.5389,1.5389,1.5389,1.5389,1.5389,1.5389,1.5389,1.5382,1.5294,1.5119,1.4995,1.4747,1.4399,1.415,1.3939,1.3733,1.3565,1.3492,1.3492,1.3492,1.3492,1.3492,1.3492,1.3492,1.3492,1.3492,1.3492,1.3492,1.3492,1.3492,1.3492,1.3492,1.3492,1.3492,1.3492,1.3492,1.3484,1.3492,1.3477,1.3492,1.3492,1.3492,1.3492,1.3492,1.3492,1.3492,1.3484,1.3455,1.3346,1.3222,1.2824,1.2322,1.1735,1.1058,1.0143,0.8958,0.8044,0.7887,0.7659,0.7545,0.7493,0.7493,0.7493,0.7493,0.7493,0.7493,0.7493,0.7493,0.7493,0.7493,0.7493,0.7493,0.7493,0.7493,0.7493,0.7493,0.7474,0.7464,0.7304,0.7066,0.6818,0.6647,0.652,0.645,0.645,0.6426,0.6421,0.6412,0.644,0.653,0.66,0.6638,0.6671,2.0361,1.9853,1.9256,1.848,1.7675,1.7059,1.6408,1.5771,1.5548,1.5465,1.5431,1.5431,1.5431,1.5431,1.5431,1.5389,1.5389,1.5389,1.5389,1.5389,1.5389,1.5389,1.5389,1.5389,1.5389,1.5389,1.5389,1.5389,1.5389,1.5389,1.5367,1.5365,1.5133,1.4936,1.4761,1.445,1.4092,1.3976,1.3733,1.355,1.3499,1.3492,1.3492,1.3492,1.3492,1.3492,1.3492,1.3492,1.3492,1.3492,1.3492,1.3492,1.3492,1.3492,1.3492,1.3492,1.3492,1.3492,1.3492,1.3492,1.3492,1.3492,1.3492,1.3492,1.3492,1.3492,1.3492,1.3492,1.3492,1.3492,1.3499,1.3382,1.3119,1.2691,1.2028,1.1389,1.0629,0.9578,0.884,0.8135,0.7836,0.7636,0.7527,0.7493,0.7493,0.7493,0.7493,0.7493,0.7493,0.7493,0.7493,0.7493,0.7493,0.7493,0.7493,0.7493,0.7493,0.7493,0.7493,0.7512,0.7493,0.7313,0.7069,0.6901,0.6788,0.6699,0.6638,0.6609,0.6624,0.66,0.6633,0.6708,0.6784,0.6859,0.6901,2.095,2.0352,2.0014,1.9244,1.8213,1.7634,1.6881,1.6076,1.5782,1.5658,1.5624,1.5465,1.5548,1.5582,1.5465,1.5431,1.5431,1.5389,1.5389,1.5389,1.5389,1.5389,1.5389,1.5389,1.5389,1.5389,1.5389,1.5389,1.5389,1.5389,1.5389,1.5374,1.5316,1.5185,1.4973,1.4747,1.4457,1.4188,1.3967,1.3806,1.3645,1.355,1.3543,1.3536,1.3521,1.3492,1.3492,1.3492,1.3492,1.3492,1.3492,1.3492,1.3492,1.3492,1.3492,1.3492,1.3492,1.3492,1.3492,1.3492,1.3492,1.3492,1.3492,1.3492,1.3492,1.3492,1.3492,1.3492,1.3492,1.3492,1.3492,1.3455,1.3346,1.3025,1.2625,1.2088,1.1401,1.049,0.9406,0.86,0.8122,0.7693,0.7612,0.7531,0.7493,0.7493,0.7493,0.7493,0.7493,0.7493,0.7493,0.7493,0.7493,0.7493,0.7493,0.7493,0.7493,0.7493,0.7493,0.7493,0.7479,0.7474,0.7356,0.7158,0.6981,0.6864,0.6835,0.6845,0.6826,0.6798,0.684,0.6897,0.7052,0.7183,0.725,2.0669,2.0354,1.9888,1.9299,1.8618,1.7928,1.7269,1.6623,1.6229,1.6031,1.5922,1.5797,1.5839,1.5831,1.5665,1.5506,1.5431,1.5389,1.5389,1.5389,1.5389,1.5389,1.5389,1.5389,1.5389,1.5389,1.5389,1.5389,1.5389,1.5389,1.5389,1.5389,1.5389,1.5301,1.5141,1.4958,1.4754,1.4472,1.4311,1.4165,1.3975,1.385,1.3755,1.3718,1.3587,1.3499,1.3492,1.3492,1.3492,1.3492,1.3492,1.3492,1.3506,1.3514,1.3506,1.3514,1.3499,1.3492,1.3492,1.3492,1.3492,1.3492,1.3492,1.3492,1.3492,1.3492,1.3492,1.3492,1.3492,1.3492,1.3492,1.3492,1.3382,1.32,1.2863,1.2372,1.1712,1.0874,0.998,0.9041,0.8457,0.801,0.7698,0.7612,0.7522,0.7493,0.7493,0.7493,0.7493,0.7493,0.7493,0.7493,0.7493,0.7493,0.7493,0.7493,0.7493,0.7493,0.7493,0.7493,0.7493,0.7484,0.746,0.737,0.7237,0.7083,0.7088,0.7106,0.7069,0.705,0.7125,0.7232,0.7367,0.7508,0.7542,2.0342,2.0264,1.9736,1.9341,1.8953,1.8264,1.7659,1.7172,1.6722,1.6484,1.6327,1.6252,1.6211,1.6121,1.5865,1.5616,1.5465,1.5431,1.5389,1.5389,1.5389,1.5389,1.5389,1.5389,1.5389,1.5389,1.5389,1.5389,1.5389,1.5389,1.5389,1.5389,1.5389,1.5389,1.5316,1.5141,1.5002,1.4867,1.4721,1.4599,1.4452,1.4269,1.4153,1.4146,1.3888,1.3785,1.3866,1.3874,1.3837,1.3792,1.374,1.3718,1.3704,1.3689,1.3689,1.3667,1.3579,1.3499,1.3492,1.3492,1.3492,1.3492,1.3492,1.3492,1.3492,1.3492,1.3492,1.3492,1.3492,1.3492,1.3492,1.3492,1.3426,1.3266,1.2936,1.2526,1.1966,1.1286,1.059,0.9724,0.892,0.8329,0.8006,0.7612,0.7503,0.7493,0.7493,0.7493,0.7493,0.7493,0.7493,0.7493,0.7493,0.7493,0.7493,0.7493,0.7493,0.7493,0.7493,0.7493,0.7493,0.7489,0.7465,0.7451,0.7441,0.7342,0.7356,0.7374,0.7335,0.735,0.745,0.7553,0.7663,0.7728,0.7752,2.045,2.0303,2.0225,1.9824,1.9262,1.8776,1.8215,1.761,1.7261,1.7017,1.6976,1.6779,1.6648,1.6484,1.5982,1.5741,1.5616,1.5465,1.5389,1.5389,1.5389,1.5389,1.5389,1.5389,1.5389,1.5389,1.5389,1.5389,1.5389,1.5389,1.5389,1.5389,1.5389,1.5389,1.5374,1.5335,1.5185,1.4951,1.4911,1.4765,1.4592,1.4543,1.4569,1.4656,1.462,1.4545,1.4515,1.4515,1.4468,1.4352,1.435,1.4379,1.4394,1.4394,1.4394,1.4218,1.3879,1.3492,1.3528,1.3506,1.3528,1.3543,1.3543,1.3499,1.3572,1.3543,1.3528,1.3492,1.3492,1.3492,1.3492,1.3492,1.3455,1.3382,1.32,1.29,1.2415,1.1744,1.1045,1.0444,0.9603,0.8854,0.8309,0.7879,0.7493,0.7493,0.7493,0.7493,0.7493,0.7493,0.7493,0.7493,0.7493,0.7493,0.7493,0.7493,0.7493,0.7493,0.7526,0.7526,0.7493,0.7493,0.7493,0.7484,0.7526,0.7526,0.7516,0.7506,0.7567,0.7609,0.7674,0.7814,0.7949,0.7954,0.8019,2.0566,2.045,2.0342,2.0147,1.9814,1.9262,1.8825,1.8434,1.8031,1.7749,1.7635,1.7505,1.7261,1.6845,1.6353,1.594,1.5733,1.5506,1.5389,1.5431,1.5431,1.5431,1.5389,1.5389,1.5389,1.5389,1.5389,1.5389,1.5389,1.5389,1.5389,1.5389,1.5389,1.5389,1.5431,1.5506,1.546,1.5446,1.5483,1.5424,1.5234,1.5158,1.5132,1.511,1.5023,1.4994,1.4986,1.4832,1.4762,1.4652,1.4574,1.4504,1.4504,1.4496,1.4528,1.4654,1.4408,1.4125,1.3836,1.3616,1.3667,1.377,1.3807,1.3859,1.3896,1.3807,1.3711,1.3681,1.3681,1.3623,1.3557,1.3492,1.3492,1.3455,1.3368,1.3127,1.2746,1.2187,1.1557,1.0923,1.0307,0.9518,0.8783,0.8284,0.7817,0.7493,0.7493,0.7493,0.7493,0.7493,0.7493,0.7493,0.7493,0.7493,0.7493,0.7493,0.7493,0.7526,0.7521,0.7521,0.7526,0.7493,0.7559,0.7559,0.7526,0.7559,0.7596,0.7629,0.7657,0.7754,0.7857,0.8052,0.8214,0.8414,0.8409,2.0615,2.0566,2.042,2.0342,2.0264,1.9657,1.935,1.9121,1.8714,1.8474,1.8353,1.8184,1.7821,1.7212,1.6722,1.6229,1.579,1.5555,1.5465,1.5465,1.5465,1.5506,1.5506,1.5506,1.5472,1.5431,1.5389,1.5389,1.5389,1.5389,1.5389,1.5389,1.5389,1.5472,1.5506,1.5624,1.5711,1.5869,1.6034,1.5985,1.5849,1.5731,1.5688,1.5581,1.5477,1.5403,1.5395,1.5339,1.5268,1.5046,1.4956,1.4914,1.4827,1.4809,1.4914,1.4989,1.4926,1.4769,1.4461,1.423,1.4036,1.4117,1.4206,1.4282,1.438,1.4194,1.4118,1.4193,1.4141,1.4007,1.383,1.3741,1.366,1.3631,1.3528,1.3302,1.3046,1.2599,1.215,1.1619,1.0948,1.0126,0.9398,0.8789,0.823,0.7668,0.7493,0.7493,0.7493,0.7493,0.7526,0.7526,0.7526,0.7526,0.7526,0.7526,0.7526,0.7559,0.7587,0.7619,0.7657,0.7689,0.7722,0.7657,0.7624,0.7694,0.7792,0.7764,0.7731,0.7992,0.8187,0.8382,0.8544,0.8738,0.877,2.0615,2.0615,2.0566,2.0489,2.0303,1.9981,1.9745,1.9557,1.9161,1.9033,1.9103,1.8776,1.8264,1.7659,1.7017,1.6484,1.6046,1.559,1.5541,1.5616,1.5692,1.5707,1.5707,1.5665,1.5582,1.5465,1.5431,1.5431,1.5389,1.5389,1.5389,1.5389,1.5389,1.5548,1.5665,1.5824,1.6147,1.6353,1.6558,1.6476,1.636,1.6265,1.6201,1.6242,1.6275,1.6316,1.6316,1.6149,1.5947,1.5613,1.5524,1.5457,1.5346,1.5319,1.5427,1.5546,1.5436,1.5387,1.5283,1.4893,1.4726,1.4748,1.4771,1.4771,1.4879,1.4949,1.4942,1.4897,1.4736,1.4667,1.4477,1.4303,1.4043,1.3888,1.3807,1.3616,1.3426,1.3193,1.2746,1.2254,1.1562,1.0669,0.9924,0.9296,0.8492,0.7884,0.7531,0.7493,0.7493,0.7526,0.7526,0.7526,0.7526,0.7526,0.7554,0.7587,0.7689,0.7754,0.7787,0.7852,0.7917,0.7917,0.7857,0.7884,0.7819,0.7922,0.7987,0.7959,0.8057,0.8317,0.8544,0.8673,0.8797,0.8958,0.8964,2.0615,2.0615,2.0615,2.0566,2.045,2.0255,2.0098,1.999,1.9715,1.9587,1.9618,1.9222,1.8785,1.8184,1.7465,1.6812,1.6278,1.6004,1.5831,1.579,1.5831,1.5963,1.5963,1.5955,1.5831,1.5665,1.5582,1.5506,1.5423,1.5431,1.5431,1.5389,1.5431,1.5541,1.5741,1.627,1.6755,1.7082,1.7253,1.7294,1.7017,1.7057,1.6927,1.6607,1.6804,1.6722,1.6591,1.6476,1.6312,1.6147,1.6038,1.588,1.5797,1.5797,1.5914,1.6072,1.5945,1.6029,1.6002,1.555,1.5093,1.5283,1.5306,1.5345,1.5409,1.5389,1.5304,1.5227,1.5242,1.5156,1.4926,1.4681,1.4439,1.4245,1.4112,1.3962,1.3777,1.3579,1.3302,1.2813,1.2024,1.1157,1.0475,0.9763,0.891,0.8097,0.7792,0.7531,0.7583,0.7563,0.7624,0.7629,0.7661,0.7694,0.7722,0.7792,0.7889,0.7922,0.7987,0.8079,0.8144,0.8014,0.7982,0.8014,0.8079,0.8112,0.8182,0.8182,0.8317,0.8511,0.8738,0.8964,0.9087,0.9215,0.9151,2.0615,2.0615,2.0615,2.0615,2.0566,2.045,2.042,2.0342,2.0098,1.9942,1.9863,1.9587,1.9183,1.8585,1.787,1.7098,1.6566,1.6203,1.6121,1.6121,1.6245,1.6335,1.6368,1.6368,1.6278,1.5982,1.5891,1.5816,1.5499,1.5506,1.5465,1.5431,1.5465,1.5616,1.6031,1.6845,1.7578,1.7934,1.8144,1.8152,1.787,1.7781,1.7619,1.7131,1.7212,1.7131,1.6976,1.6812,1.6607,1.6435,1.6278,1.617,1.6128,1.6128,1.6203,1.6312,1.6435,1.6476,1.6417,1.6099,1.5564,1.569,1.5809,1.589,1.5941,1.5865,1.5889,1.5842,1.5771,1.5599,1.541,1.5191,1.492,1.4709,1.4434,1.4283,1.4139,1.3983,1.3682,1.3331,1.2551,1.1784,1.0912,1.0191,0.9276,0.8527,0.814,0.7916,0.7854,0.7843,0.7759,0.7792,0.7824,0.7889,0.7954,0.8019,0.8084,0.822,0.8279,0.8371,0.8371,0.8242,0.8274,0.8436,0.8468,0.8371,0.8436,0.8538,0.8608,0.8673,0.8931,0.9221,0.9285,0.9344,0.9306,2.0615,2.0615,2.0615,2.0615,2.0615,2.0605,2.0576,2.0537,2.0372,2.0186,1.9971,1.9863,1.946,1.8745,1.8103,1.7456,1.6853,1.6458,1.6376,1.6615,1.673,1.6853,1.7017,1.7017,1.6894,1.6476,1.6394,1.6229,1.5741,1.5782,1.5665,1.5631,1.5756,1.5948,1.6211,1.7343,1.8184,1.8656,1.8865,1.8865,1.8705,1.8496,1.8215,1.7821,1.774,1.7659,1.7383,1.718,1.7009,1.6845,1.6599,1.6409,1.6294,1.6211,1.6286,1.6394,1.6435,1.6517,1.6624,1.6437,1.6242,1.6144,1.6195,1.6293,1.6388,1.648,1.649,1.6339,1.6345,1.631,1.6093,1.5792,1.5456,1.5159,1.4881,1.4659,1.4522,1.439,1.4101,1.3732,1.3193,1.2512,1.1501,1.0564,0.9663,0.8978,0.8521,0.8297,0.8218,0.8079,0.7989,0.801,0.8048,0.8117,0.8182,0.8209,0.8274,0.8447,0.8576,0.8635,0.8727,0.8727,0.8759,0.8888,0.8823,0.8694,0.8791,0.8958,0.8958,0.8996,0.9221,0.9414,0.9478,0.9478,0.9408,2.0615,2.0615,2.0615,2.0615,2.0615,2.0615,2.0615,2.0605,2.0527,2.045,2.0372,2.0255,1.9872,1.9231,1.8625,1.7974,1.7416,1.7106,1.7115,1.7147,1.7302,1.7505,1.7627,1.7708,1.7538,1.7294,1.7131,1.6853,1.636,1.6278,1.6072,1.6004,1.6299,1.6574,1.7106,1.7951,1.8736,1.9253,1.9618,1.9745,1.9548,1.9381,1.9054,1.8416,1.8385,1.8233,1.7878,1.7659,1.7456,1.7335,1.709,1.6812,1.6697,1.6615,1.6533,1.6566,1.6607,1.6607,1.6689,1.6591,1.6558,1.6533,1.6533,1.6558,1.6607,1.6648,1.6689,1.6689,1.6607,1.6566,1.6454,1.6252,1.5982,1.5736,1.5475,1.518,1.4979,1.4815,1.4548,1.4099,1.3593,1.2673,1.1692,1.1064,1.0219,0.9623,0.9212,0.8808,0.8672,0.839,0.823,0.8269,0.8322,0.8392,0.8441,0.8554,0.8625,0.8759,0.8829,0.8894,0.8958,0.9055,0.9022,0.9022,0.899,0.899,0.9055,0.9151,0.9247,0.935,0.9446,0.9478,0.9478,0.9484,0.9484,2.0615,2.0615,2.0615,2.0615,2.0615,2.0615,2.0615,2.0615,2.0615,2.0615,2.0537,2.0381,2.0069,1.9636,1.9073,1.8616,1.8014,1.7708,1.7789,1.7829,1.7983,1.8224,1.8385,1.8434,1.8345,1.8144,1.7902,1.7619,1.7164,1.6894,1.6735,1.6796,1.7045,1.7573,1.8065,1.8637,1.9183,1.9775,2.0255,2.0381,2.0255,2.0128,1.9854,1.9341,1.9063,1.8913,1.8505,1.8224,1.8014,1.7934,1.7651,1.7294,1.718,1.6976,1.682,1.673,1.6689,1.6689,1.6689,1.6689,1.6648,1.6648,1.6689,1.6689,1.6689,1.6689,1.6689,1.6689,1.6689,1.6689,1.6648,1.6476,1.6341,1.6084,1.5856,1.5553,1.542,1.5225,1.4918,1.4456,1.3899,1.29,1.2003,1.144,1.081,1.0378,0.9946,0.9569,0.9157,0.8927,0.8735,0.8785,0.8822,0.892,0.8975,0.8964,0.9039,0.9092,0.913,0.9154,0.9189,0.9285,0.9221,0.9151,0.9183,0.9215,0.9253,0.9285,0.9411,0.9438,0.9478,0.9478,0.9478,0.9526,0.958,2.0615,2.0615,2.0615,2.0615,2.0615,2.0615,2.0615,2.0615,2.0615,2.0615,2.0576,2.0381,2.0186,1.9824,1.932,1.8953,1.8705,1.8264,1.8385,1.8585,1.8705,1.8944,1.9143,1.9271,1.9152,1.9033,1.8825,1.8487,1.8046,1.7719,1.7565,1.7753,1.8154,1.8655,1.9056,1.9462,1.9874,2.04,2.0731,2.0848,2.0838,2.0828,2.0479,2.0089,1.9863,1.9696,1.9341,1.9024,1.8825,1.8536,1.8135,1.7749,1.7465,1.7221,1.6976,1.6812,1.6771,1.6771,1.682,1.682,1.6771,1.6771,1.6738,1.6697,1.6689,1.6689,1.6689,1.6689,1.6689,1.6689,1.6648,1.6566,1.6427,1.6263,1.613,1.5935,1.5826,1.5583,1.5229,1.4774,1.4275,1.3477,1.2636,1.2003,1.1409,1.1026,1.0635,1.0392,1.0033,0.9688,0.9554,0.9526,0.9558,0.9542,0.9525,0.9456,0.939,0.9429,0.9385,0.9418,0.9473,0.9458,0.9382,0.935,0.9446,0.947,0.9483,0.9527,0.9542,0.9574,0.9715,0.9622,0.9664,0.9757,0.9823,2.0615,2.0615,2.0615,2.0615,2.0615,2.0615,2.0615,2.0615,2.0615,2.0615,2.0615,2.0537,2.0372,2.0147,1.9784,1.9548,1.9311,1.9103,1.9152,1.9231,1.9311,1.9508,1.9706,1.9902,1.9951,1.9863,1.9657,1.9371,1.9078,1.8707,1.8738,1.9049,1.9278,1.976,2.0176,2.0591,2.0784,2.0928,2.1228,2.1264,2.131,2.13,2.0992,2.0722,2.0566,2.0401,2.0137,1.9775,1.9578,1.942,1.8816,1.8345,1.8063,1.774,1.7416,1.7229,1.7188,1.7188,1.7147,1.7057,1.6968,1.6935,1.6812,1.6689,1.6689,1.6689,1.6689,1.6689,1.6689,1.6689,1.6689,1.6607,1.6566,1.6487,1.6377,1.6291,1.6166,1.5929,1.5565,1.5016,1.4514,1.3886,1.3082,1.2445,1.1892,1.1595,1.131,1.1008,1.0745,1.0388,1.0211,1.0182,1.0065,1.0038,0.9974,0.9903,0.9813,0.9777,0.9718,0.9667,0.9616,0.9568,0.9508,0.9496,0.9526,0.9634,0.976,0.9766,0.9811,0.9997,1.01,0.9967,0.9889,0.9985,1.0097,2.0615,2.0615,2.0615,2.0615,2.0615,2.0615,2.0615,2.0615,2.0615,2.0615,2.0615,2.0615,2.0527,2.0411,2.0147,1.999,1.9872,1.9627,1.9627,1.9833,1.9882,2.0069,2.0303,2.0459,2.0537,2.0537,2.045,2.0196,2.0044,2.0011,1.9994,2.0321,2.0485,2.0793,2.117,2.1502,2.1725,2.174,2.1754,2.1696,2.165,2.1589,2.1425,2.1223,2.1146,2.0992,2.0848,2.045,2.0294,2.0137,1.946,1.8984,1.8585,1.8063,1.7691,1.7505,1.7497,1.7497,1.7465,1.7424,1.7253,1.709,1.6935,1.6812,1.673,1.6689,1.6689,1.6689,1.6689,1.6689,1.6689,1.6689,1.6689,1.6681,1.6642,1.6594,1.6428,1.6293,1.5794,1.5225,1.4682,1.4101,1.3492,1.2891,1.2372,1.1966,1.1595,1.1279,1.1063,1.0856,1.0717,1.0657,1.0526,1.0426,1.0361,1.029,1.0182,1.0125,1.0048,0.9979,0.9817,0.9721,0.969,0.9622,0.9592,0.9736,0.9943,1.0033,1.0094,1.0274,1.0382,1.028,1.0232,1.031,1.0452,2.0615,2.0615,2.0615,2.0615,2.0615,2.0615,2.0615,2.0615,2.0615,2.0615,2.0615,2.0615,2.0615,2.0527,2.0372,2.0303,2.0216,2.0059,2.0059,2.0342,2.0342,2.0508,2.0712,2.0935,2.1012,2.1089,2.1081,2.0947,2.1046,2.1063,2.117,2.1592,2.1682,2.1864,2.2169,2.2431,2.2631,2.2646,2.2482,2.2364,2.1958,2.1831,2.1731,2.154,2.1464,2.1425,2.1233,2.1041,2.0876,2.0566,2.0177,1.9666,1.8953,1.8393,1.7983,1.7902,1.7942,1.7942,1.7902,1.7821,1.7538,1.7335,1.709,1.6935,1.6812,1.6689,1.6689,1.6689,1.6689,1.6689,1.6689,1.6689,1.6689,1.6689,1.6665,1.6642,1.657,1.6389,1.6015,1.5454,1.4981,1.4431,1.3969,1.3358,1.2746,1.2335,1.1929,1.1558,1.1292,1.1112,1.1032,1.0983,1.0862,1.076,1.0713,1.0641,1.0527,1.0448,1.0358,1.0238,1.0088,0.9967,0.9853,0.9865,0.9889,0.9955,1.0081,1.022,1.0358,1.0478,1.0557,1.0539,1.0569,1.0665,1.0857,2.0615,2.0615,2.0615,2.0615,2.0615,2.0615,2.0615,2.0615,2.0615,2.0615,2.0615,2.0615,2.0615,2.0566,2.0527,2.0489,2.0489,2.045,2.045,2.0576,2.0664,2.078,2.0984,2.1167,2.1359,2.1387,2.143,2.1585,2.191,2.2053,2.2288,2.2891,2.2906,2.2963,2.3093,2.3323,2.3509,2.3421,2.331,2.2917,2.2418,2.1994,2.1731,2.1693,2.1693,2.1693,2.154,2.1464,2.1349,2.1195,2.0722,2.005,1.9262,1.8873,1.8714,1.8674,1.8634,1.8625,1.8545,1.8345,1.7983,1.7578,1.7294,1.7017,1.682,1.673,1.6689,1.6689,1.6689,1.6689,1.6689,1.6689,1.6689,1.6689,1.6689,1.6689,1.6689,1.6412,1.615,1.5739,1.527,1.487,1.4395,1.3837,1.3162,1.2636,1.2187,1.1781,1.1446,1.1205,1.1099,1.1056,1.1062,1.0996,1.0991,1.0942,1.0816,1.0695,1.0611,1.0485,1.0346,1.0244,1.0154,1.0166,1.0196,1.0244,1.034,1.0509,1.0641,1.0755,1.081,1.0816,1.0937,1.1071,1.1267,2.0615,2.0615,2.0615,2.0615,2.0615,2.0615,2.0615,2.0615,2.0615,2.0615,2.0615,2.0615,2.0605,2.0605,2.0605,2.0683,2.0731,2.0741,2.0809,2.0896,2.0974,2.1089,2.1244,2.1387,2.1512,2.1589,2.1678,2.1949,2.2595,2.2685,2.2852,2.3624,2.3721,2.3721,2.3807,2.4057,2.4137,2.3956,2.396,2.3494,2.2811,2.2387,2.1973,2.1921,2.1807,2.1807,2.1769,2.1655,2.1578,2.1349,2.0876,2.0401,1.9814,1.9429,1.928,1.924,1.924,1.924,1.9161,1.8953,1.8496,1.8063,1.7619,1.7343,1.6935,1.6853,1.6689,1.6689,1.6689,1.6689,1.6689,1.6689,1.6689,1.6689,1.6689,1.6689,1.6689,1.657,1.6341,1.6031,1.5692,1.5443,1.495,1.4328,1.3695,1.3126,1.2652,1.1948,1.1601,1.1292,1.1186,1.1117,1.1117,1.1117,1.1075,1.1051,1.1009,1.0942,1.0833,1.0713,1.0581,1.0515,1.046,1.0412,1.0418,1.0538,1.0653,1.0743,1.0888,1.0966,1.1021,1.11,1.126,1.1409,1.1687,2.0615,2.0615,2.0615,2.0615,2.0615,2.0615,2.0615,2.0615,2.0605,2.0605,2.0654,2.0654,2.0644,2.0654,2.0654,2.078,2.0896,2.0935,2.1051,2.1128,2.1195,2.1282,2.1397,2.154,2.1655,2.1731,2.1762,2.2379,2.3082,2.3002,2.3206,2.4012,2.411,2.4024,2.4206,2.4249,2.4264,2.4257,2.4167,2.3764,2.3267,2.276,2.2263,2.1963,2.1807,2.1807,2.1807,2.1769,2.1655,2.1464,2.1118,2.0722,2.0362,2.001,1.9942,1.9863,1.9863,1.9833,1.9715,1.9557,1.9073,1.8594,1.8072,1.7644,1.7286,1.6992,1.6828,1.6705,1.6705,1.6689,1.6689,1.6689,1.6689,1.6689,1.6689,1.6689,1.6689,1.6681,1.6516,1.6277,1.6111,1.5905,1.5428,1.4828,1.4222,1.3681,1.3006,1.232,1.1763,1.1453,1.1223,1.1149,1.1117,1.1117,1.1117,1.1105,1.1087,1.1069,1.0991,1.0918,1.0858,1.0761,1.0683,1.0575,1.0605,1.0755,1.0834,1.0936,1.1045,1.1105,1.118,1.1254,1.1366,1.1589,1.204,2.0615,2.0615,2.0615,2.0605,2.0605,2.0615,2.0615,2.0615,2.0605,2.0683,2.078,2.0819,2.0858,2.0867,2.0867,2.0945,2.1138,2.1138,2.1138,2.1215,2.1387,2.1474,2.155,2.1655,2.1731,2.178,2.1932,2.2387,2.3101,2.3216,2.3546,2.436,2.4421,2.4368,2.4411,2.4464,2.4454,2.4435,2.4383,2.4115,2.3598,2.3018,2.2304,2.2004,2.1807,2.1807,2.1807,2.1807,2.1769,2.1655,2.1464,2.1108,2.0838,2.0644,2.0566,2.0489,2.0489,2.045,2.0342,2.0175,1.976,1.9172,1.8668,1.8186,1.7761,1.7261,1.7097,1.6835,1.6778,1.6697,1.6689,1.6689,1.6689,1.6689,1.6689,1.6689,1.6689,1.6689,1.6602,1.6444,1.6317,1.6134,1.5857,1.5265,1.4621,1.4035,1.3324,1.2623,1.1908,1.1602,1.1273,1.1186,1.1117,1.1117,1.1117,1.1117,1.1105,1.1111,1.1105,1.1033,1.1009,1.1051,1.093,1.0797,1.0876,1.0991,1.1063,1.1045,1.1112,1.1186,1.1292,1.1403,1.1552,1.1811,1.2298]}]]